[[{"header":{"parameterUnit":"m.s-1","parameterCategory":1,"la1":30.6,"la2":28.766,"lo1":-90.7593,"lo2":-88.6598,"dy":0.0162,"dx":0.0183,"nx":116,"ny":114,"refTime":"2024-02-07T18:00:00:Z","depth":0,"parameterNumber":2,"parameterNumberName":"U-component_of_WINDS"},"data":[0.0,0.0,0.0,0.0,0.0,0.0,0.0,0.0,0.0,0.0,0.0,0.0,0.0,0.0,0.0,0.0,0.0,0.0,0.0,0.0,0.0,0.0,0.0,0.0,0.0,0.0,0.0,0.0,0.0,0.0,0.0,0.0,0.0,0.0,0.0,0.0,0.0,0.0,0.0,0.0,0.0,0.0,0.0,0.0,0.0,0.0,0.0,0.0,0.0,0.0,0.0,0.0,0.0,0.0,0.0,0.0,0.0,0.0,0.0,0.0,0.0,0.0,0.0,0.0,0.0,0.0,0.0,0.0,0.0,0.0,0.0,0.0,0.0,0.0,0.0,0.0,0.0,0.0,0.0,0.0,0.0,0.0,0.0,0.0,0.0,0.0,0.0,0.0,0.0,0.0,0.0,0.0,0.0,0.0,0.0,0.0,0.0,0.0,0.0,0.0,0.0,0.0,0.0,0.0,0.0,0.0,0.0,0.0,0.0,0.0,0.0,0.0,0.0,0.0,0.0,0.0,0.0,0.0,0.0,0.0,0.0,0.0,0.0,0.0,0.0,0.0,0.0,0.0,0.0,0.0,0.0,0.0,0.0,0.0,0.0,0.0,0.0,0.0,0.0,0.0,0.0,0.0,0.0,0.0,0.0,0.0,0.0,0.0,0.0,0.0,0.0,0.0,0.0,0.0,0.0,0.0,0.0,0.0,0.0,0.0,0.0,0.0,0.0,0.0,0.0,0.0,0.0,0.0,0.0,0.0,0.0,0.0,0.0,0.0,0.0,0.0,0.0,0.0,0.0,0.0,0.0,0.0,0.0,0.0,0.0,0.0,0.0,0.0,0.0,0.0,0.0,0.0,0.0,0.0,0.0,0.0,0.0,0.0,0.0,0.0,0.0,0.0,0.0,0.0,0.0,0.0,0.0,0.0,0.0,0.0,0.0,0.0,0.0,0.0,0.0,0.0,0.0,0.0,0.0,0.0,0.0,0.0,0.0,0.0,0.0,0.0,0.0,0.0,0.0,0.0,0.0,0.0,0.0,0.0,0.0,0.0,0.0,0.0,0.0,0.0,0.0,0.0,0.0,0.0,0.0,0.0,0.0,0.0,0.0,0.0,0.0,0.0,0.0,0.0,0.0,0.0,0.0,0.0,0.0,0.0,0.0,0.0,0.0,0.0,0.0,0.0,0.0,0.0,0.0,0.0,0.0,0.0,0.0,0.0,0.0,0.0,0.0,0.0,0.0,0.0,0.0,0.0,0.0,0.0,0.0,0.0,0.0,0.0,0.0,0.0,0.0,0.0,0.0,0.0,0.0,0.0,0.0,0.0,0.0,0.0,0.0,0.0,0.0,0.0,0.0,0.0,0.0,0.0,0.0,0.0,0.0,0.0,0.0,0.0,0.0,0.0,0.0,0.0,0.0,0.0,0.0,0.0,0.0,0.0,0.0,0.0,0.0,0.0,0.0,0.0,0.0,0.0,0.0,0.0,0.0,0.0,0.0,0.0,0.0,0.0,0.0,0.0,0.0,0.0,0.0,0.0,0.0,0.0,0.0,0.0,0.0,0.0,0.0,0.0,0.0,0.0,0.0,0.0,0.0,0.0,0.0,0.0,0.0,0.0,0.0,0.0,0.0,0.0,0.0,0.0,0.0,0.0,0.0,0.0,0.0,0.0,0.0,0.0,0.0,0.0,0.0,0.0,0.0,0.0,0.0,0.0,0.0,0.0,0.0,0.0,0.0,0.0,0.0,0.0,0.0,0.0,0.0,0.0,0.0,0.0,0.0,0.0,0.0,0.0,0.0,0.0,0.0,0.0,0.0,0.0,0.0,0.0,0.0,0.0,0.0,0.0,0.0,0.0,0.0,0.0,0.0,0.0,0.0,0.0,0.0,0.0,0.0,0.0,0.0,0.0,0.0,0.0,0.0,0.0,0.0,0.0,0.0,0.0,0.0,0.0,0.0,0.0,0.0,0.0,0.0,0.0,0.0,0.0,0.0,0.0,0.0,0.0,0.0,0.0,0.0,0.0,0.0,0.0,0.0,0.0,0.0,0.0,0.0,0.0,0.0,0.0,0.0,0.0,0.0,0.0,0.0,0.0,0.0,0.0,0.0,0.0,0.0,0.0,0.0,0.0,0.0,0.0,0.0,0.0,0.0,0.0,0.0,0.0,0.0,0.0,0.0,0.0,0.0,0.0,0.0,0.0,0.0,0.0,0.0,0.0,0.0,0.0,0.0,0.0,0.0,0.0,0.0,0.0,0.0,0.0,0.0,0.0,0.0,0.0,0.0,0.0,0.0,0.0,0.0,0.0,0.0,0.0,0.0,0.0,0.0,0.0,0.0,0.0,0.0,0.0,0.0,0.0,0.0,0.0,0.0,0.0,0.0,0.0,0.0,0.0,0.0,0.0,0.0,0.0,0.0,0.0,0.0,0.0,0.0,0.0,0.0,0.0,0.0,0.0,0.0,0.0,0.0,0.0,0.0,0.0,0.0,0.0,0.0,0.0,0.0,0.0,0.0,0.0,0.0,0.0,0.0,0.0,0.0,0.0,0.0,0.0,0.0,0.0,0.0,0.0,0.0,0.0,0.0,0.0,0.0,0.0,0.0,0.0,0.0,0.0,0.0,0.0,0.0,0.0,0.0,0.0,0.0,0.0,0.0,0.0,0.0,0.0,0.0,0.0,0.0,0.0,0.0,0.0,0.0,0.0,0.0,0.0,0.0,0.0,0.0,0.0,0.0,0.0,0.0,0.0,0.0,0.0,0.0,0.0,0.0,0.0,0.0,0.0,0.0,0.0,0.0,0.0,0.0,0.0,0.0,0.0,0.0,0.0,0.0,0.0,0.0,0.0,0.0,0.0,0.0,0.0,0.0,0.0,0.0,0.0,0.0,0.0,0.0,0.0,0.0,0.0,0.0,0.0,0.0,0.0,0.0,0.0,0.0,0.0,0.0,0.0,0.0,0.0,0.0,0.0,0.0,0.0,0.0,0.0,0.0,0.0,0.0,0.0,0.0,0.0,0.0,0.0,0.0,0.0,0.0,0.0,0.0,0.0,0.0,0.0,0.0,0.0,0.0,0.0,0.0,0.0,0.0,0.0,0.0,0.0,0.0,0.0,0.0,0.0,0.0,0.0,0.0,0.0,0.0,0.0,0.0,0.0,0.0,0.0,0.0,0.0,0.0,0.0,0.0,0.0,0.0,0.0,0.0,0.0,0.0,0.0,0.0,0.0,0.0,0.0,0.0,0.0,0.0,0.0,0.0,0.0,0.0,0.0,0.0,0.0,0.0,0.0,0.0,0.0,0.0,0.0,0.0,0.0,0.0,0.0,0.0,0.0,0.0,0.0,0.0,0.0,0.0,0.0,0.0,0.0,0.0,0.0,0.0,0.0,0.0,0.0,0.0,0.0,0.0,0.0,0.0,0.0,0.0,0.0,0.0,0.0,0.0,0.0,0.0,0.0,0.0,0.0,0.0,0.0,0.0,0.0,0.0,0.0,0.0,0.0,0.0,0.0,0.0,0.0,0.0,0.0,0.0,0.0,0.0,0.0,0.0,0.0,0.0,0.0,0.0,0.0,0.0,0.0,0.0,0.0,0.0,0.0,0.0,0.0,0.0,0.0,0.0,0.0,0.0,0.0,0.0,0.0,0.0,0.0,0.0,0.0,0.0,0.0,0.0,0.0,0.0,0.0,0.0,0.0,0.0,0.0,0.0,0.0,0.0,0.0,0.0,0.0,0.0,0.0,0.0,0.0,0.0,0.0,0.0,0.0,0.0,0.0,0.0,0.0,0.0,0.0,0.0,0.0,0.0,0.0,0.0,0.0,0.0,0.0,0.0,0.0,0.0,0.0,0.0,0.0,0.0,0.0,0.0,0.0,0.0,0.0,0.0,0.0,0.0,0.0,0.0,0.0,0.0,0.0,0.0,0.0,0.0,0.0,0.0,0.0,0.0,0.0,0.0,0.0,0.0,0.0,0.0,0.0,0.0,0.0,0.0,0.0,0.0,0.0,0.0,0.0,0.0,0.0,0.0,0.0,0.0,0.0,0.0,0.0,0.0,0.0,0.0,0.0,0.0,0.0,0.0,0.0,0.0,0.0,0.0,0.0,0.0,0.0,0.0,0.0,0.0,0.0,0.0,0.0,0.0,0.0,0.0,0.0,0.0,0.0,0.0,0.0,0.0,0.0,0.0,0.0,0.0,0.0,0.0,0.0,0.0,0.0,0.0,0.0,0.0,0.0,0.0,0.0,0.0,0.0,0.0,0.0,0.0,0.0,0.0,0.0,0.0,0.0,0.0,0.0,0.0,0.0,0.0,0.0,0.0,0.0,0.0,0.0,0.0,0.0,0.0,0.0,0.0,0.0,0.0,0.0,0.0,0.0,0.0,0.0,0.0,0.0,0.0,0.0,0.0,0.0,0.0,0.0,0.0,0.0,0.0,0.0,0.0,0.0,0.0,0.0,0.0,0.0,0.0,0.0,0.0,0.0,0.0,0.0,0.0,0.0,0.0,0.0,0.0,0.0,0.0,0.0,0.0,0.0,0.0,0.0,0.0,0.0,0.0,0.0,0.0,0.0,0.0,0.0,0.0,0.0,0.0,0.0,0.0,0.0,0.0,0.0,0.0,0.0,0.0,0.0,0.0,0.0,0.0,0.0,0.0,0.0,0.0,0.0,0.0,0.0,0.0,0.0,0.0,0.0,0.0,0.0,0.0,0.0,0.0,0.0,0.0,0.0,0.0,0.0,0.0,0.0,0.0,0.0,0.0,0.0,0.0,0.0,0.0,0.0,0.0,0.0,0.0,0.0,0.0,0.0,0.0,0.0,0.0,0.0,0.0,0.0,0.0,0.0,0.0,0.0,0.0,0.0,0.0,0.0,0.0,0.0,0.0,0.0,0.0,0.0,0.0,0.0,0.0,0.0,0.0,0.0,0.0,0.0,0.0,0.0,0.0,0.0,0.0,0.0,0.0,0.0,0.0,0.0,0.0,0.0,0.0,0.0,0.0,0.0,0.0,0.0,0.0,0.0,0.0,0.0,0.0,0.0,0.0,0.0,0.0,0.0,0.0,0.0,0.0,0.0,0.0,0.0,0.0,0.0,0.0,0.0,0.0,0.0,0.0,0.0,0.0,0.0,0.0,0.0,0.0,0.0,0.0,0.0,0.0,0.0,0.0,0.0,0.0,0.0,0.0,0.0,0.0,0.0,0.0,0.0,0.0,0.0,0.0,0.0,0.0,0.0,0.0,0.0,0.0,0.0,0.0,0.0,0.0,0.0,0.0,0.0,0.0,0.0,0.0,0.0,0.0,0.0,0.0,0.0,0.0,0.0,0.0,0.0,0.0,0.0,0.0,0.0,0.0,0.0,0.0,0.0,0.0,0.0,0.0,0.0,0.0,0.0,0.0,0.0,0.0,0.0,0.0,0.0,0.0,0.0,0.0,0.0,0.0,0.0,0.0,0.0,0.0,0.0,0.0,0.0,0.0,0.0,0.0,0.0,0.0,0.0,0.0,0.0,0.0,0.0,0.0,0.0,0.0,0.0,0.0,0.0,0.0,0.0,0.0,0.0,0.0,0.0,0.0,0.0,0.0,0.0,0.0,0.0,0.0,0.0,0.0,0.0,0.0,0.0,0.0,0.0,0.0,0.0,0.0,0.0,0.0,0.0,0.0,0.0,0.0,0.0,0.0,0.0,0.0,0.0,0.0,0.0,0.0,0.0,0.0,0.0,0.0,0.0,0.0,0.0,0.0,0.0,0.0,0.0,0.0,0.0,0.0,0.0,0.0,0.0,0.0,0.0,0.0,0.0,0.0,0.0,0.0,0.0,0.0,0.0,0.0,0.0,0.0,0.0,0.0,0.0,0.0,0.0,0.0,0.0,0.0,0.0,0.0,0.0,0.0,0.0,0.0,0.0,0.0,0.0,0.0,0.0,0.0,0.0,0.0,0.0,0.0,0.0,0.0,0.0,0.0,0.0,0.0,0.0,0.0,0.0,0.0,0.0,0.0,0.0,0.0,0.0,0.0,0.0,0.0,0.0,0.0,0.0,0.0,0.0,0.0,0.0,0.0,0.0,0.0,0.0,0.0,0.0,0.0,0.0,0.0,0.0,0.0,0.0,-3.7584,-3.7753,0.0,0.0,0.0,0.0,0.0,0.0,0.0,0.0,0.0,0.0,0.0,0.0,0.0,0.0,0.0,0.0,0.0,0.0,0.0,0.0,0.0,0.0,0.0,0.0,0.0,0.0,-2.6691,-2.6691,-2.6691,-2.6691,0.0,0.0,0.0,0.0,-2.6402,-2.6402,-2.6376,-2.6288,-2.6256,-2.6704,-2.7595,-2.8439,-2.8658,-2.8381,0.0,0.0,0.0,0.0,0.0,0.0,0.0,0.0,0.0,0.0,0.0,0.0,0.0,0.0,0.0,0.0,0.0,0.0,0.0,0.0,0.0,0.0,0.0,0.0,0.0,0.0,0.0,0.0,0.0,0.0,0.0,0.0,0.0,0.0,0.0,0.0,0.0,0.0,0.0,0.0,0.0,0.0,0.0,0.0,0.0,0.0,0.0,0.0,0.0,0.0,0.0,0.0,0.0,0.0,0.0,0.0,0.0,0.0,0.0,0.0,0.0,0.0,0.0,0.0,0.0,0.0,0.0,0.0,0.0,0.0,-3.8903,-3.8633,0.0,0.0,0.0,0.0,0.0,0.0,0.0,0.0,0.0,0.0,0.0,0.0,0.0,0.0,0.0,0.0,0.0,0.0,0.0,0.0,0.0,0.0,0.0,-2.6691,-2.6691,-2.6691,-2.6691,-2.6691,-2.6691,-2.6691,-2.6691,-2.6691,-2.6641,-2.6419,-2.6122,-2.6132,-2.6237,-2.6398,-2.6714,-2.8116,-3.0505,-3.1705,-3.1459,-2.995,-2.9243,0.0,0.0,0.0,0.0,0.0,0.0,0.0,0.0,0.0,0.0,0.0,0.0,0.0,0.0,0.0,0.0,0.0,0.0,0.0,0.0,0.0,0.0,0.0,0.0,0.0,0.0,0.0,0.0,0.0,0.0,0.0,0.0,0.0,0.0,0.0,0.0,0.0,0.0,0.0,0.0,0.0,0.0,0.0,0.0,0.0,0.0,0.0,0.0,0.0,0.0,0.0,0.0,0.0,0.0,0.0,0.0,0.0,0.0,0.0,0.0,0.0,0.0,0.0,-4.1305,-4.1982,-4.2692,-4.2692,-4.2692,-4.2591,-4.0764,-4.0113,-4.0316,-4.0451,0.0,0.0,0.0,0.0,0.0,0.0,0.0,0.0,0.0,0.0,0.0,0.0,0.0,0.0,0.0,0.0,0.0,0.0,0.0,0.0,0.0,-2.6691,-2.6691,-2.6691,-2.6691,-2.6691,-2.6691,-2.6691,-2.6691,-2.6691,-2.6367,-2.6157,-2.6104,-2.633,-2.6281,-2.5986,-2.9135,-3.2037,-3.4691,-3.546,-3.5984,-3.6138,-3.2567,-3.2009,-3.3519,0.0,0.0,0.0,0.0,0.0,0.0,0.0,0.0,0.0,0.0,0.0,0.0,0.0,0.0,0.0,0.0,0.0,0.0,0.0,0.0,0.0,0.0,0.0,0.0,0.0,0.0,0.0,0.0,0.0,0.0,0.0,0.0,0.0,0.0,0.0,0.0,0.0,0.0,0.0,0.0,0.0,-3.666,-3.666,0.0,0.0,0.0,0.0,0.0,0.0,0.0,0.0,0.0,0.0,0.0,0.0,0.0,-4.0164,-4.0899,-4.1542,-4.2252,-4.2997,-4.3037,-4.3538,-4.431,-4.431,-4.431,-4.4276,-4.4005,0.0,-4.1102,-4.1745,0.0,0.0,0.0,0.0,0.0,0.0,0.0,0.0,0.0,0.0,0.0,0.0,0.0,0.0,0.0,0.0,0.0,0.0,0.0,0.0,0.0,-2.8112,-2.8619,-2.8619,-3.0514,-3.0649,-2.8163,-2.9179,-2.8908,-2.6793,-2.6539,-2.6228,-2.5764,-2.6257,-2.7338,-2.8979,-3.2925,-3.583,-3.7769,-3.8846,-3.9708,-4.0262,-3.7677,-3.5522,-3.3767,-3.189,0.0,0.0,0.0,0.0,0.0,0.0,0.0,0.0,0.0,0.0,0.0,0.0,0.0,0.0,0.0,0.0,0.0,0.0,0.0,0.0,0.0,0.0,0.0,0.0,0.0,0.0,0.0,0.0,0.0,0.0,0.0,0.0,0.0,0.0,0.0,0.0,0.0,0.0,0.0,-3.6592,-3.6965,-3.7347,-3.7686,-3.7787,0.0,0.0,0.0,0.0,0.0,0.0,0.0,0.0,0.0,-4.1331,-4.1745,-4.2091,-4.2429,-4.276,-4.3538,-4.4688,-4.4688,-4.5094,-4.5867,-4.5867,-4.5867,-4.5838,-4.6278,-4.5432,-4.3673,-4.2692,-4.1677,-4.0663,0.0,0.0,0.0,0.0,-4.0383,-4.0696,0.0,0.0,0.0,0.0,0.0,0.0,0.0,0.0,0.0,0.0,0.0,0.0,-2.8196,-2.992,-3.1103,-3.1475,-3.4011,-3.4134,-3.0635,-3.1075,-3.0194,-2.7419,-2.6723,-2.6122,-2.5505,-2.6823,-2.9305,-3.2936,-3.6722,-3.94,-4.1093,-4.2325,-4.3248,-4.3833,-4.2263,-3.94,-3.5645,-3.3737,-3.2167,-3.0848,0.0,0.0,0.0,0.0,0.0,0.0,0.0,0.0,0.0,0.0,0.0,0.0,0.0,0.0,0.0,0.0,0.0,0.0,0.0,0.0,0.0,0.0,0.0,0.0,0.0,0.0,0.0,0.0,0.0,0.0,0.0,0.0,0.0,0.0,0.0,0.0,0.0,-3.7134,-3.7574,-3.8125,-3.8531,-3.8599,0.0,0.0,0.0,0.0,0.0,0.0,-4.0654,-4.2252,-4.2997,-4.2591,-4.3673,-4.4153,-4.3984,-4.4181,-4.4959,-4.6278,-4.6278,-4.665,-4.7361,-4.7361,-4.7462,-4.7665,-4.8037,-4.7564,-4.638,-4.4113,-4.2625,-4.1711,-4.0933,-4.0654,-4.0654,-4.0654,-4.1001,-4.1474,0.0,0.0,0.0,0.0,0.0,0.0,0.0,0.0,0.0,0.0,0.0,-2.7503,-2.9736,-3.1935,-3.3774,-3.5194,-3.5498,-3.5216,-3.4269,-3.1041,-2.9077,-2.8874,-2.6755,-2.5524,-2.5486,-2.8576,-3.2502,-3.7184,-4.0016,-4.2725,-4.5311,-4.6018,-4.6696,-4.725,-4.528,-4.3556,-4.1801,-3.66,-3.472,-3.4845,-3.0834,0.0,0.0,0.0,0.0,0.0,0.0,0.0,0.0,0.0,0.0,0.0,0.0,0.0,0.0,0.0,0.0,0.0,0.0,0.0,0.0,0.0,0.0,0.0,0.0,0.0,0.0,0.0,0.0,0.0,0.0,0.0,0.0,0.0,0.0,0.0,0.0,0.0,0.0,-3.8937,-4.0189,0.0,0.0,0.0,0.0,-4.0011,-4.1305,-4.2151,-4.2185,-4.4316,-4.4857,-4.3375,-4.5466,-4.6278,-4.5602,-4.6278,-4.7022,-4.777,-4.777,-4.8206,-4.8883,-4.8883,-4.9255,-4.9898,-4.9221,-4.8917,-4.868,-4.6447,-4.4654,-4.3206,-4.2489,-4.2185,-4.2185,-4.2185,-4.2185,-4.2219,0.0,0.0,0.0,0.0,0.0,0.0,0.0,0.0,-2.3966,-2.444,-2.664,-2.9382,-3.2577,-3.5791,-3.8497,-4.0434,-4.1516,-4.0764,-3.7584,-3.4776,-3.2611,-3.1176,-2.8614,-2.8021,-2.9641,-3.1876,-3.5153,-3.9431,-4.2633,-4.5095,-4.6911,-4.7588,-4.8019,-4.8204,-4.7034,-4.6018,-4.4849,-3.9831,-3.6537,-3.4451,-3.2066,-3.0125,0.0,0.0,0.0,0.0,0.0,0.0,0.0,0.0,0.0,0.0,0.0,0.0,0.0,0.0,0.0,0.0,0.0,0.0,0.0,0.0,0.0,0.0,0.0,0.0,0.0,0.0,0.0,0.0,0.0,0.0,0.0,0.0,0.0,0.0,0.0,0.0,0.0,-4.1068,-4.2455,0.0,-4.1948,-4.2083,-4.2422,-4.2956,-4.2997,-4.3876,-4.5805,-4.6655,-4.6857,-4.6283,-4.753,-4.7868,-4.7094,-4.7394,-4.7902,-4.8612,-4.9086,-4.9458,-4.9729,-5.0202,-5.0304,-5.0101,-5.0338,-5.0168,-4.9593,-4.8342,-4.6684,-4.4823,-4.4045,-4.3802,-4.3802,-4.3802,-4.4079,-4.4418,0.0,0.0,0.0,0.0,0.0,0.0,0.0,0.0,-2.3966,-2.444,-2.7791,-3.1447,-3.49,-3.9276,-4.2861,-4.5094,-4.5534,-4.4113,-4.0358,-3.6569,-3.3529,-3.147,-2.9498,-2.9845,-3.2788,-3.5024,-3.8169,-4.2232,-4.4941,-4.685,-4.7958,-4.8389,-4.8604,-4.8573,-4.7896,-4.7342,-4.6696,-4.3094,-3.9395,-3.5799,-3.3689,-3.2137,-3.0833,0.0,0.0,0.0,0.0,0.0,0.0,0.0,0.0,0.0,0.0,0.0,0.0,0.0,0.0,0.0,0.0,0.0,0.0,0.0,0.0,0.0,0.0,0.0,0.0,0.0,0.0,0.0,0.0,0.0,0.0,0.0,0.0,0.0,0.0,-4.0561,-4.232,-4.3335,-4.479,-4.5297,-4.4282,-4.4153,-4.4418,-4.4925,-4.4722,-4.5534,-4.777,-4.8376,-4.8646,-4.8646,-4.9357,-4.939,-4.8646,-4.8646,-4.8883,-4.939,-4.9864,-5.0236,-5.0473,-5.098,-5.1082,-5.0845,-5.1116,-5.1082,-5.0777,-5.0067,-4.8883,-4.7428,-4.5906,-4.5466,-4.5669,-4.5432,-4.5635,-4.6007,0.0,0.0,0.0,0.0,0.0,0.0,0.0,-2.3545,-2.4508,-2.4541,-2.9111,-3.3546,-3.6626,-4.2252,-4.6684,-4.8917,-4.7022,-4.4722,-4.2455,-3.6017,-3.147,-2.9656,-2.9303,-3.0929,-3.4597,-3.7892,-4.1555,-4.5618,-4.6942,-4.7958,-4.8604,-4.8604,-4.8604,-4.8573,-4.7927,-4.7619,-4.7558,-4.6203,-4.3371,-3.9398,-3.5675,-3.4638,-3.4942,0.0,0.0,0.0,0.0,0.0,0.0,0.0,0.0,0.0,0.0,0.0,0.0,0.0,0.0,0.0,0.0,0.0,0.0,0.0,0.0,0.0,0.0,0.0,0.0,0.0,0.0,0.0,0.0,0.0,0.0,0.0,0.0,0.0,-4.0164,-4.2091,-4.4085,-4.5635,-4.7124,-4.7432,-4.5974,-4.5838,-4.5838,-4.5872,-4.6481,-4.7225,-4.7973,-4.9357,-5.0135,-5.0135,-5.0845,-5.0879,-5.0135,-5.0135,-5.0135,-5.0135,-5.0135,-5.0541,-5.1251,-5.1285,-5.1657,-5.2266,-5.1589,-5.1657,-5.2232,-5.1555,-5.1219,-5.098,-4.8037,-4.7361,-4.7906,-4.7158,-4.6853,-4.6819,0.0,0.0,0.0,0.0,0.0,0.0,-2.2313,-2.3545,-2.4677,-2.5236,-3.0784,-3.6062,-3.9614,-4.4857,-4.8984,-5.1217,-4.7902,-4.4722,-4.2455,-3.6017,-3.1913,-3.1079,-3.2465,-3.5015,-3.8754,-4.0293,-4.2756,-4.6326,-4.7188,-4.7958,-4.8604,-4.8604,-4.8604,-4.8604,-4.8419,-4.8327,-4.8296,-4.7404,-4.6111,-4.4295,-4.0313,-3.7573,-3.5674,0.0,0.0,0.0,0.0,0.0,0.0,0.0,0.0,0.0,0.0,0.0,0.0,0.0,0.0,0.0,0.0,0.0,0.0,0.0,0.0,0.0,0.0,0.0,0.0,0.0,0.0,0.0,0.0,0.0,0.0,0.0,-4.0223,-4.1677,-4.1711,-4.4587,-4.7022,-4.797,-4.939,-4.9932,-4.8984,-4.8883,-4.912,-4.9661,-4.8883,-4.9187,-5.1014,-5.098,-5.0913,-5.0913,-5.1623,-5.1657,-5.0913,-5.0913,-5.0913,-5.0913,-5.1454,-5.1792,-5.2029,-5.2604,-5.2672,-5.2334,-5.2706,-5.2672,-5.2266,-5.2097,-5.2334,-5.2638,-5.0135,-4.9627,-5.0137,-4.8849,-4.8071,-4.7767,0.0,0.0,0.0,0.0,0.0,0.0,-2.2313,-2.3545,-2.4778,-2.5507,-3.1982,-3.7652,-4.0426,-4.5399,-4.9086,-5.0338,-4.6413,-4.2726,-4.0155,-3.5015,-3.221,-3.2498,-3.5289,-3.8241,-4.1309,-4.291,-4.491,-4.7434,-4.7835,-4.8235,-4.8604,-4.8604,-4.8604,-4.8604,-4.8604,-4.8604,-4.8573,-4.8204,-4.7804,-4.7219,-4.4541,-4.2093,-3.9841,-3.7634,-3.6807,-3.656,-3.5034,-3.5095,-3.5613,-3.3568,0.0,0.0,0.0,0.0,0.0,0.0,0.0,0.0,0.0,0.0,0.0,0.0,0.0,0.0,0.0,0.0,0.0,0.0,0.0,0.0,0.0,0.0,0.0,0.0,-4.2252,-4.4147,-4.5399,-4.7462,-4.9221,-5.027,-5.1454,-5.186,-5.1082,-5.1014,-5.1082,-5.1217,-5.0405,-5.0642,-5.2198,-5.1623,-5.1522,-5.2164,-5.2266,-5.2097,-5.1657,-5.1657,-5.1657,-5.1691,-5.2097,-5.2469,-5.2807,-5.3281,-5.3247,-5.2841,-5.3315,-5.3247,-5.2773,-5.2435,-5.257,-5.2807,0.0,0.0,0.0,0.0,-4.8748,-4.8477,0.0,0.0,0.0,0.0,0.0,0.0,-2.2313,-2.3545,-2.4778,-2.5507,-3.2645,-3.8159,-3.9571,-4.4316,-4.7432,-4.753,-4.3504,-3.9715,-3.6863,-3.3918,-3.2935,-3.4446,-3.815,-4.1077,-4.3002,-4.558,-4.7392,-4.8604,-4.8604,-4.8666,-4.8727,-4.8727,-4.8758,-4.885,-4.885,-4.885,-4.885,-4.8758,-4.8789,-4.8789,-4.8019,-4.685,-4.5249,-4.2119,-4.196,-4.3063,-4.0576,-3.9039,-3.7933,-3.6318,0.0,0.0,0.0,0.0,0.0,0.0,0.0,0.0,0.0,0.0,0.0,0.0,0.0,0.0,0.0,0.0,0.0,0.0,0.0,0.0,0.0,0.0,0.0,0.0,-4.4654,-4.7158,-4.9965,-5.0405,-5.0947,-5.2266,-5.3078,-5.3213,-5.2503,-5.2435,-5.2164,-5.1522,-5.1386,-5.1623,-5.2266,-5.1691,0.0,0.0,0.0,-5.2435,-5.2435,-5.2435,-5.2435,-5.2435,-5.2435,-5.2807,-5.3518,-5.3518,-5.3518,-5.3518,-5.3518,-5.345,-5.3315,-5.2604,-5.2198,-5.1928,-5.071,-5.0507,-5.0779,-4.9593,-4.9086,-4.9018,0.0,0.0,0.0,0.0,0.0,0.0,-2.2313,-2.3545,-2.4778,-2.5507,-3.1678,-3.64,-3.7337,-4.1542,-4.4553,-4.5162,-4.1677,-3.8396,-3.5971,-3.5847,-3.6729,-3.8792,-4.2472,-4.4908,-4.5811,-4.7528,-4.8465,-4.8604,-4.8604,-4.8912,-4.9497,-4.9497,-4.9774,-5.0297,-5.0297,-5.0297,-5.0266,-4.9712,-4.9805,-5.0174,-4.8943,-4.7281,-4.5526,-4.4811,-4.4134,-4.3433,-4.235,-4.3144,-4.4219,-4.0685,-3.9948,-4.0013,-3.6599,-3.3798,0.0,0.0,0.0,0.0,0.0,0.0,0.0,0.0,0.0,0.0,0.0,0.0,0.0,0.0,0.0,0.0,0.0,0.0,0.0,-4.4654,-4.7394,-4.9864,-5.1623,-5.2435,-5.2942,-5.3247,-5.3416,-5.345,-5.3281,-5.3281,-5.3213,-5.3078,-5.2469,-5.2164,-5.23,-5.2164,-5.2232,-5.2536,-5.301,-5.3281,-5.3281,-5.3281,-5.3281,-5.3281,-5.3281,0.0,-5.3518,-5.3518,-5.3518,-5.3518,-5.3518,-5.3145,-5.2536,-5.2367,-5.1589,-5.0541,-5.0879,-5.0371,-4.9458,-4.9763,-4.9492,-4.9086,0.0,0.0,0.0,0.0,0.0,0.0,-2.2313,-2.3545,-2.4778,-2.5507,-3.048,-3.4235,-3.5013,-3.7753,-3.9512,-3.9512,-3.7168,-3.5791,-3.6163,-3.7956,-4.0321,-4.3315,-4.6649,-4.8542,-4.8878,-4.9876,-5.0362,-5.033,-4.9831,-4.9835,-5.0205,-5.0205,-5.0205,-5.0205,-5.0543,-5.0513,-5.0205,-5.0205,-5.0205,-5.0143,-4.9435,-4.8327,-4.7127,-4.7496,-4.7434,-4.7004,-4.5988,-4.6265,-4.6634,-4.3587,-4.2571,-4.214,-3.937,-3.6848,-3.4535,0.0,0.0,0.0,0.0,0.0,0.0,0.0,0.0,0.0,0.0,0.0,0.0,0.0,0.0,-3.8304,-3.9817,0.0,-4.4756,-4.6989,-4.9221,-5.1183,-5.2706,-5.3247,-5.3518,-5.3518,-5.3518,-5.3518,-5.3518,-5.3518,-5.3518,-5.3518,-5.3145,-5.2909,-5.2909,-5.2909,-5.2909,-5.2909,-5.3281,-5.3518,-5.3518,-5.3518,-5.3518,-5.3518,-5.3518,-5.3518,-5.3518,-5.3518,-5.3518,-5.3518,-5.3518,-5.3281,-5.2875,-5.2469,-5.1657,-5.0676,-5.1082,-5.0304,-4.9052,-4.9424,-4.9323,-4.9052,0.0,0.0,0.0,0.0,0.0,0.0,0.0,-2.3444,-2.4541,-2.5304,-2.9044,-3.1887,-3.2476,-3.3863,-3.4472,-3.3694,-3.3186,-3.4223,-3.7235,-4.0358,-4.3737,-4.7471,-5.0323,-5.1732,-5.1604,-5.2195,-5.2322,-5.1995,-5.1307,-5.0931,-5.0882,-5.0882,-5.0667,-5.0297,-5.0851,-5.079,-5.0297,-5.0728,-5.0667,-5.0266,-4.9989,-4.962,-4.9251,-4.9558,-5.002,-5.0328,-4.8912,-4.7804,-4.6757,-4.4972,-4.3494,-4.2202,-4.1058,-3.9394,-3.7365,-3.5191,-3.4197,0.0,0.0,0.0,0.0,0.0,0.0,0.0,0.0,-3.4426,-3.5791,-3.7337,-3.9309,-4.1178,-4.2692,-4.4823,-4.7022,-4.9086,-5.0676,-5.2097,-5.3348,-5.3518,-5.345,-5.3281,-5.3416,-5.3518,-5.3518,-5.3518,-5.3518,-5.3518,-5.3518,-5.3518,-5.3518,-5.3518,-5.3518,-5.3518,-5.3518,-5.3518,-5.3518,-5.3518,-5.3518,-5.3518,-5.3518,-5.3518,-5.3518,-5.3518,-5.3518,-5.3484,-5.3348,-5.3281,-5.3213,-5.2401,-5.1758,-5.1185,-5.1185,-5.0473,-4.9424,-4.9424,-4.9357,-4.9221,0.0,0.0,0.0,0.0,0.0,0.0,0.0,0.0,-2.3797,-2.4541,-2.7385,-2.9416,-2.9484,-3.0818,-3.1393,-3.0683,-3.3457,-3.6502,-3.9537,-4.3166,-4.6828,-5.0452,-5.2905,-5.3828,-5.3104,-5.3841,-5.3486,-5.1995,-5.1871,-5.1757,-5.159,-5.159,-5.1867,-5.239,-5.2452,-5.2452,-5.2329,-5.1805,-5.1898,-5.2267,-5.1067,-5.0882,-5.1221,-5.0112,-4.9743,-4.962,-4.8204,-4.6511,-4.4825,-4.3994,-4.2817,-4.1678,-4.1524,-4.0451,-3.8828,-3.6707,-3.4293,-3.2233,-3.1725,-3.1487,-3.1638,-3.2827,-3.322,-3.3998,0.0,-3.7922,-3.8903,-4.0392,-4.1948,-4.3477,-4.506,-4.7124,-4.9154,-5.0678,-5.2266,-5.3315,-5.3484,-5.3518,-5.3247,-5.2536,-5.3078,-5.3518,-5.3518,-5.3518,-5.3518,-5.3518,-5.3518,-5.3518,-5.3518,-5.3518,-5.3518,-5.3518,-5.3518,-5.3518,-5.3518,-5.3518,-5.3518,-5.3518,-5.3518,-5.3518,-5.3518,-5.3518,-5.3518,-5.345,-5.2739,-5.2435,-5.2367,-5.1657,-5.1252,-5.1185,-5.1185,-5.1083,-5.098,-5.098,-5.0541,-4.9965,0.0,0.0,0.0,0.0,0.0,0.0,0.0,0.0,0.0,-2.3831,-2.571,-2.7029,-2.7029,-2.7943,-2.845,-2.8146,-3.1529,-3.5487,-3.9808,-4.4012,-4.8388,-5.294,-5.4899,-5.5703,-5.5351,-5.5601,-5.538,-5.4677,-5.4156,-5.3617,-5.304,-5.304,-5.2704,-5.2144,-5.2544,-5.2483,-5.2144,-5.2236,-5.2236,-5.2052,-5.1067,-5.0636,-5.0297,-4.8112,-4.6819,-4.6088,-4.5464,-4.4479,0.0,-4.1709,-4.1093,-4.097,-4.097,-4.0177,-3.8933,-3.7233,-3.5467,-3.3938,-3.2937,-3.3174,-3.3829,-3.3998,-3.5351,-3.711,-3.8777,-4.0087,-4.1339,-4.2861,-4.4688,-4.635,-4.7428,-4.9424,-5.1116,-5.1758,-5.2773,-5.3518,-5.3518,-5.3112,-5.2536,-5.1758,-5.1961,-5.2334,-5.2773,-5.3247,-5.3518,-5.3518,-5.3518,-5.3518,-5.3518,-5.3518,-5.3518,-5.3518,-5.3518,-5.3518,-5.3518,-5.3518,-5.3518,-5.3518,-5.3518,-5.3518,-5.3518,-5.3518,-5.3518,-5.3484,-5.3145,-5.301,-5.2976,-5.2672,-5.2266,-5.1894,-5.2367,-5.2266,-5.1758,-5.0879,-5.0642,-5.0608,0.0,0.0,0.0,0.0,0.0,0.0,0.0,0.0,0.0,0.0,-2.4628,-2.5439,-2.5879,-2.6387,-2.6691,-2.6691,-2.9754,-3.3816,-3.886,-4.3193,-4.8071,-5.3721,-5.5412,-5.6494,-5.7103,-5.7025,-5.6844,-5.6614,-5.5955,-5.5231,-5.4359,-5.4359,-5.3766,-5.2672,-5.294,-5.279,-5.2355,-5.2387,-5.2144,-5.1621,-5.0759,-4.9774,-4.8543,-4.5803,-4.3556,-4.196,-4.2145,-4.1155,-3.965,-3.8671,-3.824,-3.8365,-3.9239,-3.9029,-3.8245,-3.6998,-3.5712,-3.4506,-3.3626,-3.4336,-3.5385,-3.5656,-3.7686,-3.9918,-4.1068,-4.2489,-4.391,-4.5229,-4.6955,-4.8443,-4.9187,-5.0608,-5.1826,-5.2232,-5.2807,-5.3247,-5.3484,-5.2638,-5.1725,-5.098,-5.0744,-5.0811,-5.1352,-5.2469,-5.3281,-5.3484,-5.3518,-5.3518,-5.3518,-5.3518,-5.3518,-5.3518,-5.3518,-5.3518,-5.3518,-5.3518,-5.3518,-5.3518,-5.3518,-5.3518,-5.3518,-5.3518,-5.3518,-5.3518,-5.3518,-5.3518,-5.3484,-5.3281,-5.2841,-5.2367,-5.2942,-5.2807,-5.2164,-5.1082,-5.0913,-5.1048,0.0,0.0,0.0,0.0,0.0,0.0,0.0,0.0,0.0,0.0,0.0,0.0,0.0,-2.6708,-2.6691,-2.6691,-2.8822,-3.207,-3.6592,-4.0383,-4.5399,-5.2097,-5.3856,-5.5649,-5.7814,-5.7881,-5.7443,-5.6614,-5.6575,-5.6113,-5.5271,-5.5271,-5.5239,-5.5158,-5.4359,-5.3934,-5.3828,-5.2355,-5.1713,-5.159,-5.0266,-4.8512,-4.6388,-4.371,-4.0601,-3.7769,-3.8415,-3.6107,-3.2989,-3.4742,-3.3999,-3.2877,-3.6039,-3.6978,-3.6796,-3.5985,-3.4139,-3.2564,-3.322,-3.3964,-3.5216,-3.8125,-4.002,-4.1711,-4.3972,-4.5602,-4.6887,-4.7635,-4.8443,-4.9187,-4.9932,-5.0101,-5.0608,-5.2063,-5.2334,-5.2604,-5.3382,-5.2198,-5.098,-5.0202,-4.9492,-4.9086,-4.912,-5.1048,-5.2672,-5.345,-5.3518,-5.3518,-5.3518,-5.3518,-5.3518,-5.3518,-5.3518,-5.3518,-5.3518,-5.3518,-5.3518,-5.3518,-5.3518,-5.3518,-5.3518,-5.3518,-5.3518,-5.3518,-5.3518,-5.3518,-5.345,-5.2672,-5.2334,-5.23,-5.2334,-5.2334,-5.23,-5.2266,-5.1792,-5.1116,0.0,0.0,0.0,0.0,0.0,0.0,0.0,0.0,0.0,0.0,0.0,0.0,0.0,0.0,0.0,0.0,-2.8333,-3.0818,-3.4303,-3.8497,-4.2726,-4.6989,-5.0507,-5.2909,-5.416,-5.5175,-5.5778,-5.5996,-5.5996,-5.5558,-5.47,-5.47,-5.4391,-5.3808,-5.299,-5.2908,-5.3253,-5.1245,-5.0142,-4.9577,-4.7243,-4.5657,-4.4178,-4.0078,-3.7277,-3.5244,0.0,-3.1769,-3.0779,-3.0515,-3.0434,-3.0703,-3.2232,-3.2975,-3.3163,-3.2807,-3.322,-3.3795,-3.4066,-3.5757,-3.8058,-4.0561,-4.2692,-4.4654,-4.6413,-4.7564,-4.8206,-4.7939,-4.8075,-4.8206,-4.7936,-4.8308,-4.912,-5.0608,-5.1251,-5.186,-5.2604,-5.2266,-5.1116,-4.8917,-4.9289,-4.9154,-4.7665,-4.9526,-5.1352,-5.2604,-5.2706,-5.2942,-5.3484,-5.3518,-5.3518,-5.3518,-5.3518,-5.3518,-5.3518,-5.3518,-5.3518,-5.3518,-5.3518,-5.3518,-5.3518,-5.3518,-5.3518,-5.3518,-5.3518,-5.3518,-5.3484,-5.3213,-5.2773,-5.2367,-5.2875,-5.2773,-5.23,-5.23,-5.1826,-5.1116,0.0,0.0,0.0,0.0,0.0,0.0,0.0,0.0,0.0,0.0,0.0,0.0,0.0,0.0,0.0,0.0,0.0,-2.9348,-3.2036,-3.5419,-3.8768,-4.2049,-4.5432,-4.7699,-4.8714,-4.9695,-5.0574,-5.1286,-5.1589,-5.1731,-5.1692,-5.1926,-5.1912,-5.1609,-5.0758,-5.0682,-5.1029,-4.8737,-4.7233,-4.6126,-4.3576,-4.1676,-3.9992,-3.6188,-3.3782,0.0,-2.9334,-2.8474,-2.852,-2.8029,-2.8265,-2.8949,-3.0054,-3.0825,-3.1416,-3.1867,-3.3186,-3.4742,-3.5825,-3.8091,-4.0696,-4.2963,-4.5026,-4.6752,-4.7669,-4.8071,-4.7936,-4.6921,-4.6515,-4.6075,-4.5331,-4.5568,-4.638,-4.7868,-4.8748,-4.9796,-5.1285,-5.1048,-5.0338,-4.919,-4.9221,-4.8951,-4.8071,-4.9255,-5.0608,-5.1826,-5.2435,-5.2942,-5.3484,-5.3518,-5.3518,-5.3518,-5.3518,-5.3518,-5.3518,-5.3518,-5.3518,-5.3518,-5.3518,-5.3518,-5.3518,-5.3518,-5.3518,-5.3518,-5.3518,-5.3518,-5.3484,-5.3179,-5.2773,-5.2367,-5.2875,-5.2773,-5.2334,-5.2638,-5.2435,-5.1894,0.0,0.0,0.0,0.0,0.0,0.0,0.0,0.0,0.0,0.0,0.0,0.0,0.0,0.0,0.0,0.0,0.0,0.0,-2.9803,-3.1326,-3.3761,-3.7347,-3.9014,-4.0561,-4.1982,-4.2083,-4.2489,-4.3206,-4.3978,-4.5089,-4.6481,-4.7192,-4.7868,-4.8514,-4.7664,-4.7275,-4.7176,-4.4885,-4.304,-4.1501,-3.942,-3.6926,-3.4212,-3.2207,-3.0257,-2.8436,-2.7026,-2.633,-2.6249,-2.7329,-2.7532,-2.7688,-2.9623,-3.0717,-3.1596,-3.3119,-3.4167,-3.5419,-3.8362,-4.0798,-4.2997,-4.5229,-4.6819,-4.7804,-4.7804,-4.7225,-4.6244,-4.475,-4.3741,-4.2963,-4.2151,-4.2083,-4.2658,-4.4276,-4.5263,-4.6819,-4.9729,-4.9018,-4.892,-5.0881,-4.9359,-4.8646,-4.9898,-5.0135,-5.0473,-5.1151,-5.2604,-5.345,-5.3518,-5.3518,-5.3518,-5.3518,-5.3518,-5.3518,-5.3518,-5.3518,-5.3518,-5.3518,-5.3518,-5.3518,-5.3518,-5.3518,-5.3518,-5.3518,-5.3518,-5.3518,-5.345,-5.2672,-5.2367,-5.2367,-5.2367,-5.2367,-5.2469,-5.3213,-5.3484,-5.3247,0.0,0.0,0.0,0.0,0.0,0.0,0.0,0.0,0.0,0.0,0.0,0.0,0.0,0.0,0.0,0.0,0.0,0.0,-2.7537,-2.9499,-3.1089,-3.207,-3.5059,-3.7212,-3.8183,-3.9276,-4.0189,-4.0933,-4.1162,-4.1441,-4.1786,-4.1989,-4.2192,-4.2334,-4.1493,-4.1493,-4.1902,-3.9625,-3.8169,-3.7261,-3.5084,-3.3463,-3.2143,-3.0151,-2.9038,-2.8436,-2.7026,-2.633,-2.6219,-2.7034,-2.8239,-2.9637,-3.1238,-3.2239,-3.3254,-3.5318,-3.7246,-3.9106,-4.0933,-4.3098,-4.5094,-4.6244,-4.6786,-4.6955,-4.6413,-4.5669,-4.4581,-4.2489,-4.1035,-3.9715,-3.8454,-3.9073,-4.0696,-4.3301,-4.5771,-4.8206,-5.0608,-5.1589,-5.1657,-5.0507,-5.0845,-5.0676,-4.939,-5.0777,-5.1589,-5.1251,-5.2063,-5.2875,-5.3484,-5.3518,-5.3518,-5.3518,-5.3518,-5.3518,-5.3518,-5.3518,-5.3518,-5.3518,-5.3518,-5.3518,-5.3518,-5.3518,-5.3518,-5.3518,-5.3518,-5.3518,-5.3484,-5.3281,-5.3179,-5.3179,-5.3179,-5.3179,-5.3213,-5.3416,-5.3112,-5.2638,0.0,0.0,0.0,0.0,0.0,0.0,0.0,0.0,0.0,0.0,0.0,0.0,0.0,0.0,0.0,0.0,0.0,0.0,0.0,-2.7909,-2.8619,-2.8619,-3.0581,-3.1901,-3.2361,-3.3173,-3.3964,-3.4709,-3.5069,-3.5554,-3.6197,-3.6535,-3.684,-3.7155,-3.6683,-3.6731,-3.703,-3.5472,-3.4197,0.0,0.0,-3.039,-2.9341,-2.8208,-2.7767,-2.7654,-2.6869,-2.6921,-2.7538,-2.8609,-2.9902,-3.1326,-3.2801,-3.402,-3.5318,-3.7584,-3.9377,-4.1001,-4.2794,-4.4722,-4.6278,-4.6684,-4.6786,-4.6346,-4.4587,-4.3403,-4.188,-3.9276,-3.7821,-3.6671,-3.552,-3.6502,-3.8261,-4.0629,-4.3504,-4.6447,-4.9325,-5.0777,-5.1555,-5.1589,-5.1995,-5.1961,-5.1048,-5.2097,-5.2672,-5.2266,-5.2604,-5.3179,-5.3923,-5.3687,-5.3653,-5.3957,-5.3687,-5.3518,-5.3518,-5.3518,-5.3518,-5.3518,-5.3518,-5.3518,-5.3518,-5.3518,-5.3518,-5.3518,-5.3518,-5.3518,-5.3518,-5.3518,-5.3518,-5.3518,-5.3518,-5.3518,-5.3518,-5.3518,-5.2976,-5.2367,0.0,0.0,0.0,0.0,0.0,0.0,0.0,0.0,0.0,0.0,0.0,0.0,0.0,0.0,0.0,0.0,0.0,0.0,0.0,0.0,-2.6691,-2.6691,-2.6691,-2.6691,-2.6691,-2.6691,-2.6996,-2.7655,-2.8349,-2.9348,-3.0615,-3.1278,-3.1921,-3.251,-3.251,-3.251,-3.2476,-3.1853,-3.0838,-2.96,-2.8942,-2.7893,-2.6691,0.0,-2.6691,-2.6691,-2.6691,-2.7604,-2.9111,-3.0784,-3.1921,-3.2869,-3.4438,-3.5994,-3.7642,-3.9783,-4.1068,-4.2252,-4.4344,-4.594,-4.7022,-4.6853,-4.665,-4.5703,-4.2692,-4.0798,-3.8811,-3.5904,-3.4709,-3.3964,-3.3254,-3.4404,-3.6005,-3.7753,-4.0527,-4.3775,-4.7665,-4.8849,-5.0338,-5.3179,-5.2875,-5.2739,-5.345,-5.3518,-5.3518,-5.3518,-5.3585,-5.389,-5.4431,-5.3856,-5.3788,-5.4431,-5.3822,-5.3518,-5.3518,-5.3518,-5.3518,-5.3518,-5.3518,-5.3518,-5.3518,-5.3518,-5.3518,-5.3518,-5.3518,-5.3518,-5.3518,-5.3518,-5.3518,-5.3518,-5.3518,-5.3518,-5.3518,-5.3518,-5.3078,-5.2469,0.0,0.0,0.0,0.0,0.0,0.0,0.0,0.0,0.0,0.0,-2.4154,-2.3951,0.0,0.0,0.0,0.0,0.0,0.0,0.0,0.0,0.0,-2.6691,-2.6691,-2.6691,-2.6691,-2.6691,-2.6759,-2.6894,-2.7029,-2.725,-2.7469,-2.7622,-2.774,-2.7841,-2.7841,-2.7841,-2.7841,-2.7706,-2.7503,-2.7266,-2.7131,-2.6945,-2.6691,-2.6691,0.0,0.0,-2.6691,-2.7266,-2.8432,-3.1157,-3.3004,-3.4472,-3.6637,-3.8328,-3.9842,-4.1441,-4.3335,-4.5128,-4.6143,-4.7496,-4.8342,-4.709,-4.5872,-4.4209,-4.117,-3.887,-3.6671,-3.4269,-3.3186,-3.2462,-3.1698,-3.3288,-3.5588,-3.8362,-4.1271,-4.4756,-4.9086,-5.0371,-5.1488,-5.3281,-5.3382,-5.3348,-5.3484,-5.3518,-5.3518,-5.3518,-5.4059,-5.4194,-5.3721,-5.3585,-5.3551,-5.3687,-5.3585,-5.3518,-5.3518,-5.3518,-5.3518,-5.3518,-5.3518,-5.3518,-5.3518,-5.3518,-5.3518,-5.3518,-5.3518,-5.3518,-5.3518,-5.3518,-5.3518,-5.3518,-5.3518,-5.3518,-5.3518,-5.3518,-5.3416,-5.3281,0.0,0.0,0.0,0.0,0.0,0.0,0.0,-2.4255,-2.4815,-2.7063,-2.7097,-2.6691,-2.6218,-2.5135,0.0,0.0,0.0,0.0,0.0,0.0,0.0,0.0,-2.6116,-2.6319,-2.6691,-2.6691,-2.6691,-2.6691,0.0,-2.6691,-2.6691,-2.6691,-2.6691,-2.6691,-2.6691,-2.6691,-2.6691,-2.6691,-2.6691,-2.6691,-2.6691,-2.6691,-2.6691,0.0,0.0,0.0,-2.6691,-2.7165,-2.8128,-3.0412,-3.2158,-3.402,-3.7821,-3.9783,-4.0967,-4.2455,-4.3944,-4.5365,-4.6481,-4.7597,-4.8071,-4.6616,-4.479,-4.2523,-3.914,-3.6355,-3.3918,-3.207,-3.1393,-3.1055,-3.0683,-3.2442,-3.4641,-3.6874,-3.9106,-4.2252,-4.7124,-4.8443,-4.9898,-5.257,-5.3247,-5.3518,-5.3518,-5.3518,-5.3518,-5.3518,-5.3822,-5.4194,-5.4634,-5.4668,-5.4296,-5.3518,-5.3518,-5.3518,-5.3518,-5.3518,-5.3518,-5.3518,-5.3518,-5.3518,-5.3518,-5.3518,-5.3518,-5.3518,-5.3518,-5.3518,-5.3518,-5.3518,-5.3518,-5.3518,-5.3518,-5.3518,-5.3518,-5.3518,-5.3247,-5.2875,0.0,0.0,0.0,0.0,0.0,0.0,0.0,-2.6116,-2.6826,-2.9585,-3.004,-2.9431,-2.7604,-2.5575,-2.4391,0.0,0.0,0.0,0.0,0.0,0.0,0.0,0.0,0.0,-2.6454,0.0,0.0,-2.6691,-2.6691,0.0,0.0,0.0,0.0,0.0,-2.6691,-2.6691,-2.6691,-2.6691,-2.6691,0.0,0.0,-2.6691,-2.6691,0.0,0.0,0.0,0.0,-2.7063,-2.7824,-2.9533,-3.0852,-3.2632,-3.7235,-3.9614,-4.0933,-4.1922,-4.347,-4.506,-4.6244,-4.7327,-4.7736,-4.6109,-4.3876,-4.1068,-3.7381,-3.4223,-3.165,-3.0176,-3.0006,-3.0108,-3.0108,-3.1799,-3.3694,-3.5329,-3.6884,-3.9681,-4.4756,-4.638,-4.8274,-5.1657,-5.2909,-5.3518,-5.3518,-5.3518,-5.3518,-5.3518,-5.3653,-5.416,-5.5209,-5.5243,-5.4702,-5.3551,-5.3518,-5.3518,-5.3518,-5.3518,-5.3518,-5.3518,-5.3518,-5.3518,-5.3518,-5.3518,-5.3518,-5.3518,-5.3518,-5.3518,-5.3518,-5.3518,-5.3518,-5.3518,-5.3518,-5.3518,-5.3518,-5.3518,-5.3112,-5.257,0.0,0.0,0.0,0.0,0.0,0.0,0.0,-2.6218,-2.8146,-3.2442,-3.1326,-3.004,-2.9803,-2.8365,-2.6607,0.0,0.0,0.0,0.0,0.0,0.0,0.0,0.0,0.0,0.0,0.0,0.0,-2.6691,-2.6691,0.0,0.0,0.0,0.0,0.0,0.0,-2.6691,-2.6691,-2.6691,0.0,0.0,0.0,0.0,0.0,0.0,0.0,0.0,0.0,-2.6725,-2.7131,-2.9364,-3.0209,-3.0751,-3.322,-3.64,-3.9106,-3.8565,-4.1813,-4.5635,-4.5771,-4.7327,-4.8376,-4.6244,-4.347,-4.0324,-3.6546,-3.3423,-3.0886,-2.9416,-2.9634,-3.0108,-3.0108,-3.136,-3.3085,-3.5228,-3.6884,-3.9478,-4.4073,-4.6481,-4.8649,-5.1048,-5.2604,-5.3518,-5.3518,-5.3518,-5.3518,-5.3518,-5.4126,-5.4262,-5.3721,-5.3721,-5.3653,-5.3518,-5.3518,-5.3518,-5.3518,-5.3518,-5.3518,-5.3518,-5.3518,-5.3518,-5.3518,-5.3518,-5.3518,-5.3518,-5.3518,-5.3518,-5.3518,-5.3518,-5.3518,-5.3518,-5.3518,-5.3518,-5.3518,-5.3518,-5.345,-5.3382,0.0,0.0,0.0,0.0,0.0,0.0,-2.6438,-2.6793,-2.845,-3.3423,-3.3672,-3.3064,-3.2205,-3.0751,-2.8044,-2.3579,0.0,0.0,0.0,0.0,0.0,0.0,0.0,0.0,0.0,0.0,-2.6251,-2.6691,-2.6691,0.0,0.0,0.0,0.0,0.0,0.0,-2.6691,-2.6691,-2.6691,0.0,0.0,0.0,0.0,0.0,0.0,0.0,0.0,0.0,0.0,-2.6826,-2.774,-2.8349,-2.8804,-2.9228,-3.163,-3.4776,-3.7212,-3.9986,-4.2726,-4.4519,-4.665,-4.7669,-4.4964,-4.2422,-3.9546,-3.5791,-3.2307,-2.9585,-2.8518,-2.85,-2.8838,-2.933,-3.0277,-3.1698,-3.3909,-3.4404,-3.6096,-4.062,-4.2354,-4.4688,-4.8717,-5.0541,-5.1995,-5.3382,-5.3518,-5.3518,-5.3518,-5.3788,-5.3822,-5.3518,-5.4363,-5.4431,-5.3551,-5.3923,-5.3957,-5.3518,-5.3518,-5.3518,-5.3518,-5.3518,-5.3518,-5.3518,-5.3518,-5.3518,-5.3518,-5.3518,-5.3518,-5.3518,-5.3518,-5.3518,-5.3518,-5.3518,-5.3518,-5.3518,-5.3518,-5.3518,-5.3518,0.0,0.0,0.0,0.0,0.0,-2.3395,-2.664,-2.7097,-2.8586,-3.2949,-3.3998,-3.3998,-3.3152,-3.0954,-2.7943,-2.3951,-2.2786,0.0,0.0,0.0,0.0,0.0,0.0,0.0,0.0,0.0,-2.5981,-2.6691,-2.6691,-2.6691,0.0,0.0,-2.6691,-2.6691,0.0,0.0,0.0,0.0,0.0,0.0,0.0,0.0,0.0,0.0,0.0,0.0,0.0,0.0,0.0,0.0,0.0,-2.7384,-2.686,-2.8146,-3.0615,-3.4472,-3.7584,-4.0248,-4.2381,-4.4891,-4.6244,-4.3443,-4.1102,-3.8488,-3.473,-3.1345,-2.8705,-2.7706,-2.7824,-2.8315,-2.8908,-2.977,-3.1089,-3.3085,-3.3152,-3.4392,-3.843,-4.0011,-4.2286,-4.6447,-4.824,-4.9999,-5.2266,-5.3112,-5.3518,-5.3518,-5.3518,-5.3518,-5.3518,-5.4702,-5.4803,-5.3551,-5.3991,-5.4025,-5.3518,-5.3518,-5.3518,-5.3518,-5.3518,-5.3518,-5.3518,-5.3518,-5.3518,-5.3518,-5.3518,-5.3518,-5.3518,-5.3518,-5.3518,-5.3518,-5.3518,-5.3518,-5.3518,-5.3518,-5.3518,-5.3518,0.0,0.0,0.0,0.0,0.0,0.0,-2.5288,-2.6843,-2.8601,-3.092,-3.1224,-3.1529,-3.2226,-2.8315,-2.5947,-2.659,-2.3985,0.0,0.0,0.0,0.0,0.0,0.0,0.0,0.0,0.0,-2.5981,-2.6691,-2.6691,-2.6691,-2.6691,-2.6691,-2.6691,-2.6691,0.0,0.0,0.0,0.0,0.0,0.0,0.0,0.0,0.0,0.0,0.0,0.0,0.0,0.0,0.0,0.0,0.0,0.0,0.0,-2.6725,-2.7199,-2.9499,-3.437,-3.9005,-3.9039,-4.1805,-4.4107,-4.1779,-3.958,-3.6941,-3.3173,-3.0601,-2.857,-2.7029,-2.7927,-2.8976,-2.901,-3.0194,-3.1664,-3.3152,-3.3998,-3.552,-3.8565,-4.0865,-4.2861,-4.4445,-4.5969,-4.7699,-4.9898,-5.2164,-5.3518,-5.3518,-5.3518,-5.3518,-5.3518,-5.4194,-5.4262,-5.3518,-5.3518,-5.3518,-5.3518,-5.3518,-5.3518,-5.3518,-5.3518,-5.3518,-5.3518,-5.3518,-5.3518,-5.3518,-5.3518,-5.3518,-5.3518,-5.3518,-5.3518,-5.3518,-5.3518,-5.3518,-5.3518,-5.3518,-5.3518,-5.3518,0.0,0.0,0.0,0.0,0.0,0.0,0.0,-2.4492,-2.5778,-2.85,-2.8872,-2.9567,-3.1326,-2.845,-2.6454,-2.6657,-2.4019,0.0,0.0,0.0,0.0,0.0,0.0,0.0,0.0,0.0,-2.5455,-2.6691,-2.7199,-2.7452,-2.7452,-2.7452,-2.7199,-2.6691,-2.6691,-2.6691,0.0,0.0,0.0,0.0,0.0,0.0,-2.6691,0.0,0.0,0.0,0.0,0.0,0.0,0.0,0.0,0.0,0.0,0.0,0.0,-2.7571,-3.0581,-3.3998,-3.552,-3.7574,-3.886,-3.7043,-3.5723,-3.4134,-3.1427,-2.9431,-2.7909,-2.6894,-2.7114,-2.7757,-2.8807,-2.9382,-3.0668,-3.366,-3.4336,-3.5385,-3.7889,-3.9715,-4.1948,-4.4993,-4.8917,-5.1657,-5.2367,-5.3078,-5.3518,-5.3518,-5.3518,-5.3518,-5.3518,-5.3721,-5.3754,-5.3518,-5.3991,-5.4025,-5.3518,-5.3518,-5.3518,-5.3518,-5.3518,-5.3518,-5.3518,-5.3518,-5.3518,-5.3518,-5.3518,-5.3518,-5.3518,-5.3518,-5.3518,-5.3518,-5.3518,-5.3518,-5.3518,-5.3518,-5.3518,-5.3518,0.0,0.0,0.0,0.0,0.0,0.0,0.0,-2.3207,-2.4052,-2.5897,-2.6133,-2.708,-2.9634,-2.6996,-2.5473,-2.659,-2.4019,0.0,0.0,0.0,0.0,0.0,0.0,0.0,-2.3797,-2.4271,-2.5523,-2.7588,-2.8315,-2.8669,-2.8669,-2.8939,-2.8383,-2.7131,-2.7131,-2.6962,0.0,0.0,0.0,0.0,0.0,0.0,-2.6691,0.0,0.0,0.0,0.0,0.0,0.0,0.0,0.0,0.0,0.0,0.0,0.0,0.0,-2.801,-2.9973,-3.2239,-3.4134,-3.5216,-3.3986,-3.3119,-3.207,-3.0142,-2.8703,-2.7587,-2.686,-2.6928,-2.7503,-2.8773,-2.9247,-3.0364,-3.3207,-3.3897,-3.4878,-3.7144,-3.9005,-4.1508,-4.5263,-4.956,-5.2232,-5.2232,-5.301,-5.3518,-5.3518,-5.3518,-5.3518,-5.3518,-5.3518,-5.3518,-5.3518,-5.3957,-5.3957,-5.3518,-5.3518,-5.3518,-5.3518,-5.3518,-5.3518,-5.3518,-5.3518,-5.3518,-5.3518,-5.3518,-5.3518,0.0,-5.3518,-5.3518,-5.3518,-5.3518,-5.3518,-5.3518,-5.3518,-5.3518,-5.3518,0.0,0.0,0.0,0.0,0.0,0.0,0.0,-2.2868,-2.3308,-2.3308,-2.3308,-2.4357,-2.7114,-2.4342,-2.3395,-2.615,0.0,0.0,0.0,0.0,0.0,0.0,0.0,0.0,-2.4305,-2.444,-2.5929,-2.884,-2.9668,-3.0142,-3.0209,-3.092,-3.0074,-2.7891,-2.7891,-2.7418,-2.6691,-2.6691,-2.6691,-2.6691,-2.6691,-2.6691,0.0,0.0,0.0,0.0,0.0,0.0,0.0,0.0,0.0,0.0,0.0,0.0,0.0,0.0,0.0,0.0,0.0,-3.136,-3.2747,-3.209,-3.1379,-3.0514,-2.9145,-2.8247,0.0,-2.6826,-2.73,-2.806,-2.901,-2.9668,-3.0649,-3.2293,-3.3119,-3.4336,-3.6558,-3.9029,-4.1907,-4.55,-4.8545,-5.0304,-5.0236,-5.2232,-5.3518,-5.3518,-5.3518,-5.3518,-5.3518,-5.3518,-5.3518,-5.3518,-5.3518,-5.3518,-5.3518,-5.3518,-5.3518,-5.3518,-5.3518,-5.3518,-5.3518,-5.3518,-5.3518,-5.3518,-5.3518,-5.3518,-5.3518,-5.3518,-5.3518,-5.3518,-5.3518,-5.3518,-5.3518,-5.3518,-5.3518,-5.3518,0.0,0.0,0.0,0.0,0.0,0.0,0.0,0.0,0.0,0.0,-2.2564,-2.282,-2.353,-2.282,-2.2584,0.0,0.0,0.0,0.0,0.0,0.0,0.0,0.0,0.0,-2.2801,-2.3932,-2.5388,-2.7232,-2.9161,-3.0412,-3.0954,-3.1718,-3.0871,-2.8739,-2.8739,-2.7977,-2.6691,-2.6691,-2.6691,-2.6691,-2.6691,-2.6691,0.0,0.0,0.0,0.0,-2.659,-2.6521,0.0,0.0,0.0,0.0,0.0,0.0,0.0,0.0,-2.6691,-2.6826,-2.7334,0.0,-2.8213,-2.8062,-2.7893,-2.7672,0.0,-2.7097,-2.6894,-2.6725,-2.73,-2.8398,-3.0311,-3.0345,-3.1157,-3.4303,-3.4957,-3.5667,-3.7415,-4.2016,-4.5974,-4.8003,-5.0879,-5.2469,-5.1826,-5.2807,-5.3518,-5.3518,-5.3518,-5.3518,-5.3518,-5.3518,-5.3518,-5.3518,-5.3518,-5.3518,-5.3518,-5.3518,-5.3518,-5.3518,-5.3518,-5.3518,-5.3518,-5.3518,-5.3518,-5.3518,-5.3518,-5.3518,-5.3518,-5.3518,-5.3518,-5.3518,-5.3518,-5.3518,-5.3518,-5.3518,-5.3518,-5.3518,0.0,0.0,0.0,0.0,0.0,0.0,0.0,0.0,0.0,0.0,0.0,0.0,0.0,0.0,0.0,0.0,0.0,0.0,0.0,0.0,0.0,0.0,0.0,-2.2632,-2.3274,-2.4101,-2.5726,-2.8247,-2.9837,-3.1157,-3.2205,-3.2611,-3.1596,-2.9465,-2.8434,-2.7486,-2.6691,-2.6691,-2.6691,-2.6691,-2.6691,0.0,0.0,0.0,0.0,0.0,-2.628,-2.628,0.0,-2.6573,-2.6691,-2.6691,0.0,0.0,0.0,0.0,-2.6691,-2.6691,-2.6691,-2.6962,-2.7199,-2.7199,-2.7199,-2.7199,-2.7199,-2.6928,-2.6691,-2.6691,-2.73,-2.8297,-2.9924,-3.0142,-3.1089,-3.4078,-3.4856,-3.6231,-3.9478,-4.3301,-4.6684,-4.9221,-5.1251,-5.257,-5.2841,-5.3247,-5.3518,-5.3518,-5.3518,-5.3518,-5.3518,-5.3518,-5.3518,-5.3518,-5.3518,-5.3518,-5.3518,-5.3518,-5.3518,-5.3518,-5.3518,-5.3518,-5.3484,-5.3112,-5.2942,-5.2942,-5.2942,-5.2942,-5.2976,-5.3348,-5.3518,-5.3518,-5.3518,-5.3518,-5.3518,-5.3518,-5.3518,-5.3518,0.0,0.0,0.0,0.0,0.0,0.0,0.0,0.0,0.0,0.0,0.0,0.0,0.0,0.0,0.0,0.0,0.0,0.0,0.0,0.0,0.0,0.0,-2.2448,-2.3105,-2.4474,-2.4609,-2.6403,-2.9939,-3.0886,-3.2104,-3.3558,-3.3829,-3.2611,-3.0176,-2.801,-2.6911,-2.6691,-2.6691,-2.6691,-2.6691,-2.6641,0.0,0.0,0.0,0.0,0.0,0.0,0.0,0.0,-2.6454,-2.6657,-2.6691,-2.6691,0.0,0.0,0.0,0.0,0.0,-2.6826,-2.7402,-2.7925,-2.7689,-2.7722,-2.779,-2.779,-2.7334,-2.6894,-2.7029,-2.7638,-2.8432,-2.9348,-3.0108,-3.1326,-3.3558,-3.481,-3.7313,-4.2422,-4.4378,-4.6481,-4.9864,-5.1048,-5.2029,-5.3213,-5.345,-5.3518,-5.3518,-5.3382,-5.3382,-5.3484,-5.3382,-5.3315,-5.3315,-5.3315,-5.3281,-5.3145,-5.3382,-5.345,-5.3315,-5.3315,-5.3315,-5.3281,-5.2503,-5.2131,-5.2131,-5.2266,-5.23,-5.2367,-5.3179,-5.3518,-5.3518,-5.3518,-5.3518,-5.3518,-5.3518,-5.3518,-5.3518,0.0,0.0,0.0,0.0,0.0,0.0,0.0,0.0,0.0,0.0,0.0,0.0,0.0,0.0,0.0,0.0,0.0,0.0,0.0,0.0,0.0,-2.3207,-2.3241,-2.3613,-2.4474,-2.5101,-2.6657,-2.9179,-3.1176,-3.2903,-3.4336,-3.5678,-3.4404,-3.0954,-2.9348,-2.7927,-2.6691,-2.6691,-2.6691,-2.6674,-2.6315,0.0,0.0,0.0,0.0,0.0,0.0,0.0,0.0,-2.6068,-2.6402,-2.6691,-2.6691,0.0,0.0,0.0,0.0,0.0,-2.7452,-2.8213,-2.8502,-2.7199,-2.735,-2.779,-2.779,-2.7722,-2.7824,-2.8502,-2.9228,-3.0176,-3.1549,-3.2408,-3.366,-3.5915,-3.8464,-4.1779,-4.6384,-4.78,-4.9018,-5.0845,-5.23,-5.2976,-5.2536,-5.3112,-5.3518,-5.3518,-5.2875,-5.2773,-5.345,-5.2841,-5.2469,-5.2469,-5.2469,-5.2198,-5.1589,-5.2841,-5.3179,-5.2469,-5.2469,-5.2469,-5.2469,-5.1725,-5.1386,-5.142,-5.2029,-5.23,-5.2367,-5.3179,-5.3518,-5.3518,-5.3518,-5.3518,-5.3518,-5.3518,-5.3518,-5.3518,0.0,0.0,0.0,0.0,0.0,0.0,0.0,0.0,0.0,0.0,0.0,0.0,0.0,0.0,0.0,0.0,0.0,0.0,0.0,0.0,-2.341,-2.4526,-2.4966,-2.5354,-2.5692,-2.6826,-2.8536,-3.077,-3.2598,-3.4257,-3.5712,-3.4798,-3.3038,-3.0514,-2.8586,-2.7368,-2.6691,-2.6487,-2.6367,-2.6333,0.0,0.0,0.0,0.0,0.0,0.0,0.0,0.0,0.0,0.0,-2.6367,-2.6691,-2.6691,0.0,0.0,0.0,0.0,0.0,-2.7097,-2.7774,-2.818,-2.7452,-2.818,-2.8939,-2.8552,-2.845,-2.8653,-2.9431,-3.0176,-3.1021,-3.209,-3.3241,-3.5013,-3.8082,-4.1407,-4.4485,-4.6955,-4.7936,-4.912,-5.098,-5.1826,-5.2435,-5.2909,-5.3281,-5.3518,-5.3518,-5.3179,-5.3112,-5.3484,-5.3145,-5.2739,-5.23,-5.23,-5.1758,-5.0608,-5.2097,-5.2469,-5.1725,-5.2131,-5.2097,-5.1691,-5.0947,-5.0608,-5.0608,-5.0947,-5.1352,-5.1725,-5.2097,-5.2503,-5.2841,-5.2841,-5.2841,-5.2909,-5.3348,-5.3518,-5.3518,0.0,0.0,0.0,0.0,0.0,0.0,0.0,0.0,0.0,0.0,0.0,0.0,0.0,0.0,0.0,0.0,0.0,0.0,0.0,0.0,-2.3985,-2.5304,-2.6253,-2.7145,-2.7977,-2.901,-3.0668,-3.3051,-3.4392,-3.5644,-3.6761,-3.4053,-3.1793,-2.9873,-2.7954,-2.6858,-2.6385,-2.6104,-2.5979,-2.591,0.0,0.0,0.0,0.0,0.0,0.0,0.0,0.0,0.0,0.0,0.0,0.0,0.0,0.0,0.0,-2.664,-2.6505,-2.6404,-2.6843,-2.735,-2.779,-2.779,-2.8838,-2.9837,-2.9788,-2.9754,-3.0093,-3.1157,-3.1833,-3.2341,-3.2733,-3.4324,-3.6772,-4.0553,-4.3978,-4.6549,-4.7428,-4.8206,-4.9359,-5.1251,-5.1488,-5.1928,-5.3112,-5.3382,-5.3416,-5.3247,-5.3213,-5.3213,-5.3213,-5.3078,-5.2604,-5.1792,-5.1792,-5.115,-4.9864,-5.1116,-5.1589,-5.1217,-5.1961,-5.1995,-5.1454,-5.0507,-5.0101,-5.0101,-5.0101,-5.0405,-5.098,-5.115,-5.1555,-5.2063,-5.2063,-5.2164,-5.2367,-5.2976,-5.3315,-5.3416,0.0,0.0,0.0,0.0,0.0,0.0,0.0,0.0,0.0,0.0,0.0,0.0,0.0,0.0,0.0,0.0,0.0,0.0,0.0,0.0,-2.3763,-2.4541,-2.611,-2.8524,-3.1853,-3.1345,-3.2476,-3.5363,-3.6197,-3.6694,-3.6761,-3.5103,-3.2648,-2.9516,-2.8652,-2.7283,-2.558,-2.5575,-2.5524,-2.5486,-2.5118,0.0,0.0,0.0,0.0,0.0,0.0,0.0,0.0,0.0,0.0,0.0,0.0,0.0,-2.5413,-2.6421,-2.6,-2.5597,-2.7281,-2.7756,-2.779,-2.779,-2.845,-2.9585,-3.1616,-3.2056,-3.2666,-3.4754,-3.5228,-3.5092,-3.4438,-3.6705,-3.9884,-4.3667,-4.6244,-4.824,-4.9661,-5.0507,-5.1285,-5.2131,-5.2232,-5.2266,-5.2367,-5.3078,-5.3179,-5.2435,-5.2401,-5.2401,-5.2401,-5.1758,-5.1048,-5.027,-5.0236,-4.9864,-4.9086,-4.9864,-5.0574,-5.1217,-5.1961,-5.2266,-5.2164,-5.0744,-5.0101,-5.0101,-5.0101,-5.0135,-5.0236,-5.0913,-5.1219,-5.1285,-5.1285,-5.1725,-5.23,-5.2367,-5.2741,-5.3213,0.0,0.0,0.0,0.0,0.0,0.0,0.0,0.0,0.0,0.0,0.0,0.0,0.0,0.0,0.0,0.0,0.0,0.0,0.0,-2.3621,-2.4827,-2.5845,-2.6429,-2.8477,-3.2205,-3.3057,-3.4633,-3.7019,-3.7347,-3.7104,-3.6305,-3.3416,-3.1012,-2.9005,-2.7316,-2.6175,-2.5468,-2.5253,-2.5137,-2.5098,-2.4695,-2.4533,0.0,0.0,0.0,0.0,0.0,0.0,0.0,0.0,-2.442,-2.5063,-2.5343,-2.4961,-2.4614,-2.5634,-2.5539,-2.5294,-2.6147,-2.6851,-2.7481,-2.8037,-2.9073,-3.0235,-3.1354,-3.2699,-3.4167,-3.596,-3.7077,-3.7618,-3.7347,-3.9343,-4.1677,-4.3538,-4.6515,-4.8951,-4.9965,-5.0744,-5.1286,-5.1589,-5.2029,-5.23,-5.23,-5.3044,-5.2976,-5.1725,-5.1623,-5.1217,-5.0304,-4.9999,-4.9492,-4.8781,-4.8748,-4.8376,-4.7631,-4.8376,-4.8883,-4.9156,-4.9898,-5.0033,-4.956,-4.8984,-4.9221,-5.0067,-4.9627,-4.9932,-5.0744,-5.0101,-5.0101,-5.0507,-5.0507,-5.1251,-5.23,-5.23,-5.2774,-5.3382,0.0,0.0,0.0,0.0,0.0,0.0,0.0,0.0,0.0,0.0,0.0,0.0,0.0,0.0,0.0,0.0,0.0,0.0,-2.2526,-2.4032,-2.5362,-2.6135,-2.6751,-2.851,-3.1529,-3.3484,-3.5352,-3.7155,-3.7037,-3.6114,-3.4424,-3.1429,-2.9508,-2.8479,-2.6281,-2.5509,-2.5735,-2.5012,-2.4704,-2.4695,-2.441,-2.4317,0.0,0.0,0.0,0.0,0.0,0.0,0.0,0.0,-2.3414,-2.3885,-2.4226,-2.3881,-2.3571,-2.4679,-2.4714,-2.4538,-2.5169,-2.6034,-2.6958,-2.7627,-2.9258,-3.0944,-3.1825,-3.3878,-3.6129,-3.8149,-3.8996,-3.9503,-3.9952,-4.0899,-4.2083,-4.3538,-4.6515,-4.8917,-4.9627,-5.0405,-5.0845,-5.0845,-5.1285,-5.1623,-5.1623,-5.2097,-5.1894,-5.0608,-5.0507,-4.9965,-4.8714,-4.8646,-4.8308,-4.7597,-4.7564,-4.7327,-4.6786,-4.7293,-4.7462,-4.7225,-4.7733,-4.8071,-4.8274,-4.8274,-4.8951,-5.0067,-4.956,-4.9932,-5.0777,-4.9763,-4.9492,-4.9729,-4.9729,-5.0507,-5.1623,-5.186,-5.2469,-5.3145,0.0,0.0,0.0,0.0,0.0,0.0,0.0,0.0,0.0,0.0,0.0,0.0,0.0,0.0,0.0,0.0,0.0,0.0,-2.2861,-2.4199,-2.501,-2.501,-2.7038,-2.8752,-3.0021,-3.2395,-3.4284,-3.56,-3.5121,-3.3551,-3.0933,-2.9491,-2.8533,-2.7981,-2.5851,-2.5457,-2.631,-2.4902,-2.4317,-2.4317,-2.4317,-2.4317,-2.4225,0.0,0.0,0.0,0.0,0.0,0.0,0.0,-2.2817,-2.3416,-2.3014,-2.2413,-2.2173,-2.3605,-2.3482,-2.3241,-2.4622,-2.5539,-2.6162,-2.6432,-2.8887,-3.1678,-3.3428,-3.5941,-3.8768,-4.1711,-4.1162,-4.0587,-4.2016,-4.1136,-4.1136,-4.4107,-4.6447,-4.8142,-4.8917,-4.9627,-5.0067,-5.0067,-5.0067,-5.0067,-5.0067,-5.0067,-4.9763,-4.9052,-4.8984,-4.8646,-4.7906,-4.7872,-4.753,-4.6786,-4.6786,-4.6786,-4.6786,-4.6786,-4.6413,-4.5703,-4.5703,-4.6853,-4.8984,-4.8984,-4.9357,-5.0067,-5.0067,-5.0067,-5.0067,-5.0067,-4.9661,-4.9018,-4.9018,-4.9458,-5.0168,-5.0913,-5.1657,-5.2368,0.0,0.0,0.0,0.0,0.0,0.0,0.0,0.0,0.0,0.0,0.0,0.0,0.0,0.0,0.0,0.0,0.0,0.0,-2.3604,-2.4961,-2.5678,-2.5429,-2.5994,-2.6625,-2.7281,-2.8774,-3.1407,-3.5178,-3.3627,-3.182,-2.9794,-2.8786,-2.7778,-2.682,-2.6178,-2.5781,-2.558,-2.4687,-2.4317,-2.4317,-2.4317,-2.4317,-2.4225,0.0,0.0,0.0,0.0,0.0,0.0,0.0,0.0,0.0,-2.2016,-2.1995,-2.2111,-2.3537,-2.3765,-2.3795,-2.4684,-2.5426,-2.6238,-2.7349,-2.9432,-3.2034,-3.5349,-3.7449,-3.9648,-4.3193,-4.3565,-4.3227,-4.3098,-4.3166,-4.3538,-4.4445,-4.6007,-4.7564,-4.8815,-4.9187,-4.9323,-4.9323,-4.9323,-4.9323,-4.9323,-4.9323,-4.8815,-4.753,-4.7462,-4.6887,-4.5635,-4.5568,-4.5466,-4.5258,-4.5258,-4.5258,-4.5258,-4.5258,-4.5128,-4.4925,-4.4925,-4.5534,-4.6684,-4.6684,-4.7361,-4.8578,-4.912,-4.9323,-4.9323,-4.9323,-4.9187,-4.9018,-4.9018,-4.9458,-5.0135,-5.0338,-5.1217,-5.2266,0.0,0.0,0.0,0.0,0.0,0.0,0.0,0.0,0.0,0.0,-2.334,-2.3736,0.0,0.0,0.0,0.0,0.0,0.0,0.0,-2.5424,-2.6011,-2.5816,-2.5766,-2.6059,-2.6761,-2.7235,-2.8951,-3.1899,-3.095,-2.9544,-2.7709,-2.7798,-2.7572,-2.7126,-2.7126,-2.6911,-2.6472,-2.5496,-2.4789,-2.4317,-2.4317,-2.4317,-2.4194,0.0,0.0,0.0,0.0,0.0,0.0,0.0,0.0,0.0,-2.1078,-2.1203,-2.1457,-2.2686,-2.3167,-2.345,-2.4225,-2.5178,-2.6272,-2.7839,-3.0046,-3.2955,-3.7032,-3.9647,-4.1883,-4.4156,-4.4347,-4.4165,-4.4279,-4.3979,-4.3978,-4.4891,-4.6007,-4.7192,-4.8409,-4.8815,-4.8883,-4.8612,-4.8815,-4.8781,-4.8173,-4.8139,-4.7631,-4.6447,-4.6075,-4.5563,-4.4649,-4.4615,-4.4615,-4.4615,-4.4615,-4.4615,-4.4615,-4.4615,-4.4615,-4.4615,-4.4615,-4.4852,-4.5263,-4.5568,-4.6346,-4.7496,-4.824,-4.8578,-4.8578,-4.8578,-4.8578,-4.8612,-4.8883,-4.9255,-4.9695,-4.9965,-5.0845,-5.1826,0.0,0.0,-2.2381,-2.2381,0.0,0.0,0.0,0.0,0.0,0.0,-2.4609,-2.4503,0.0,0.0,0.0,0.0,0.0,0.0,0.0,0.0,-2.6104,-2.6104,-2.6033,-2.6494,-2.7522,-2.702,-2.6788,-2.6936,-2.7654,-2.7045,-2.5219,-2.6718,-2.7734,-2.8319,-2.8319,-2.8319,-2.8227,-2.6726,-2.5404,-2.4317,-2.4317,-2.4256,-2.4071,-2.2778,0.0,0.0,0.0,0.0,0.0,0.0,0.0,0.0,-2.032,-2.035,-2.0605,-2.159,-2.2118,-2.2628,-2.3626,-2.4898,-2.6334,-2.8076,-3.0914,-3.4362,-3.8241,-4.1824,-4.4365,-4.4463,-4.4026,-4.4034,-4.5377,-4.3901,-4.3185,-4.5279,-4.6157,-4.6866,-4.7609,-4.8284,-4.8483,-4.7872,-4.8281,-4.8112,-4.6819,-4.6616,-4.6312,-4.5635,-4.4891,-4.4513,-4.4615,-4.4547,-4.4513,-4.4615,-4.4547,-4.4547,-4.4615,-4.4547,-4.4547,-4.4615,-4.4615,-4.4615,-4.4615,-4.5297,-4.6041,-4.6819,-4.7462,-4.777,-4.7872,-4.7804,-4.7838,-4.7973,-4.8646,-4.8951,-4.9086,-4.9729,-5.0473,-5.1116,0.0,0.0,-2.3173,-2.3173,0.0,0.0,0.0,0.0,0.0,0.0,0.0,0.0,0.0,0.0,0.0,0.0,0.0,0.0,0.0,0.0,-2.6104,-2.6104,-2.5486,-2.5265,-2.5524,-2.5092,-2.4895,-2.4937,-2.6125,-2.5966,-2.4564,-2.6503,-2.7488,-2.7611,-2.7611,-2.7611,-2.7488,-2.5549,-2.4543,-2.4317,-2.4317,-2.3979,-2.3425,-2.2594,-2.1966,0.0,0.0,0.0,0.0,0.0,0.0,0.0,-2.032,-2.0641,-2.1286,-2.2335,-2.2873,-2.3308,-2.4387,-2.5436,-2.6686,-2.8688,-3.2855,-3.6743,-3.7654,-4.0124,-4.2304,-4.2875,-4.4185,-4.5202,-4.4951,-4.4511,-4.4334,-4.4833,-4.5033,-4.543,-4.6129,-4.6362,-4.6614,-4.6997,-4.62,-4.5711,-4.5916,-4.5399,-4.5021,-4.4852,-4.4113,-4.3944,-4.4581,-4.4012,-4.3944,-4.4581,-4.3978,-4.3944,-4.4615,-4.3978,-4.3978,-4.4615,-4.4615,-4.4615,-4.4615,-4.4784,-4.5534,-4.6786,-4.6346,-4.6853,-4.7838,-4.7293,-4.7394,-4.7906,-4.8075,-4.8511,-4.9018,-4.9187,-4.9695,-5.0236,0.0,0.0,0.0,0.0,0.0,0.0,0.0,0.0,0.0,0.0,0.0,0.0,0.0,0.0,0.0,0.0,0.0,0.0,0.0,0.0,-2.5742,-2.5524,-2.5137,-2.4803,-2.4634,-2.439,-2.4317,-2.4317,-2.5004,-2.4973,-2.4348,-2.6072,-2.6903,-2.6934,-2.758,-2.7519,-2.6842,-2.5764,-2.4933,-2.4287,-2.3948,-2.3794,-2.364,-2.2317,-2.1812,-2.1658,-2.0659,0.0,0.0,0.0,0.0,0.0,0.0,0.0,-2.1064,-2.2274,-2.2723,-2.3083,-2.4293,-2.5474,-2.7088,-3.0074,-3.3929,-3.7093,-3.7433,-3.856,-3.9786,-4.0451,-4.2524,-4.4197,-4.4204,-4.3907,-4.3766,-4.4158,-4.4224,-4.4479,-4.5185,-4.5032,-4.5055,-4.5684,-4.4537,-4.3962,-4.4536,-4.4298,-4.4102,-4.4018,-4.3639,-4.3436,-4.3498,-4.3436,-4.3578,-4.4012,-4.3978,-4.3978,-4.4012,-4.3978,-4.3978,-4.4045,-4.4445,-4.4615,-4.4615,-4.4615,-4.5021,-4.5703,-4.5331,-4.5602,-4.6312,-4.6278,-4.6515,-4.6921,-4.7601,-4.8108,-4.8545,-4.8883,-4.9458,-4.9965,0.0,0.0,0.0,0.0,0.0,0.0,0.0,0.0,0.0,0.0,0.0,0.0,0.0,0.0,0.0,0.0,0.0,0.0,0.0,0.0,0.0,-2.4803,-2.4784,-2.4655,-2.4317,-2.4317,-2.4317,-2.4317,-2.4317,-2.4317,-2.4348,-2.5558,-2.6204,-2.6411,-2.7426,-2.7303,-2.638,-2.6134,-2.5302,-2.4071,-2.3517,-2.3548,-2.3763,-2.1997,-2.1658,-2.1966,-2.0734,-2.032,-2.032,-2.032,0.0,0.0,0.0,0.0,-2.069,-2.1812,-2.2305,-2.2717,-2.3825,-2.5395,-2.7642,-3.1459,-3.4291,-3.6353,-3.7153,-3.743,-3.7677,-3.8231,-4.0293,-4.2173,-4.2863,-4.2429,-4.2202,-4.2879,-4.2976,-4.3166,-4.3727,-4.3387,-4.3282,-4.382,-4.2867,-4.2395,-4.2992,-4.318,-4.3222,-4.3213,-4.3071,-4.2828,-4.232,-4.276,-4.3071,-4.3206,-4.3842,-4.3876,-4.3234,-4.3876,-4.391,-4.3409,-4.4097,-4.4412,-4.4412,-4.4412,-4.4468,-4.4615,-4.4615,-4.4615,-4.4649,-4.5263,-4.5602,-4.5838,-4.7192,-4.777,-4.7973,-4.8748,-4.939,-4.983,0.0,0.0,0.0,0.0,0.0,0.0,0.0,0.0,0.0,0.0,-2.6691,-2.6556,0.0,0.0,0.0,0.0,0.0,0.0,0.0,0.0,0.0,-2.439,-2.4369,-2.4328,-2.4317,-2.4317,-2.4317,-2.4317,-2.4317,-2.4317,-2.4317,-2.5066,-2.5742,-2.6296,-2.5896,-2.598,-2.6341,-2.5087,-2.4133,-2.3425,-2.3332,-2.2994,-2.2471,-2.1627,-2.135,-2.1319,-2.0549,-2.032,-2.032,-2.032,-2.032,0.0,0.0,0.0,-2.1196,-2.1381,-2.2274,-2.3209,-2.3394,-2.5733,-2.8812,-3.1674,-3.3611,-3.509,-3.6353,-3.7092,-3.7523,-3.7615,-3.8842,-3.9944,-4.004,-3.9976,-3.9944,-4.0039,-4.0039,-4.007,-4.0164,-4.0133,-4.0318,-4.0975,-4.0373,-4.0403,-4.1536,-4.1692,-4.1888,-4.2429,-4.1847,-4.1745,-4.2252,-4.1779,-4.1779,-4.2422,-4.2557,-4.2557,-4.2455,-4.2557,-4.2861,-4.3409,-4.3576,-4.3647,-4.3647,-4.3647,-4.4001,-4.4615,-4.4615,-4.4615,-4.4615,-4.4716,-4.5128,-4.5805,-4.6616,-4.7327,-4.7973,-4.8748,-4.9052,-4.912,0.0,0.0,0.0,0.0,0.0,0.0,0.0,0.0,0.0,0.0,0.0,-2.6641,0.0,0.0,0.0,0.0,0.0,0.0,0.0,0.0,0.0,-2.4317,-2.4317,-2.4317,-2.4317,-2.4317,-2.4317,-2.4317,-2.4317,-2.4317,-2.4317,-2.4594,-2.5096,-2.5711,-2.5035,-2.5149,-2.5733,-2.4718,-2.3917,-2.3271,-2.2871,-2.2778,-2.2748,-2.1689,-2.1781,-2.2286,-2.1227,-2.0857,-2.0795,-2.0443,-2.032,-2.032,-2.032,0.0,0.0,0.0,-2.172,-2.2428,-2.3548,-2.5826,-2.8319,-3.0228,-3.2013,-3.3704,-3.509,-3.5891,-3.6476,-3.6846,-3.7405,-3.806,-3.8808,-3.8964,-3.8964,-3.8964,-3.8964,-3.906,-3.9471,-3.8843,-3.8779,-3.9742,-3.8645,-3.846,-4.0119,-3.9979,-4.0181,-4.1103,-4.0591,-4.0304,-4.0562,-4.0655,-4.0694,-4.069,-4.1728,-4.195,-4.1191,-4.1916,-4.2496,-4.2841,-4.2897,-4.2953,-4.2953,-4.2953,-4.3106,-4.3469,-4.427,-4.4384,-4.4001,-4.444,-4.4818,-4.5162,-4.5906,-4.665,-4.7361,-4.8105,-4.8646,-4.9018,0.0,0.0,0.0,0.0,0.0,0.0,0.0,0.0,0.0,0.0,0.0,0.0,0.0,0.0,0.0,0.0,0.0,0.0,0.0,0.0,0.0,0.0,0.0,-2.4317,-2.4317,-2.4317,-2.4317,-2.4317,-2.4317,-2.4317,-2.4317,-2.4317,-2.4635,-2.5281,-2.4594,-2.4594,-2.5004,-2.4533,-2.3917,-2.3271,-2.2767,-2.284,-2.3179,-2.1997,-2.2274,-2.3148,-2.1966,-2.1565,-2.1473,-2.098,-2.0795,-2.0782,-2.061,-2.0672,0.0,0.0,0.0,-2.1689,-2.3548,-2.5302,-2.6995,-2.8504,-3.0289,-3.1982,-3.3396,-3.4382,-3.5091,-3.5614,-3.5984,-3.6538,-3.7554,-3.7892,-3.7984,-3.7984,-3.7984,-3.8178,-3.8686,-3.7872,-3.7592,-3.8533,-3.7371,-3.7125,-3.8736,-3.8474,-3.871,-3.9929,-3.9458,-3.9145,-3.9195,-3.9577,-3.9598,-3.9145,-4.0713,-4.1076,-4.0044,-4.1211,-4.1738,-4.1646,-4.1902,-4.2011,-4.2011,-4.214,-4.2141,-4.2078,-4.3439,-4.3768,-4.3287,-4.4001,-4.4293,-4.4422,-4.5341,-4.6143,-4.6887,-4.7631,-4.8376,-4.9018,0.0,0.0,0.0,0.0,0.0,0.0,0.0,0.0,0.0,0.0,0.0,0.0,-2.6691,-2.635,-2.6139,-2.6139,-2.5728,0.0,0.0,0.0,0.0,0.0,0.0,0.0,-2.4317,-2.4317,-2.4317,-2.4317,-2.4317,-2.4317,-2.4317,-2.4317,-2.4635,-2.5281,-2.4594,-2.4317,-2.4348,-2.4317,-2.3917,-2.3302,-2.3271,-2.3271,-2.3209,-2.2521,-2.2686,-2.3209,-2.2501,-2.2243,-2.2243,-2.2212,-2.2212,-2.2089,-2.1442,-2.1689,-2.1966,0.0,0.0,0.0,-2.2963,-2.3887,-2.4964,-2.6995,-2.8535,-2.992,-3.1243,-3.2567,-3.3521,-3.3552,-3.4599,-3.5553,-3.5645,-3.6168,-3.6599,-3.6599,-3.6599,-3.663,-3.6662,-3.66,-3.6569,-3.6631,-3.6569,-3.6754,-3.7419,-3.748,-3.7976,-3.9175,-3.8706,-3.8623,-3.9162,-3.8673,-3.8399,-3.8371,-3.9141,-3.9458,-3.9255,-4.0005,-4.0127,-3.9534,-4.0258,-4.061,-4.0641,-4.1242,-4.1225,-4.0681,-4.2013,-4.2583,-4.2614,-4.3257,-4.3588,-4.3713,-4.5134,-4.6143,-4.6887,-4.7631,-4.8376,-4.9018,0.0,0.0,0.0,0.0,0.0,0.0,0.0,0.0,0.0,0.0,0.0,0.0,0.0,-2.5783,-2.5801,-2.6086,-2.5709,0.0,0.0,0.0,0.0,0.0,0.0,0.0,-2.4317,-2.4317,-2.4317,-2.4317,-2.3887,-2.3887,-2.4287,-2.3856,-2.401,-2.4656,-2.441,-2.4533,-2.4912,-2.4481,-2.3917,-2.3302,-2.3302,-2.3302,-2.3271,-2.3025,-2.3363,-2.3856,-2.3179,-2.2932,-2.2871,-2.2459,-2.2305,-2.2163,-2.1504,-2.1473,-2.1473,-2.0566,-2.1073,-2.2058,-2.2551,-2.3456,-2.4594,-2.5764,-2.678,-2.795,-2.9704,-3.0843,-3.1859,-3.3152,-3.3798,-3.4291,-3.4782,-3.5737,-3.6507,-3.6507,-3.6507,-3.6507,-3.6507,-3.6507,-3.6507,-3.6507,-3.6507,-3.6569,-3.6816,-3.6846,-3.7148,-3.7969,-3.7474,-3.7385,-3.7998,-3.7825,-3.7533,-3.7178,-3.8136,-3.865,-3.8613,-3.8904,-3.8969,-3.8792,-3.95,-3.986,-3.986,-4.0544,-4.0715,-4.0539,-4.099,-4.1459,-4.1917,-4.2583,-4.2862,-4.2956,-4.3916,-4.505,-4.6152,-4.6388,-4.7536,-4.8923,0.0,0.0,0.0,0.0,0.0,-2.6521,-2.6521,-2.6521,-2.6385,-2.6139,0.0,0.0,0.0,0.0,-2.5881,-2.6012,-2.5458,-2.4922,-2.4533,-2.4369,0.0,0.0,0.0,0.0,-2.4317,-2.4317,-2.4194,-2.3979,-2.3517,-2.3425,-2.3609,-2.3179,-2.3209,-2.364,-2.364,-2.4133,-2.4943,-2.4502,-2.404,-2.364,-2.364,-2.364,-2.3671,-2.3887,-2.4102,-2.4287,-2.404,-2.3825,-2.3579,-2.3117,-2.2963,-2.284,-2.2163,-2.1658,-2.1257,-2.1042,-2.1442,-2.2058,-2.2501,-2.3302,-2.4194,-2.5066,-2.5672,-2.6441,-2.8042,-2.8935,-2.9833,-3.1397,-3.2074,-3.2598,-3.3334,-3.4566,-3.5522,-3.5799,-3.5829,-3.5829,-3.5829,-3.6014,-3.6076,-3.586,-3.623,-3.6415,-3.6168,-3.6353,-3.6754,-3.7358,-3.6846,-3.6754,-3.7358,-3.7208,-3.6906,-3.6507,-3.7474,-3.7911,-3.7709,-3.7949,-3.7961,-3.7778,-3.8487,-3.897,-3.9216,-3.9859,-4.029,-4.0505,-4.0505,-4.0749,-4.1225,-4.1885,-4.2173,-4.2237,-4.2892,-4.4118,-4.5432,-4.5369,-4.6579,-4.8194,0.0,-2.6691,-2.6691,-2.6691,-2.6367,-2.6122,-2.6122,-2.6122,-2.6122,-2.6104,0.0,0.0,0.0,0.0,0.0,-2.5977,-2.4968,-2.4503,-2.4875,-2.4513,0.0,0.0,0.0,0.0,-2.4317,-2.4317,-2.3979,-2.3302,-2.3271,-2.2932,-2.2305,-2.2274,-2.2274,-2.2305,-2.2305,-2.3025,-2.4256,-2.4256,-2.4256,-2.4287,-2.4287,-2.4287,-2.4379,-2.5004,-2.4872,-2.441,-2.5035,-2.485,-2.4317,-2.4317,-2.4317,-2.4194,-2.3517,-2.2397,-2.1473,-2.212,-2.1843,-2.1627,0.0,0.0,0.0,-2.4943,-2.5281,-2.5465,-2.6195,-2.6872,-2.7519,-2.8227,-2.9402,-3.054,-3.1213,-3.2413,-3.3552,-3.4258,-3.4443,-3.4505,-3.4505,-3.5059,-3.5244,-3.4597,-3.5675,-3.6168,-3.5522,-3.6076,-3.6723,-3.7265,-3.6784,-3.6723,-3.7326,-3.6784,-3.6507,-3.6507,-3.7058,-3.7088,-3.6538,-3.7058,-3.7058,-3.6507,-3.7184,-3.7831,-3.8508,-3.9216,-3.9859,-4.0474,-4.0474,-4.0505,-4.0543,-4.1225,-4.1459,-4.1558,-4.2205,-4.3363,-4.469,-4.469,-4.5597,-4.6828,-2.6556,-2.6691,-2.6691,-2.6691,-2.6607,-2.6539,-2.6539,-2.6539,-2.6315,0.0,0.0,0.0,-2.6121,-2.6824,-2.7214,-2.6788,-2.5968,-2.5373,-2.5216,-2.4626,-2.4317,-2.4317,-2.4317,-2.4317,-2.4317,-2.4317,-2.3979,-2.3302,-2.2809,-2.2471,-2.2305,-2.1812,-2.1843,-2.2305,-2.2305,-2.2521,-2.284,-2.284,-2.3117,-2.3579,-2.3579,-2.3856,-2.4317,-2.4502,-2.4471,-2.4317,-2.4533,-2.4471,-2.4317,-2.4317,-2.4317,-2.4194,-2.3517,-2.2717,-2.2058,-2.2243,-2.2501,-2.2809,-2.3209,0.0,0.0,0.0,0.0,0.0,-2.5456,-2.5764,-2.6226,-2.7426,-2.8381,-2.9181,-2.9827,-3.0658,-3.1305,-3.152,-3.3183,-3.4505,-3.4505,-3.4659,-3.472,-3.4536,-3.4844,-3.4998,-3.4813,-3.5398,-3.5643,-3.5327,-3.5612,-3.5859,-3.601,-3.6353,-3.6507,-3.6507,-3.6662,-3.6662,-3.6507,-3.6662,-3.6662,-3.6507,-3.7184,-3.7615,-3.7831,-3.9,-3.9582,-3.9797,-4.029,-4.0505,-4.0539,-4.0715,-4.0783,-4.0851,-4.1525,-4.2679,-4.3954,-4.3952,-4.5122,-4.6724,-2.6623,-2.6691,-2.6691,-2.6691,-2.6808,-2.6889,-2.6889,-2.7174,-2.7232,0.0,0.0,0.0,-2.7482,-2.7221,-2.7286,-2.7721,-2.6735,-2.5956,-2.5559,-2.5018,-2.4594,-2.4317,-2.4317,-2.4317,-2.4317,-2.4317,-2.3979,-2.3302,-2.2644,-2.2182,-2.1874,-2.1196,-2.1073,-2.1473,-2.1473,-2.1473,-2.1473,-2.175,-2.2409,-2.3302,-2.3302,-2.3702,-2.4379,-2.4964,-2.481,-2.4379,-2.4964,-2.4995,-2.4666,-2.4389,-2.4317,-2.4225,-2.3856,-2.3271,-2.2778,-2.3055,-2.3209,-2.3363,-2.364,-2.401,-2.4379,-2.4656,0.0,0.0,-2.5158,-2.5066,-2.5189,-2.6318,-2.6842,-2.7334,-2.8011,-2.8935,-2.9556,-2.9556,-3.1366,-3.2875,-3.318,-3.3457,-3.3642,-3.3642,-3.4135,-3.4382,-3.4044,-3.469,-3.4936,-3.4536,-3.4874,-3.5213,-3.5491,-3.5861,-3.6199,-3.6476,-3.6507,-3.6507,-3.6507,-3.6507,-3.6507,-3.6507,-3.6907,-3.7215,-3.7523,-3.8323,-3.9,-3.9521,-3.989,-4.0228,-4.0505,-4.0505,-4.032,-4.0173,-4.0829,-4.1813,-4.2848,-4.3091,-4.4315,-4.5841,0.0,-2.6691,-2.6691,-2.6691,-2.7021,-2.7253,-2.7253,-2.7954,-2.8439,0.0,-2.8747,-2.912,-2.947,-2.7784,-2.7208,-2.8619,-2.7381,-2.6404,-2.6084,-2.5588,-2.5035,-2.4441,-2.4348,-2.4317,-2.4317,-2.4317,-2.3979,-2.3302,-2.2686,-2.2058,-2.1411,-2.0795,-2.0487,-2.0412,-2.0412,-2.0381,-2.0333,-2.1011,-2.2028,-2.3209,-2.3271,-2.3702,-2.4441,-2.5764,-2.5487,-2.4594,-2.5918,-2.598,-2.5312,-2.4656,-2.441,-2.441,-2.4317,-2.3887,-2.3517,-2.4133,-2.3887,-2.3548,-2.4133,-2.4348,-2.4533,-2.5066,-2.4872,0.0,-2.5096,-2.4789,-2.4543,-2.5066,-2.525,-2.5496,-2.6164,-2.7303,-2.8196,-2.8196,-2.9243,-3.0325,-3.1151,-3.1797,-3.2167,-3.2167,-3.3365,-3.3919,-3.3244,-3.3919,-3.4351,-3.4289,-3.4351,-3.469,-3.5367,-3.546,-3.5799,-3.6476,-3.6507,-3.6507,-3.6507,-3.6507,-3.6507,-3.6507,-3.6507,-3.6815,-3.74,-3.7461,-3.82,-3.9367,-3.9493,-3.9859,-4.0505,-4.0505,-4.0105,-3.9585,-4.0228,-4.0909,-4.1555,-4.2232,-4.334,-4.4517,-2.6691,-2.6691,-2.6691,-2.6691,-2.7265,-2.7684,-2.7684,-2.8376,-2.8774,-2.842,-2.8675,-2.9219,-3.0179,-2.9241,-2.8681,-2.8989,-2.7898,-2.7196,-2.711,-2.5962,-2.5219,-2.5096,-2.4594,-2.4317,-2.4317,-2.4317,-2.3979,-2.3302,-2.3179,-2.2748,-2.212,-2.1966,-2.1627,-2.1103,-2.1103,-2.0813,-2.0333,-2.1011,-2.175,-2.2551,-2.3086,-2.3702,-2.441,-2.521,-2.5342,-2.5219,-2.6019,-2.6257,-2.6072,-2.5364,-2.5096,-2.5004,-2.4451,-2.4225,-2.4133,-2.4256,-2.4225,-2.4133,-2.4256,-2.4697,-2.5004,-2.4594,-2.5241,0.0,-2.4718,-2.4789,-2.4973,-2.4594,-2.4912,-2.5342,-2.5465,-2.6226,-2.678,-2.678,-2.7457,-2.8596,-3.0325,-3.0694,-3.0786,-3.0786,-3.152,-3.1948,-3.1797,-3.2906,-3.3398,-3.2844,-3.3306,-3.3921,-3.4659,-3.5213,-3.5799,-3.6476,-3.6507,-3.6507,-3.6507,-3.6507,-3.6507,-3.6507,-3.6507,-3.6569,-3.6692,-3.7246,-3.7954,-3.8754,-3.9277,-3.9859,-4.0505,-4.0505,-4.0105,-3.9585,-4.0228,-4.0566,-4.0782,-4.1524,-4.2633,-4.3809,-2.6691,-2.6691,-2.6826,-2.7199,-2.7909,-2.8518,-2.8872,-2.96,-2.9941,-2.9483,-2.9176,-2.9274,-3.0064,-2.9303,-2.885,-2.9074,-2.8381,-2.7765,-2.7426,-2.6749,-2.6019,-2.5312,-2.4973,-2.4656,-2.4317,-2.4317,-2.4133,-2.3794,-2.3456,-2.3117,-2.2778,-2.244,-2.212,-2.1781,-2.1442,-2.1288,-2.1319,-2.1658,-2.2182,-2.2809,-2.3148,-2.3917,-2.485,-2.5527,-2.5804,-2.5949,-2.6626,-2.6634,-2.6349,-2.6349,-2.6134,-2.5733,-2.5004,-2.4789,-2.4727,-2.441,-2.4317,-2.4379,-2.4697,-2.4789,-2.4902,-2.5272,-2.5333,0.0,0.0,-2.4789,-2.4718,-2.4379,-2.4564,-2.4789,-2.4789,-2.5395,-2.5857,-2.5857,-2.6718,-2.7642,-2.8319,-2.9273,-3.0017,-3.0356,-3.072,-3.0905,-3.0905,-3.1797,-3.2382,-3.2382,-3.2721,-3.3367,-3.4443,-3.4813,-3.546,-3.6445,-3.6507,-3.6507,-3.6507,-3.6507,-3.6507,-3.6507,-3.6507,-3.6507,-3.6507,-3.6846,-3.7369,-3.8046,-3.8723,-3.9367,-4.0013,-4.0351,-4.0105,-3.9582,-4.0628,-4.0812,-4.0628,-4.1709,-4.2725,-4.3593,-2.6691,-2.6691,-2.6928,-2.7689,-2.845,-2.9247,-3.0006,-3.0659,-3.0918,-3.0539,-2.9869,-2.9562,-2.9944,-2.9258,-2.889,-2.9163,-2.8807,-2.8319,-2.7642,-2.7457,-2.6903,-2.5742,-2.5435,-2.5035,-2.4502,-2.4379,-2.4317,-2.4317,-2.3763,-2.3486,-2.3486,-2.2932,-2.2613,-2.2471,-2.1935,-2.1904,-2.2305,-2.2459,-2.2829,-2.3302,-2.3425,-2.4225,-2.5373,-2.605,-2.6441,-2.668,-2.7334,-2.7211,-2.6788,-2.7242,-2.7026,-2.6472,-2.5733,-2.5496,-2.5373,-2.482,-2.4687,-2.481,-2.5342,-2.5302,-2.5272,-2.601,-2.5641,-2.5087,0.0,0.0,0.0,-2.4348,-2.4317,-2.4317,-2.4317,-2.4748,-2.5066,-2.4943,-2.6103,-2.6749,-2.6072,-2.7642,-2.9064,-2.974,-2.9925,-3.0048,-3.0202,-3.0936,-3.1701,-3.2351,-3.2382,-3.2998,-3.4412,-3.4505,-3.5121,-3.6445,-3.6507,-3.6507,-3.6507,-3.6507,-3.6507,-3.6507,-3.6507,-3.6507,-3.6507,-3.6507,-3.6876,-3.7554,-3.8231,-3.8877,-3.9521,-4.0228,-4.0166,-3.9767,-4.0816,-4.0847,-4.0443,-4.174,-4.2694,-4.3439,-2.6691,-2.6691,-2.6928,-2.7689,-2.845,-2.9247,-3.0006,-3.0369,-3.0559,-3.0518,-3.0565,-3.0619,-3.0665,-3.0396,-2.995,-2.941,-2.9329,-2.8996,-2.8319,-2.7734,-2.7334,-2.718,-2.598,-2.525,-2.5189,-2.4594,-2.4317,-2.4317,-2.4225,-2.4194,-2.4194,-2.4102,-2.3763,-2.3179,-2.3117,-2.2778,-2.2336,-2.2932,-2.324,-2.3363,-2.3948,-2.4635,-2.5373,-2.6103,-2.6749,-2.7365,-2.8042,-2.8227,-2.8073,-2.758,-2.7334,-2.718,-2.6472,-2.6226,-2.6173,-2.6111,-2.6134,-2.6187,-2.6226,-2.7088,-2.755,-2.5834,-2.6688,-2.7334,-2.4964,0.0,-2.5004,-2.4441,0.0,-2.4317,-2.4317,0.0,0.0,-2.3609,-2.4656,-2.5281,-2.4625,-2.5795,-2.6995,-2.7673,-2.8258,-2.8873,-2.9458,-3.0658,-3.1701,-3.2351,-3.2382,-3.2998,-3.4412,-3.4505,-3.5121,-3.6445,-3.6507,-3.6507,-3.6507,-3.6507,-3.6507,-3.6507,-3.6507,-3.6507,-3.6507,-3.6507,-3.6876,-3.7554,-3.8231,-3.8877,-3.9521,-4.0228,-4.0443,-4.032,-3.989,-3.9708,-3.9674,-4.0443,-4.1586,-4.2786,-2.6759,-2.6691,-2.7063,-2.8281,-2.8773,-2.9382,-3.0548,-3.0373,-3.0206,-3.0609,-3.0256,-3.0137,-3.0546,-3.0458,-3.0294,-2.9986,-2.9986,-2.9679,-2.9002,-2.8719,-2.8227,-2.7426,-2.6842,-2.6134,-2.5312,-2.5004,-2.4687,-2.4317,-2.4317,-2.4317,-2.4317,-2.4317,-2.4164,-2.3856,-2.3486,-2.3363,-2.3456,-2.3363,-2.3517,-2.3948,-2.4604,-2.5302,-2.598,-2.6257,-2.7026,-2.8011,-2.8319,-2.8411,-2.8381,-2.8073,-2.798,-2.7857,-2.718,-2.6965,-2.6872,-2.6472,-2.638,-2.6472,-2.6872,-2.7119,-2.7119,-2.6657,-2.6565,-2.6318,-2.5127,-2.4789,-2.4656,-2.4379,0.0,0.0,0.0,0.0,0.0,0.0,-2.4687,-2.5066,-2.4389,-2.5149,-2.601,-2.6718,-2.7396,-2.8258,-2.9279,-2.992,-3.0689,-3.1763,-3.1797,-3.2441,-3.3767,-3.4289,-3.4936,-3.5861,-3.6292,-3.6507,-3.6507,-3.6507,-3.6507,-3.6507,-3.6507,-3.6507,-3.6507,-3.6507,-3.663,-3.6969,-3.8046,-3.8662,-3.9,-4.0043,-4.0505,-4.0413,-3.9736,-3.9736,-4.0166,-4.0909,-4.1771,-4.2694,-2.7368,-2.7334,-2.7757,-2.9077,-2.9314,-2.9683,-3.085,-3.0717,-3.0566,-3.0775,-3.0561,-3.0485,-3.0835,-3.1076,-3.1063,-3.072,-3.0817,-3.0571,-2.971,-2.9494,-2.8965,-2.798,-2.7611,-2.6934,-2.5896,-2.5496,-2.5066,-2.4574,-2.441,-2.4317,-2.4317,-2.4317,-2.4317,-2.4287,-2.3794,-2.3948,-2.4533,-2.404,-2.4256,-2.4933,-2.5426,-2.6041,-2.6688,-2.6819,-2.7495,-2.8411,-2.8411,-2.8411,-2.8411,-2.8411,-2.8411,-2.8319,-2.7827,-2.7673,-2.758,-2.7088,-2.6934,-2.7057,-2.755,-2.7457,-2.7242,-2.7365,-2.678,-2.605,-2.5703,-2.5364,-2.5056,-2.4656,-2.4748,0.0,0.0,0.0,-2.4256,-2.4071,0.0,-2.4789,-2.4133,-2.4594,-2.5302,-2.601,-2.6872,-2.7919,-2.9248,-2.9402,-2.9889,-3.1028,-3.1274,-3.1917,-3.3059,-3.4012,-3.4813,-3.5491,-3.6138,-3.6507,-3.6507,-3.6507,-3.6507,-3.6507,-3.6507,-3.6507,-3.6507,-3.6507,-3.6599,-3.6846,-3.8015,-3.86,-3.8877,-4.0013,-4.0505,-4.0413,-3.9736,-3.989,-4.0566,-4.134,-4.2017,-4.2725,-2.8773,-2.8942,-2.9179,-2.9939,-3.0055,-3.0176,-3.048,-3.1502,-3.1888,-3.093,-3.1957,-3.2609,-3.2088,-3.2808,-3.2782,-3.1459,-3.1951,-3.1767,-3.0448,-2.974,-2.9371,-2.9341,-2.8104,-2.7365,-2.7334,-2.601,-2.5281,-2.525,-2.4625,-2.4317,-2.4317,-2.4317,-2.4317,-2.4317,-2.4287,-2.4656,-2.525,-2.525,-2.5672,-2.6318,-2.6371,-2.6749,-2.7426,-2.8104,-2.8381,-2.8411,-2.8411,-2.8411,-2.8411,-2.8411,-2.8411,-2.8411,-2.8381,-2.8381,-2.8381,-2.835,-2.835,-2.835,-2.8381,-2.8842,-2.8996,-2.7734,-2.7857,-2.795,-2.6657,-2.6842,-2.6903,-2.5527,-2.5826,-2.5918,-2.4564,-2.4317,-2.4102,-2.3425,-2.3887,0.0,0.0,-2.3917,-2.4594,-2.525,-2.6565,-2.7919,-2.9248,-2.9402,-2.9679,-3.0386,-3.1028,-3.1674,-3.2382,-3.3765,-3.4813,-3.5491,-3.6138,-3.6507,-3.6507,-3.6507,-3.6507,-3.6507,-3.6507,-3.6507,-3.6507,-3.6507,-3.6846,-3.7523,-3.82,-3.8877,-3.9521,-4.0197,-4.0505,-4.0413,-3.9736,-3.989,-4.0566,-4.134,-4.2017,-4.2786,-2.9668,-3.0108,-3.0378,-3.0142,-3.0108,-3.0456,-3.1517,-3.1468,-3.1802,-3.3247,-3.2933,-3.3002,-3.4135,-3.42,-3.395,-3.3488,-3.3213,-3.269,-3.1797,-3.1089,-3.032,-2.9433,-2.8965,-2.8319,-2.7426,-2.6934,-2.6226,-2.5281,-2.5066,-2.4727,-2.4317,-2.4317,-2.4317,-2.4317,-2.4317,-2.4441,-2.4687,-2.5096,-2.5543,-2.6025,-2.7083,-2.7819,-2.8256,-2.8367,-2.8411,-2.8411,-2.8411,-2.8411,-2.8411,-2.8411,-2.8411,-2.8411,-2.8411,-2.8411,-2.8411,-2.8411,-2.8411,-2.8411,-2.8411,-2.8565,-2.8535,-2.7611,-2.758,-2.7488,-2.6565,-2.6534,-2.6595,-2.6134,-2.5826,-2.5672,-2.5672,-2.4933,-2.4379,-2.4594,-2.4441,-2.4225,0.0,-2.4164,-2.4564,-2.5219,-2.6164,-2.7088,-2.798,-2.8473,-2.9027,-2.9679,-3.0356,-3.1028,-3.1674,-3.3488,-3.4597,-3.4844,-3.5922,-3.6507,-3.6507,-3.6507,-3.6507,-3.6507,-3.6507,-3.6507,-3.6507,-3.6507,-3.6876,-3.7554,-3.8231,-3.8877,-3.9521,-4.0228,-4.0505,-4.0474,-4.0228,-4.029,-4.0566,-4.134,-4.2017,-4.2786,-3.0446,-3.0852,-3.1055,-3.0581,-3.0717,-3.119,-3.2158,-3.2254,-3.2812,-3.458,-3.4175,-3.4183,-3.5264,-3.5271,-3.4986,-3.4565,-3.426,-3.3737,-3.2813,-3.2105,-3.1243,-3.0166,-2.9673,-2.8996,-2.8134,-2.7642,-2.6965,-2.6072,-2.5527,-2.5066,-2.4656,-2.441,-2.4317,-2.4317,-2.4317,-2.4606,-2.5184,-2.5617,-2.6212,-2.6983,-2.8027,-2.8566,-2.8685,-2.8668,-2.8573,-2.8501,-2.8501,-2.8549,-2.8621,-2.8525,-2.8501,-2.8501,-2.8501,-2.8453,-2.8411,-2.8411,-2.8411,-2.8411,-2.8411,-2.8411,-2.8319,-2.7857,-2.7765,-2.7642,-2.7157,-2.7272,-2.7334,-2.6842,-2.6565,-2.6411,-2.638,-2.5426,-2.4789,-2.5219,-2.4748,-2.4317,0.0,-2.4317,-2.4564,-2.5219,-2.5733,-2.638,-2.7303,-2.7796,-2.8319,-2.8972,-2.9894,-3.0571,-3.1028,-3.3242,-3.4505,-3.4505,-3.5799,-3.6507,-3.6507,-3.6507,-3.6507,-3.6507,-3.6507,-3.6507,-3.6507,-3.6507,-3.6999,-3.7892,-3.8323,-3.9031,-3.989,-4.032,-4.0505,-4.0505,-4.0505,-4.0505,-4.0597,-4.1617,-4.254,-4.3402,-3.1055,-3.1224,-3.1258,-3.1258,-3.1853,-3.2327,-3.2395,-3.3707,-3.4745,-3.4916,-3.5698,-3.6082,-3.5594,-3.6083,-3.5954,-3.4718,-3.5152,-3.4906,-3.3552,-3.2813,-3.2136,-3.1424,-3.0166,-2.9489,-2.9402,-2.8165,-2.7457,-2.7396,-2.6072,-2.5373,-2.5281,-2.4656,-2.4348,-2.4348,-2.4348,-2.5215,-2.6704,-2.6736,-2.7673,-2.9137,-2.9137,-2.8967,-2.8756,-2.9045,-2.8967,-2.8732,-2.8708,-2.8873,-2.9068,-2.8803,-2.8708,-2.8708,-2.8708,-2.8628,-2.8466,-2.8466,-2.8497,-2.8528,-2.8497,-2.8466,-2.8466,-2.8411,-2.8411,-2.8411,-2.8411,-2.8904,-2.8996,-2.7703,-2.7919,-2.795,-2.6634,-2.5834,-2.5373,-2.5404,-2.482,-2.441,-2.441,-2.441,-2.4656,-2.5281,-2.5342,-2.5887,-2.7211,-2.7365,-2.7673,-2.8319,-2.9617,-3.0386,-3.0386,-3.2998,-3.4505,-3.4505,-3.5799,-3.6507,-3.6507,-3.6507,-3.6507,-3.6507,-3.6507,-3.6507,-3.6507,-3.6538,-3.7246,-3.8446,-3.8539,-3.9244,-4.0443,-4.0474,-4.0505,-4.0505,-4.0505,-4.0536,-4.0751,-4.2109,-4.3433,-4.4517,-3.1157,-3.165,-3.2022,-3.2022,-3.2158,-3.2666,-3.3783,-3.442,-3.5367,-3.6908,-3.7063,-3.7145,-3.7528,-3.7297,-3.6803,-3.6045,-3.5706,-3.5152,-3.4289,-3.3521,-3.2628,-3.1455,-3.1059,-3.0412,-2.9402,-2.9033,-2.8411,-2.7396,-2.7026,-2.6349,-2.5281,-2.5127,-2.5035,-2.5035,-2.5035,-2.5648,-2.6736,-2.7235,-2.8203,-2.9403,-2.9614,-2.9515,-2.9312,-2.9592,-2.9547,-2.9266,-2.9059,-2.9045,-2.9091,-2.9045,-2.9021,-2.9021,-2.9021,-2.9344,-2.976,-2.976,-3.0106,-3.0308,-2.9644,-2.9439,-2.9266,-2.8583,-2.8411,-2.8411,-2.8411,-2.8535,-2.8565,-2.8227,-2.7888,-2.7703,-2.7857,-2.6903,-2.6287,-2.678,-2.6287,-2.5857,-2.5857,-2.5857,-2.5918,-2.6103,-2.6072,-2.6173,-2.6542,-2.7088,-2.7457,-2.7642,-2.9341,-3.0386,-3.0386,-3.2998,-3.4505,-3.4505,-3.5799,-3.6507,-3.6507,-3.6507,-3.6507,-3.6507,-3.6507,-3.6507,-3.6507,-3.6999,-3.743,-3.78,-3.8816,-3.9428,-3.9797,-4.029,-4.0505,-4.0505,-4.0505,-4.112,-4.2109,-4.2479,-4.3433,-4.4579,-3.1684,-3.2273,-3.2882,-3.3207,-3.3525,-3.4032,-3.4844,-3.5131,-3.5817,-3.7358,-3.7614,-3.7698,-3.7876,-3.806,-3.7825,-3.6967,-3.6533,-3.5916,-3.4998,-3.426,-3.3398,-3.2321,-3.1705,-3.0905,-2.9863,-2.9556,-2.8904,-2.7827,-2.755,-2.6995,-2.6195,-2.5588,-2.5465,-2.5711,-2.5435,-2.5988,-2.7195,-2.8086,-2.8894,-2.9515,-2.9792,-2.9748,0.0,-2.9792,-2.9748,-2.9493,-2.948,-2.9457,-2.9434,-2.9289,-2.9266,-2.9266,-2.9266,-2.9705,-3.0204,-3.0204,-3.0457,-3.0654,-3.013,-2.9736,-2.9351,-2.8833,-2.8692,-2.8668,-2.8549,-2.8525,-2.8501,-2.8436,-2.8104,-2.795,-2.8319,-2.755,-2.6842,-2.6934,-2.6626,-2.6402,-2.6402,-2.6402,-2.6503,-2.678,-2.6534,-2.6472,-2.6757,-2.7149,-2.7519,-2.7827,-2.9433,-3.0386,-3.0386,-3.2998,-3.4505,-3.4505,-3.5799,-3.6507,-3.6507,-3.6507,-3.6507,-3.6507,-3.6507,-3.6507,-3.6507,-3.7184,-3.7492,-3.7584,-3.8939,-3.949,-3.9521,-4.0228,-4.0505,-4.0505,-4.0505,-4.1151,-4.2202,-4.2509,-4.3433,-4.4579,-3.2429,-3.3017,-3.3761,-3.437,-3.5216,-3.5769,-3.587,-3.6114,-3.658,-3.7261,-3.7926,-3.815,-3.7617,-3.8525,-3.8756,-3.7623,-3.7352,-3.6801,-3.5703,-3.4812,-3.4044,-3.3429,-3.2198,-3.1213,-3.054,-2.9863,-2.9187,-2.8535,-2.7857,-2.7488,-2.7365,-2.6164,-2.5896,-2.6419,-2.5834,-2.6421,-2.7958,-2.9035,-2.9515,-2.956,-2.9814,-2.977,-2.956,-2.9814,-2.977,-2.956,-2.9814,-2.988,-2.9891,-2.9733,-2.9666,-2.9698,-2.9794,-3.0169,-3.0585,-3.0585,-3.0648,-3.068,-3.0561,-3.0038,-2.954,-2.9422,-2.9367,-2.9297,-2.9037,-2.8989,-2.8886,-2.8583,-2.8535,-2.8504,-2.8411,-2.7919,-2.7334,-2.6749,-2.6657,-2.6657,-2.6657,-2.6657,-2.6872,-2.7457,-2.6995,0.0,-2.7457,-2.7457,-2.7642,-2.8227,-2.9587,-3.0386,-3.0386,-3.2906,-3.4412,-3.4505,-3.5737,-3.6415,-3.6507,-3.6507,-3.6507,-3.6507,-3.6507,-3.6507,-3.6507,-3.7184,-3.7461,-3.7461,-3.8877,-3.9428,-3.9431,-4.0166,-4.0505,-4.0505,-4.0505,-4.0997,-4.1801,-4.2386,-4.3433,-4.4517,-3.3085,-3.3795,-3.4336,-3.4472,-3.5678,-3.6772,-3.7415,-3.8053,-3.8511,-3.8645,-3.9286,-3.952,-3.891,-3.9069,-3.892,-3.8193,-3.7199,-3.6472,-3.6261,-3.4579,-3.3552,-3.3398,-3.2659,-3.189,-3.1243,-3.0597,-2.9894,-2.9218,-2.8565,-2.795,-2.7396,-2.7149,-2.7088,-2.7211,-2.7088,-2.7713,-2.8879,-2.9325,-2.9637,-2.9836,-2.988,-2.9858,-2.9836,-2.988,-2.9858,-2.9836,-2.988,-2.988,-2.9977,-3.0493,-3.0642,-3.0739,-3.1375,-3.203,-3.2587,-3.2587,-3.2974,-3.3247,-3.2471,-3.2165,-3.1893,-3.1044,-3.0837,-3.0763,-3.0467,-3.0448,-3.0217,-2.9385,-2.9218,-2.9058,-2.8504,-2.8319,-2.8196,-2.8073,-2.8042,-2.8042,-2.8042,-2.8042,-2.8104,-2.8227,-2.8134,-2.8104,-2.8227,-2.7734,-2.7457,-2.758,-2.9335,-3.0386,-3.0386,-3.2444,-3.386,-3.4474,-3.5275,-3.5922,-3.6476,-3.6507,-3.6507,-3.6507,-3.6507,-3.6507,-3.6507,-3.7184,-3.7184,-3.6784,-3.8692,-3.9216,-3.8785,-3.9982,-4.0505,-4.0505,-4.0505,-4.1274,-4.2448,-4.2571,-4.3433,-4.461,-3.4404,-3.4844,-3.5216,-3.5622,-3.6603,-3.7618,-3.8362,-3.9073,-3.9336,-3.8656,-3.9126,-3.9303,-3.8764,-3.928,-3.9401,-3.8838,-3.8209,-3.7547,-3.6858,-3.531,-3.4251,-3.3817,-3.2918,-3.2074,-3.1424,-3.1089,-3.0412,-2.9402,-2.9089,-2.8596,-2.7919,-2.755,-2.758,-2.7919,-2.8007,-2.8381,-2.892,-2.9335,-2.9785,-3.0251,-2.9998,-3.0334,-3.095,-3.0571,-3.0409,-3.0409,-3.0409,-3.0204,-3.001,-3.0678,-3.0904,-3.1034,-3.1769,-3.2514,-3.3097,-3.3097,-3.3323,-3.3461,-3.3039,-3.2635,-3.2225,-3.1726,-3.1606,-3.151,-3.1092,-3.0992,-3.0804,-3.0089,-2.9925,-2.971,-2.9058,-2.8627,-2.8411,-2.8411,-2.8411,-2.8411,-2.8411,-2.8411,-2.8411,-2.8411,-2.8411,-2.8411,-2.8411,-2.8104,-2.7919,-2.7919,-2.915,-3.0017,-3.0386,-3.1982,-3.3367,-3.4474,-3.5152,-3.5799,-3.6476,-3.6507,-3.6507,-3.6507,-3.6507,-3.6507,-3.6507,-3.7184,-3.7123,-3.6569,-3.8262,-3.8816,-3.86,-3.9951,-4.029,-4.0013,-4.0351,-4.112,-4.214,-4.2479,-4.3433,-4.461,-3.5723,-3.5836,-3.6096,-3.6874,-3.7652,-3.8328,-3.8903,-3.9639,-3.9725,-3.8738,-3.8984,-3.9084,-3.8646,-3.9514,-3.9901,-3.9435,-3.9136,-3.8539,-3.7465,-3.597,-3.4885,-3.423,-3.3025,-3.2163,-3.172,-3.1566,-3.1005,-3.0035,-2.9651,-2.9194,-2.8693,-2.7943,-2.7912,-2.8484,-2.8769,-2.8998,-2.9148,-2.9694,-3.0316,-3.0867,-3.0503,-3.1014,-3.1963,-3.1357,-3.1131,-3.1131,-3.1131,-3.0797,-3.0464,-3.1154,-3.1163,-3.1034,-3.1769,-3.2514,-3.3097,-3.3097,-3.3194,-3.3291,-3.3291,-3.2902,-3.2449,-3.2449,-3.2449,-3.2329,-3.184,-3.169,-3.1483,-3.084,-3.0561,-3.0233,-2.971,-2.9033,-2.8658,-2.8812,-2.862,-2.8515,-2.8669,-2.8576,-2.8477,-2.8525,-2.8484,-2.8436,-2.8453,-2.8436,-2.8411,-2.8411,-2.915,-2.9833,-3.0356,-3.1674,-3.3057,-3.4474,-3.5028,-3.5706,-3.6476,-3.6507,-3.6507,-3.6507,-3.6507,-3.6507,-3.6507,-3.7061,-3.6999,-3.6569,-3.7923,-3.8662,-3.9031,-4.0043,-4.0166,-3.9736,-4.029,-4.1063,-4.1894,-4.2417,-4.3433,-4.461,-3.6524,-3.6694,-3.6907,-3.7686,-3.8396,-3.8903,-3.8971,-3.9639,-4.0054,-3.9935,-3.9986,-3.9986,-3.9935,-4.002,-4.0087,-4.0003,-3.8964,-3.8221,-3.8018,-3.576,-3.4347,-3.4198,-3.3025,-3.252,-3.2734,-3.2111,-3.1836,-3.2025,-3.051,-2.9706,-2.9644,-2.8748,-2.8439,-2.8692,-2.9387,-2.999,-3.0479,-3.1134,-3.1598,-3.1875,-3.181,-3.1898,-3.1996,-3.1931,-3.1898,-3.1898,-3.1898,-3.1866,-3.1931,-3.2643,-3.2028,-3.1034,-3.1769,-3.2514,-3.3097,-3.3097,-3.3518,-3.4003,-3.4003,-3.3971,-3.3906,-3.3906,-3.3906,-3.3831,-3.3528,-3.327,-3.2851,-3.1852,-3.1,-3.0386,-3.0325,-2.974,-2.952,-3.0109,-2.9354,-2.891,-2.9588,-2.9066,-2.8756,-2.9021,-2.8645,-2.8453,-2.8637,-2.8501,-2.8411,-2.8411,-2.9587,-3.0325,-3.0386,-3.1674,-3.3057,-3.4474,-3.4566,-3.5213,-3.6476,-3.6507,-3.6507,-3.6507,-3.6507,-3.6507,-3.6507,-3.6569,-3.6569,-3.6569,-3.7923,-3.9216,-4.032,-4.0443,-4.0443,-4.0413,-4.0474,-4.1304,-4.2509,-4.2571,-4.3433,-4.461,-3.7415,-3.7449,-3.7686,-3.843,-3.8802,-3.914,-3.9605,-3.991,-4.0113,-4.0113,-4.0113,-4.0113,-4.0113,-4.0113,-4.0113,-4.0113,-3.9632,-3.8942,-3.8044,-3.6411,-3.5101,-3.413,-3.319,-3.2746,-3.2912,-3.2761,-3.2573,-3.2291,-3.1444,-3.0791,-3.0386,-3.0005,-2.998,-3.0225,-3.0678,-3.0999,-3.1222,-3.1654,-3.2159,-3.2611,-3.219,-3.2514,-3.3226,-3.2805,-3.2643,-3.2643,-3.2643,-3.2384,-3.206,-3.2352,-3.2352,-3.2352,-3.3032,-3.3453,-3.368,-3.368,-3.3874,-3.4101,-3.4101,-3.4101,-3.4101,-3.4101,-3.4101,-3.4025,-3.3745,-3.3617,-3.3397,-3.2825,-3.194,-3.1233,-3.1233,-3.0675,-3.0328,-3.0582,-3.006,-2.9721,-3.0004,-2.9415,-2.8967,-2.9091,-2.8928,-2.8858,-2.892,-2.874,-2.8752,-2.9217,-2.9595,-2.9986,-3.0386,-3.1674,-3.3057,-3.4474,-3.4905,-3.5552,-3.6476,-3.6507,-3.6507,-3.6507,-3.6507,-3.6507,-3.6507,-3.6507,-3.6722,-3.7153,-3.8108,-3.9029,-3.992,-4.032,-4.0505,-4.0505,-4.0505,-4.1335,-4.2602,-4.2602,-4.3433,-4.461,-3.8313,-3.8299,-3.8536,-3.9297,-3.9408,-3.9553,-4.0111,-4.0238,-4.0238,-4.0238,-4.0238,-4.0188,-4.0113,-4.0113,-4.0113,-4.0113,-4.0113,-3.9571,-3.8294,-3.7008,-3.5701,-3.4392,-3.3398,-3.2939,-3.302,-3.3282,-3.3212,-3.2832,-3.2303,-3.1829,-3.1357,-3.1061,-3.1067,-3.1339,-3.1757,-3.1975,-3.208,-3.2442,-3.2902,-3.3356,-3.2838,-3.3226,-3.4036,-3.355,-3.3388,-3.3388,-3.3388,-3.3064,-3.2611,-3.2611,-3.2967,-3.3388,-3.3453,-3.3615,-3.3809,-3.3809,-3.3939,-3.4101,-3.4101,-3.4101,-3.4101,-3.4101,-3.4101,-3.405,-3.3848,-3.3745,-3.3617,-3.3361,-3.2741,-3.2238,-3.2238,-3.17,-3.1293,-3.1512,-3.1016,-3.0704,-3.087,-3.0299,-2.9832,-2.9832,-2.969,-2.9643,-2.9714,-2.9476,-2.9567,-3.0172,-3.0242,-3.0376,-3.0689,-3.2064,-3.3385,-3.456,-3.536,-3.6102,-3.6785,-3.6754,-3.6754,-3.6754,-3.6754,-3.6723,-3.6662,-3.6754,-3.7217,-3.7959,-3.8541,-3.9252,-3.9998,-4.0358,-4.0505,-4.0505,-4.0505,-4.1335,-4.2602,-4.2602,-4.3433,-4.461,-3.9245,-3.9296,-3.9486,-4.0349,-4.0387,-4.0337,-4.0485,-4.051,-4.051,-4.051,-4.051,-4.0412,-4.0138,-4.0113,-4.0113,-4.0113,-4.0113,-3.9774,-3.9039,-3.7298,-3.5954,-3.5098,-3.3678,-3.3016,-3.3282,-3.3539,-3.3822,-3.4101,-3.314,-3.2663,-3.2663,-3.1656,-3.1363,-3.1614,-3.2343,-3.2812,-3.3129,-3.3777,-3.4068,-3.4101,-3.4068,-3.4068,-3.4101,-3.4101,-3.4101,-3.4101,-3.4101,-3.4068,-3.4068,-3.4068,-3.4068,-3.3841,-3.2481,-3.2514,-3.3097,-3.3097,-3.3582,-3.4101,-3.4101,-3.4101,-3.4101,-3.4101,-3.4101,-3.4101,-3.4101,-3.3899,-3.3617,-3.3361,-3.3309,-3.3277,-3.3277,-3.2708,-3.2513,-3.3151,-3.2335,-3.1806,-3.2485,-3.1974,-3.1582,-3.159,-3.1117,-3.0861,-3.1142,-3.0942,-3.0886,-3.116,-3.1849,-3.2003,-3.142,-3.2963,-3.4192,-3.4878,-3.5883,-3.6722,-3.7387,-3.7387,-3.7387,-3.7387,-3.7387,-3.727,-3.7,-3.7342,-3.8023,-3.8995,-3.9349,-4.0096,-4.1055,-4.0646,-4.0505,-4.0505,-4.0505,-4.1335,-4.2602,-4.2602,-4.3433,-4.461,-4.0099,-4.0119,-4.0188,-4.0476,-4.0461,-4.0461,-4.051,-4.051,-4.051,-4.051,-4.051,-4.0485,-4.0387,-4.0387,-4.0387,-4.0387,-4.0288,-3.9932,-3.9161,-3.7694,-3.6427,-3.5469,-3.433,-3.3668,-3.3565,-3.3822,-3.4,-3.4101,-3.3623,-3.3374,-3.3342,-3.3042,-3.3047,-3.3297,-3.3548,-3.3702,-3.3809,-3.4003,-3.4101,-3.4101,-3.4101,-3.4101,-3.4101,-3.4101,-3.4101,-3.4101,-3.4101,-3.4101,-3.4101,-3.4101,-3.4101,-3.4036,-3.3582,-3.3582,-3.3777,-3.3777,-3.3939,-3.4101,-3.4101,-3.4101,-3.4101,-3.4101,-3.4101,-3.4101,-3.4101,-3.4025,-3.3949,-3.3848,-3.3694,-3.3565,-3.3565,-3.3405,-3.331,-3.3533,-3.3026,-3.2684,-3.291,-3.2329,-3.1877,-3.1854,-3.171,-3.1662,-3.1734,-3.1485,-3.1554,-3.2106,-3.2235,-3.2404,-3.2688,-3.4093,-3.525,-3.5912,-3.6693,-3.7196,-3.7417,-3.7417,-3.7417,-3.7417,-3.7417,-3.7358,-3.727,-3.7686,-3.8403,-3.9345,-3.9743,-4.0362,-4.1088,-4.1189,-4.1122,-4.0885,-4.0885,-4.1724,-4.2931,-4.2674,-4.3433,-4.461,-4.0655,-4.0607,-4.0583,-4.0655,-4.0607,-4.0583,-4.0655,-4.0655,-4.0655,-4.0655,-4.0655,-4.0655,-4.0655,-4.0655,-4.0607,-4.051,-4.0412,-4.0056,-3.9306,-3.8262,-3.7128,-3.5927,-3.5044,-3.4385,-3.3924,-3.405,-3.4101,-3.4101,-3.3924,-3.3848,-3.3848,-3.3848,-3.3949,-3.4101,-3.4101,-3.4101,-3.4101,-3.4101,-3.4101,-3.4101,-3.4101,-3.4101,-3.4101,-3.4101,-3.4101,-3.4101,-3.4101,-3.4101,-3.4101,-3.4101,-3.4101,-3.4101,-3.4101,-3.4101,-3.4101,-3.4101,-3.4101,-3.4101,-3.4101,-3.4101,-3.4101,-3.4101,-3.4101,-3.4101,-3.4101,-3.4101,-3.4101,-3.4101,-3.3975,-3.3848,-3.3848,-3.3848,-3.3848,-3.3848,-3.3645,-3.3485,-3.3485,-3.3064,-3.2757,-3.266,-3.266,-3.266,-3.266,-3.2481,-3.2624,-3.3115,-3.3278,-3.368,-3.4409,-3.5136,-3.5876,-3.6575,-3.7361,-3.777,-3.777,-3.777,-3.777,-3.7801,-3.7939,-3.8007,-3.8009,-3.8684,-3.9409,-4.0134,-4.051,-4.0979,-4.1489,-4.1555,-4.1489,-4.129,-4.129,-4.2103,-4.329,-4.3109,-4.3873,-4.5061,-4.0894,-4.0776,-4.0728,-4.0871,-4.081,-4.0762,-4.0871,-4.0894,-4.0894,-4.0894,-4.0894,-4.0894,-4.0894,-4.0894,-4.0799,-4.0558,-4.0534,-4.0202,-3.945,-3.8903,-3.7901,-3.6386,-3.5754,-3.5052,-3.4325,-3.4201,-3.4126,-3.4101,-3.4101,-3.4101,-3.4101,-3.4101,-3.4101,-3.4101,-3.4101,-3.4101,-3.4101,-3.4101,-3.4101,-3.4101,-3.4101,-3.4101,-3.4101,-3.4101,-3.4101,-3.4101,-3.4101,-3.4101,-3.4101,-3.4101,-3.4101,-3.4101,-3.4101,-3.4101,-3.4101,-3.4101,-3.4101,-3.4101,-3.4101,-3.4101,-3.4101,-3.4101,-3.4101,-3.4101,-3.4101,-3.4101,-3.4101,-3.4101,-3.4101,-3.4101,-3.4101,-3.4101,-3.4101,-3.4101,-3.4101,-3.4101,-3.4101,-3.4101,-3.4,-3.3745,-3.372,-3.372,-3.372,-3.372,-3.3854,-3.414,-3.4806,-3.5525,-3.6335,-3.6061,-3.6245,-3.6982,-3.7911,-3.8408,-3.8408,-3.8408,-3.8408,-3.8408,-3.883,-3.9035,-3.9067,-4.0166,-4.0801,-4.1148,-4.1468,-4.1818,-4.2077,-4.1785,-4.1654,-4.1621,-4.1558,-4.2444,-4.3743,-4.3646,-4.4563,-4.5796,-4.0894,-4.0871,-4.0847,-4.0894,-4.0871,-4.0847,-4.0894,-4.0894,-4.0894,-4.0894,-4.0894,-4.0894,-4.0894,-4.0894,-4.0871,-4.0799,-4.0704,-4.0323,-3.9534,-3.8706,-3.7804,-3.6645,-3.5933,-3.5261,-3.4618,-3.457,-3.4399,-3.4101,-3.4101,-3.4101,-3.4101,-3.4101,-3.4101,-3.4101,-3.4101,-3.4101,-3.4101,-3.4101,-3.4101,-3.4101,-3.4101,-3.4101,-3.4101,-3.4101,-3.4101,-3.4101,-3.4101,-3.4101,-3.4101,-3.4101,-3.4101,-3.4101,-3.4101,-3.4101,-3.4101,-3.4101,-3.4101,-3.4101,-3.4101,-3.4101,-3.4101,-3.4101,-3.4101,-3.4101,-3.4101,-3.4101,-3.4101,-3.4101,-3.4101,-3.4101,-3.4101,-3.4101,-3.4101,-3.4101,-3.4101,-3.4101,-3.4101,-3.4101,-3.4075,-3.4,-3.4,-3.4,-3.4,-3.4,-3.4277,-3.4878,-3.5098,-3.5752,-3.6988,-3.6998,-3.7293,-3.8004,-3.8282,-3.8408,-3.8408,-3.8408,-3.8408,-3.8408,-3.9062,-3.9389,-3.9424,-4.0476,-4.1148,-4.1522,-4.1853,-4.2045,-4.2109,-4.2302,-4.2206,-4.1917,-4.1406,-4.2395,-4.3988,-4.3176,-4.4117,-4.5796,-4.0894,-4.0894,-4.0894,-4.0894,-4.0894,-4.0894,-4.0894,-4.0894,-4.0894,-4.0894,-4.0894,-4.0894,-4.0894,-4.0894,-4.0894,-4.0894,-4.0823,-4.0466,-3.9617,-3.9158,-3.8345,-3.7115,-3.6514,-3.5858,-3.5234,-3.5015,-3.4763,-3.4374,-3.4201,-3.4101,-3.4101,-3.4101,-3.4101,-3.4101,-3.4101,-3.4101,-3.4101,-3.4101,-3.4101,-3.4101,-3.4101,-3.4101,-3.4101,-3.4101,-3.4101,-3.4101,-3.4101,-3.4101,-3.4101,-3.4101,-3.4101,-3.4101,-3.4101,-3.4101,-3.4101,-3.4101,-3.4101,-3.4101,-3.4101,-3.4101,-3.4101,-3.4101,-3.4101,-3.4101,-3.4101,-3.4101,-3.4101,-3.4101,-3.4101,-3.4101,-3.4101,-3.4101,-3.4101,-3.4101,-3.4101,-3.4101,-3.4101,-3.4101,-3.4101,-3.4101,-3.4392,-3.4586,-3.4586,-3.491,-3.5266,-3.5655,-3.5979,-3.6497,-3.7247,-3.763,-3.7987,-3.8375,-3.8408,-3.8408,-3.8408,-3.8408,-3.8408,-3.8408,-3.9444,-3.9959,-3.9994,-4.1236,-4.188,-4.2067,-4.2236,-4.2333,-4.2333,-4.2523,-4.2492,-4.2301,-4.1947,-4.288,-4.4391,-4.3839,-4.4763,-4.6298,-4.0894,-4.0894,-4.0894,-4.0894,-4.0894,-4.0894,-4.0894,-4.0894,-4.0894,-4.0894,-4.0894,-4.0894,-4.0894,-4.0894,-4.0894,-4.0894,-4.0894,-4.0584,-3.9733,-3.9595,-3.8905,-3.7581,-3.7055,-3.6502,-3.5822,-3.5407,-3.5062,-3.4787,-3.4448,-3.4275,-3.4275,-3.4226,-3.4226,-3.4275,-3.4151,-3.4126,-3.4201,-3.4126,-3.4101,-3.4101,-3.4101,-3.4101,-3.4101,-3.4101,-3.4101,-3.4101,-3.4101,-3.4101,-3.4101,-3.4101,-3.4101,-3.4101,-3.4101,-3.4101,-3.4101,-3.4101,-3.4101,-3.4101,-3.4101,-3.4101,-3.4101,-3.4101,-3.4101,-3.4101,-3.4101,-3.4101,-3.4101,-3.4101,-3.4101,-3.4101,-3.4101,-3.4101,-3.4101,-3.4101,-3.4101,-3.4101,-3.4101,-3.4198,-3.4262,-3.4262,-3.491,-3.539,-3.539,-3.5914,-3.6335,-3.6465,-3.6983,-3.7344,-3.7441,-3.8051,-3.8408,-3.8408,-3.8408,-3.8408,-3.8408,-3.8408,-3.8408,-3.8408,-3.9703,-4.0383,-4.0545,-4.1873,-4.2489,-4.2586,-4.2586,-4.2586,-4.2586,-4.2586,-4.2586,-4.2586,-4.2489,-4.3427,-4.4787,-4.4658,-4.5597,-4.6892,-4.0894,-4.0894,-4.0894,-4.0894,-4.0894,-4.0894,-4.0894,-4.0894,-4.0894,-4.0894,-4.0894,-4.0894,-4.0894,-4.0894,-4.0894,-4.0894,-4.0894,-4.0584,-3.9733,-3.9112,-3.8387,-3.7547,-3.6793,-3.6208,-3.5788,-3.5407,-3.5178,-3.5108,-3.5062,-3.5038,-3.5015,-3.4739,-3.4763,-3.5015,-3.4399,-3.43,-3.457,-3.425,-3.4101,-3.4101,-3.4101,-3.4101,-3.4101,-3.4101,-3.4101,-3.4101,-3.4101,-3.4101,-3.4101,-3.4101,-3.4101,-3.4101,-3.4101,-3.4101,-3.4101,-3.4101,-3.4101,-3.4101,-3.4101,-3.4101,-3.4101,-3.4101,-3.4101,-3.4101,-3.4101,-3.4101,-3.4101,-3.4101,-3.4101,-3.4101,-3.4101,-3.4101,-3.4101,-3.4101,-3.4101,-3.4101,-3.4101,-3.4619,-3.5033,-3.5033,-3.5687,-3.6141,-3.6141,-3.6238,-3.6529,-3.7085,-3.7247,-3.7598,-3.8213,-3.8343,-3.8408,-3.8408,-3.8408,-3.8408,-3.8408,-3.8408,-3.8408,-3.8408,-3.925,-3.993,-4.0513,-4.1385,-4.2067,-4.2586,-4.2586,-4.2586,-4.2586,-4.2586,-4.2586,-4.2522,-4.197,-4.2974,-4.4723,-4.4107,-4.5144,-4.6892,-4.0894,-4.0894,-4.0894,-4.0894,-4.0894,-4.0894,-4.0894,-4.0894,-4.0894,-4.0894,-4.0894,-4.0894,-4.0894,-4.0894,-4.0894,-4.0894,-4.0894,-4.0756,-4.0353,-3.9629,-3.9043,-3.872,-3.7581,-3.6668,-3.6071,-3.57,-3.5521,-3.5521,-3.5316,-3.5201,-3.5201,-3.5038,-3.5038,-3.5178,-3.4667,-3.4521,-3.4667,-3.4275,-3.4101,-3.4101,-3.4101,-3.4101,-3.4101,-3.4101,-3.4101,-3.4101,-3.4101,-3.4101,-3.4101,-3.4101,-3.4101,-3.4101,-3.4101,-3.4101,-3.4101,-3.4101,-3.4101,-3.4101,-3.4101,-3.4101,-3.4101,-3.4101,-3.4101,-3.4101,-3.4101,-3.4392,-3.4683,-3.4683,-3.4683,-3.4683,-3.4683,-3.436,-3.423,-3.4619,-3.436,-3.423,-3.4619,-3.5001,-3.5195,-3.5195,-3.6173,-3.6826,-3.6826,-3.7209,-3.7566,-3.789,-3.789,-3.8051,-3.8375,-3.8408,-3.8408,-3.8408,-3.8408,-3.8408,-3.8408,-3.8408,-3.8602,-3.8991,-3.9703,-4.0413,-4.1126,-4.1808,-4.2326,-4.2586,-4.2586,-4.2586,-4.2586,-4.2586,-4.2586,-4.2554,-4.2261,-4.3233,-4.4755,-4.4431,-4.5403,-4.6892,-4.0894,-4.0894,-4.0894,-4.0894,-4.0894,-4.0894,-4.0894,-4.0894,-4.0894,-4.0894,-4.0894,-4.0894,-4.0894,-4.0894,-4.0894,-4.0894,-4.0894,-4.0894,-4.0894,-4.0342,-3.9905,-3.9698,-3.8306,-3.7133,-3.6318,-3.6049,-3.6,-3.6193,-3.5712,-3.5577,-3.5745,-3.5452,-3.5385,-3.5453,-3.4991,-3.4835,-3.4787,-3.4399,-3.4201,-3.4101,-3.4101,-3.4101,-3.4101,-3.4101,-3.4101,-3.4101,-3.4101,-3.4101,-3.4101,-3.4101,-3.4101,-3.4133,-3.4295,-3.436,-3.4392,-3.4554,-3.4619,-3.4554,-3.4198,-3.4101,-3.4101,-3.4101,-3.423,-3.436,-3.436,-3.491,-3.5461,-3.5461,-3.5461,-3.5461,-3.5461,-3.4975,-3.4813,-3.5364,-3.4975,-3.4813,-3.5364,-3.559,-3.5687,-3.5687,-3.6788,-3.7566,-3.7566,-3.8084,-3.8408,-3.8408,-3.8408,-3.8408,-3.8408,-3.8408,-3.8408,-3.8408,-3.8408,-3.8408,-3.8408,-3.8408,-3.8764,-3.9505,-3.9994,-4.0737,-4.1612,-4.2132,-4.2424,-4.2586,-4.2586,-4.2586,-4.2586,-4.2586,-4.2586,-4.2586,-4.2586,-4.3524,-4.4787,-4.4787,-4.5662,-4.6892,-4.0894,-4.0894,-4.0894,-4.0894,-4.0894,-4.0894,-4.0894,-4.0894,-4.0894,-4.0894,-4.0894,-4.0894,-4.0894,-4.0894,-4.0894,-4.0894,-4.0894,-4.0894,-4.0894,-4.086,-4.048,-3.9733,-3.8306,-3.7133,-3.6318,-3.6262,-3.6642,-3.7366,-3.6599,-3.6599,-3.7322,-3.6239,-3.592,-3.6178,-3.5476,-3.5155,-3.5131,-3.4811,-3.4448,-3.4101,-3.4101,-3.4101,-3.4101,-3.4101,-3.4101,-3.4101,-3.4101,-3.4101,-3.4101,-3.4101,-3.4101,-3.423,-3.4903,-3.513,-3.5234,-3.5946,-3.6141,-3.5849,-3.4457,-3.4101,-3.4101,-3.4101,-3.4619,-3.513,-3.513,-3.5687,-3.6238,-3.6238,-3.6238,-3.6238,-3.6238,-3.6173,-3.6173,-3.6206,-3.6173,-3.6173,-3.6206,-3.6729,-3.715,-3.715,-3.7857,-3.8311,-3.8311,-3.8375,-3.8408,-3.8408,-3.8408,-3.8408,-3.8408,-3.8408,-3.8408,-3.8408,-3.8408,-3.8408,-3.8408,-3.8408,-3.8764,-3.9505,-3.957,-4.0283,-4.1612,-4.1644,-4.2002,-4.2586,-4.2586,-4.2586,-4.2586,-4.2586,-4.2586,-4.2586,-4.2586,-4.3524,-4.4787,-4.4787,-4.5662,-4.6892,-4.0894,-4.0894,-4.0894,-4.0894,-4.0894,-4.0894,-4.0894,-4.0894,-4.0894,-4.0894,-4.0894,-4.0894,-4.0894,-4.0894,-4.0894,-4.0894,-4.0894,-4.0894,-4.0894,-4.0894,-4.0549,-3.9733,-3.9146,-3.8491,-3.7732,-3.7284,-3.718,-3.7512,-3.6697,-3.6456,-3.6732,-3.6294,-3.6156,-3.6262,-3.5788,-3.5566,-3.5543,-3.5155,-3.492,-3.4754,-3.457,-3.4472,-3.4448,-3.4201,-3.4101,-3.4101,-3.4101,-3.4101,-3.4101,-3.4101,-3.4101,-3.423,-3.4968,-3.5195,-3.5357,-3.6176,-3.6482,-3.6437,-3.585,-3.5636,-3.561,-3.5687,-3.5941,-3.6137,-3.6137,-3.6724,-3.7193,-3.708,-3.7053,-3.7026,-3.6918,-3.6594,-3.6465,-3.6826,-3.6594,-3.6465,-3.6886,-3.7117,-3.7279,-3.7279,-3.7954,-3.8408,-3.8408,-3.8408,-3.8408,-3.8408,-3.8408,-3.8408,-3.8408,-3.8408,-3.8408,-3.8408,-3.8408,-3.8408,-3.8408,-3.8408,-3.8764,-3.9505,-3.9897,-4.064,-4.1612,-4.2035,-4.236,-4.2586,-4.2586,-4.2586,-4.2586,-4.2586,-4.2586,-4.2651,-4.3104,-4.3913,-4.4852,-4.5273,-4.605,-4.6892,-4.0894,-4.0894,-4.0894,-4.0894,-4.0894,-4.0894,-4.0894,-4.0894,-4.0894,-4.0894,-4.0894,-4.0894,-4.0894,-4.0894,-4.0894,-4.0894,-4.0894,-4.0894,-4.0894,-4.0894,-4.0549,-3.9733,-3.9698,-3.9353,-3.8594,-3.8099,-3.7961,-3.818,-3.718,-3.6801,-3.7008,-3.6525,-3.6284,-3.6284,-3.6049,-3.5898,-3.5766,-3.5498,-3.5316,-3.5178,-3.4944,-3.4873,-3.4897,-3.4472,-3.4349,-3.4366,-3.4176,-3.423,-3.4424,-3.4475,-3.4662,-3.4987,-3.5753,-3.6169,-3.6456,-3.7057,-3.7294,-3.7373,-3.74,-3.7347,-3.7196,-3.679,-3.6882,-3.7046,-3.7046,-3.7603,-3.8073,-3.7959,-3.7932,-3.7905,-3.7768,-3.7411,-3.7248,-3.7703,-3.7378,-3.7221,-3.7653,-3.7718,-3.7718,-3.7718,-3.8144,-3.8436,-3.8464,-3.8464,-3.8464,-3.8408,-3.846,-3.852,-3.8464,-3.8464,-3.8464,-3.8464,-3.8464,-3.8464,-3.8464,-3.8436,-3.8764,-3.9505,-4.0156,-4.0869,-4.1612,-4.2263,-4.2586,-4.2586,-4.2586,-4.2586,-4.2586,-4.2586,-4.2586,-4.2651,-4.3136,-4.3945,-4.4852,-4.5305,-4.6083,-4.6892,-4.0894,-4.0894,-4.0894,-4.0894,-4.0894,-4.0894,-4.0894,-4.0894,-4.0894,-4.0894,-4.0894,-4.0894,-4.0894,-4.0894,-4.0894,-4.0894,-4.0894,-4.0894,-4.0894,-4.0894,-4.0549,-3.9733,-3.9698,-3.9353,-3.8629,-3.8594,-3.8974,-3.9698,-3.8237,-3.7892,-3.8582,-3.7042,-3.6318,-3.6318,-3.6318,-3.6127,-3.5822,-3.5788,-3.5566,-3.5201,-3.5201,-3.5328,-3.5453,-3.492,-3.4826,-3.4934,-3.4349,-3.4612,-3.5253,-3.5382,-3.5889,-3.6633,-3.7517,-3.8264,-3.8788,-3.8788,-3.8788,-3.8816,-3.8985,-3.9013,-3.8623,-3.7105,-3.7275,-3.78,-3.78,-3.8357,-3.8788,-3.8788,-3.8788,-3.8788,-3.8788,-3.8788,-3.8788,-3.8788,-3.8788,-3.8766,-3.8632,-3.8604,-3.8604,-3.8604,-3.8492,-3.8464,-3.8604,-3.8604,-3.8548,-3.8408,-3.8655,-3.8738,-3.8632,-3.8604,-3.8604,-3.8604,-3.8604,-3.8604,-3.8604,-3.8464,-3.8764,-3.9505,-4.0156,-4.0869,-4.1612,-4.2263,-4.2586,-4.2586,-4.2586,-4.2586,-4.2586,-4.2586,-4.2586,-4.2586,-4.2619,-4.3524,-4.4787,-4.4787,-4.5694,-4.6892,-4.0894,-4.0894,-4.0894,-4.0894,-4.0894,-4.0894,-4.0894,-4.0894,-4.0894,-4.0894,-4.0894,-4.0894,-4.0894,-4.0894,-4.0894,-4.0894,-4.0894,-4.0894,-4.0894,-4.0894,-4.0791,-4.0549,-4.0549,-4.0446,-4.0239,-3.9664,-3.9491,-3.9698,-3.8732,-3.8375,-3.8617,-3.8112,-3.7905,-3.787,-3.7353,-3.7103,-3.6947,-3.6376,-3.6071,-3.5963,-3.5876,-3.5864,-3.5941,-3.6209,-3.6137,-3.5957,-3.6346,-3.6389,-3.6261,-3.6313,-3.6443,-3.6797,-3.7544,-3.8345,-3.8925,-3.8925,-3.904,-3.9148,-3.9202,-3.9202,-3.9102,-3.8646,-3.8685,-3.8851,-3.8851,-3.9016,-3.9121,-3.8985,-3.8925,-3.8898,-3.8816,-3.8788,-3.8788,-3.8788,-3.8788,-3.8794,-3.8766,-3.8738,-3.8738,-3.8738,-3.8711,-3.8711,-3.8738,-3.8738,-3.8738,-3.8683,-3.8733,-3.8761,-3.8738,-3.8738,-3.8738,-3.8738,-3.8738,-3.8738,-3.8738,-3.8488,-3.8764,-3.9505,-4.0156,-4.0869,-4.1612,-4.2263,-4.2586,-4.2586,-4.2586,-4.2586,-4.2586,-4.2586,-4.2586,-4.2651,-4.3169,-4.3978,-4.4852,-4.5338,-4.6083,-4.6892,-4.1343,-4.1101,-4.0894,-4.0894,-4.0894,-4.0894,-4.0894,-4.0894,-4.0894,-4.0894,-4.0894,-4.0894,-4.0894,-4.0894,-4.0894,-4.0894,-4.0894,-4.0894,-4.0894,-4.0894,-4.0894,-4.0894,-4.0894,-4.0894,-4.0894,-4.0446,-4.0146,-4.0146,-3.9388,-3.9043,-3.9008,-3.8755,-3.8594,-3.856,-3.8112,-3.7961,-3.7892,-3.7422,-3.7279,-3.7365,-3.7301,-3.7351,-3.7513,-3.765,-3.758,-3.7445,-3.7678,-3.7617,-3.7415,-3.7466,-3.7621,-3.7794,-3.8255,-3.8737,-3.9121,-3.9121,-3.9202,-3.9315,-3.9315,-3.9315,-3.9315,-3.9315,-3.9315,-3.9315,-3.9315,-3.9315,-3.9288,-3.9148,-3.9121,-3.9094,-3.9013,-3.9013,-3.9013,-3.9013,-3.9013,-3.8985,-3.8903,-3.8871,-3.8871,-3.8871,-3.8816,-3.8816,-3.8871,-3.8871,-3.8931,-3.8985,-3.8876,-3.8816,-3.8903,-3.8871,-3.8871,-3.8871,-3.8871,-3.8871,-3.8871,-3.8683,-3.8902,-3.9679,-4.0274,-4.0989,-4.1827,-4.245,-4.2744,-4.2744,-4.2744,-4.2649,-4.2586,-4.2586,-4.2586,-4.2651,-4.3072,-4.3913,-4.4852,-4.5241,-4.6018,-4.6892,-4.1871,-4.1378,-4.0894,-4.0894,-4.0894,-4.0894,-4.0894,-4.0894,-4.0894,-4.0894,-4.0894,-4.0894,-4.0894,-4.0894,-4.0894,-4.0894,-4.0894,-4.0894,-4.0894,-4.0894,-4.0894,-4.0894,-4.0894,-4.0894,-4.0894,-4.0894,-4.0894,-4.0894,-4.017,-3.9802,-3.9802,-3.9112,-3.8801,-3.8801,-3.8732,-3.872,-3.872,-3.8651,-3.8772,-3.9025,-3.9046,-3.9287,-3.956,-3.9175,-3.9089,-3.9132,-3.8651,-3.8554,-3.8648,-3.8723,-3.8998,-3.9315,-3.9315,-3.9315,-3.9315,-3.9315,-3.9315,-3.9315,-3.9315,-3.9315,-3.9315,-3.9315,-3.9315,-3.9315,-3.9315,-3.9315,-3.9315,-3.9315,-3.9315,-3.9315,-3.9315,-3.9315,-3.9315,-3.9315,-3.9315,-3.9228,-3.9067,-3.904,-3.904,-3.904,-3.8931,-3.8903,-3.9007,-3.904,-3.9094,-3.9315,-3.9013,-3.8903,-3.904,-3.904,-3.904,-3.904,-3.904,-3.904,-3.904,-3.8931,-3.9242,-4.0001,-4.0511,-4.1229,-4.2196,-4.2698,-4.293,-4.293,-4.293,-4.2806,-4.2618,-4.2618,-4.265,-4.2586,-4.2586,-4.3524,-4.4787,-4.4787,-4.5662,-4.6892,-4.1136,-4.0998,-4.0894,-4.0894,-4.0894,-4.0894,-4.0894,-4.0894,-4.0894,-4.0894,-4.0894,-4.0894,-4.0894,-4.0894,-4.0894,-4.0894,-4.0894,-4.0894,-4.0894,-4.0894,-4.0894,-4.0894,-4.0894,-4.0894,-4.0894,-4.0894,-4.0894,-4.0894,-4.0722,-4.0653,-4.0653,-4.048,-4.0411,-4.0377,-3.9733,-3.9457,-3.9445,-3.9059,-3.896,-3.9046,-3.9335,-3.9519,-3.9671,-4.0334,-4.0418,-4.0192,-4.0622,-4.0317,-3.9598,-3.928,-3.9229,-3.9315,-3.9315,-3.9315,-3.9315,-3.9315,-3.9315,-3.9315,-3.9315,-3.9315,-3.9315,-3.9315,-3.9315,-3.9315,-3.9315,-3.9315,-3.9315,-3.9315,-3.9315,-3.9315,-3.9315,-3.9315,-3.9315,-3.9315,-3.9315,-3.9255,-3.9228,-3.9228,-3.9228,-3.9228,-3.9202,-3.9202,-3.9228,-3.9228,-3.9228,-3.9315,-3.9228,-3.9202,-3.9228,-3.9228,-3.9228,-3.9228,-3.9228,-3.9228,-3.9228,-3.9202,-3.9726,-4.0754,-4.0889,-4.1609,-4.2883,-4.3017,-4.3052,-4.3052,-4.3052,-4.2959,-4.2837,-4.2837,-4.2744,-4.2586,-4.2586,-4.3524,-4.4787,-4.4787,-4.5662,-4.6892,-4.2068,-4.1688,-4.1309,-4.0963,-4.0894,-4.0894,-4.0894,-4.0894,-4.0894,-4.0894,-4.0894,-4.0894,-4.0894,-4.0894,-4.0894,-4.0894,-4.0894,-4.0894,-4.0894,-4.0894,-4.0894,-4.0894,-4.0894,-4.0894,-4.0894,-4.0894,-4.0894,-4.0894,-4.0894,-4.0894,-4.0894,-4.0894,-4.0894,-4.0894,-4.0562,-4.0435,-4.04,-4.0289,-4.0302,-4.0397,-4.063,-4.0795,-4.0933,-4.1462,-4.1502,-4.135,-4.1754,-4.1366,-4.0648,-4.017,-3.985,-3.9644,-3.9644,-3.9494,-3.9315,-3.9315,-3.9315,-3.9315,-3.9315,-3.9315,-3.9315,-3.9315,-3.9315,-3.9315,-3.9315,-3.9315,-3.9315,-3.9315,-3.9315,-3.9315,-3.9315,-3.9315,-3.9315,-3.9315,-3.9315,-3.9315,-3.9315,-3.9315,-3.9315,-3.9315,-3.9315,-3.9315,-3.9315,-3.9315,-3.9315,-3.9315,-3.9315,-3.9315,-3.9315,-3.9315,-3.9315,-3.9315,-3.9315,-3.9315,-3.9315,-3.9647,-4.0293,-4.1214,-4.1128,-4.1884,-4.3325,-4.3265,-4.3235,-4.3235,-4.3235,-4.3143,-4.2959,-4.293,-4.2837,-4.2776,-4.3006,-4.3816,-4.482,-4.5144,-4.5953,-4.6892,-4.331,-4.2551,-4.1826,-4.1205,-4.0998,-4.0894,-4.0894,-4.0894,-4.0894,-4.0894,-4.0894,-4.0894,-4.0894,-4.0894,-4.0894,-4.0894,-4.0894,-4.0894,-4.0894,-4.0894,-4.0894,-4.0894,-4.0894,-4.0894,-4.0894,-4.0894,-4.0894,-4.0894,-4.0894,-4.0894,-4.0894,-4.0894,-4.0918,-4.0965,-4.1117,-4.1232,-4.1277,-4.156,-4.1758,-4.1895,-4.1938,-4.2121,-4.2308,-4.2308,-4.2308,-4.2308,-4.2308,-4.1959,-4.1445,-4.0966,-4.0514,-4.0145,-4.0145,-3.9791,-3.9415,-3.9415,-3.9362,-3.9315,-3.9315,-3.9315,-3.9315,-3.9315,-3.9315,-3.9315,-3.9315,-3.9315,-3.9315,-3.9315,-3.9315,-3.9315,-3.9315,-3.9315,-3.9315,-3.9315,-3.9315,-3.9315,-3.9315,-3.9315,-3.9315,-3.9315,-3.9315,-3.9315,-3.9315,-3.9315,-3.9315,-3.9315,-3.9315,-3.9315,-3.9315,-3.9315,-3.9315,-3.9315,-3.9315,-3.9315,-3.9315,-4.0044,-4.0746,-4.1409,-4.1432,-4.2191,-4.3598,-4.3479,-4.3449,-4.3449,-4.3449,-4.3325,-4.3143,-4.3054,-4.2961,-4.2934,-4.3523,-4.4205,-4.4885,-4.5694,-4.6374,-4.6892,-4.3207,-4.2551,-4.1964,-4.1895,-4.1343,-4.0894,-4.0894,-4.0894,-4.0894,-4.0894,-4.0894,-4.0894,-4.0894,-4.0894,-4.0894,-4.0894,-4.0894,-4.0894,-4.0894,-4.0894,-4.0894,-4.0894,-4.0894,-4.0894,-4.0894,-4.0894,-4.0894,-4.0894,-4.0894,-4.0894,-4.0894,-4.0894,-4.1012,-4.1163,-4.1186,-4.1323,-4.156,-4.1766,-4.1874,-4.1917,-4.2163,-4.2267,-4.2308,-4.2308,-4.2308,-4.2308,-4.2308,-4.1959,-4.1445,-4.0966,-4.0754,-4.0707,-4.0707,-4.0343,-3.9919,-3.9919,-3.9618,-3.9315,-3.9315,-3.9315,-3.9315,-3.9315,-3.9315,-3.9315,-3.9315,-3.9315,-3.9315,-3.9315,-3.9315,-3.9315,-3.9315,-3.9315,-3.9315,-3.9315,-3.9315,-3.9315,-3.9315,-3.9315,-3.9315,-3.9315,-3.9315,-3.9315,-3.9315,-3.9315,-3.9315,-3.9315,-3.9315,-3.9315,-3.9315,-3.9315,-3.9315,-3.9315,-3.9315,-3.9315,-3.9315,-4.0044,-4.0746,-4.1413,-4.2042,-4.2771,-4.3598,-4.3598,-4.3568,-4.3568,-4.3568,-4.3509,-4.3358,-4.3358,-4.3176,-4.2965,-4.3682,-4.4302,-4.4949,-4.6245,-4.6795,-4.6892,-4.3276,-4.2896,-4.2689,-4.2689,-4.2033,-4.1516,-4.1516,-4.117,-4.0894,-4.0894,-4.0894,-4.0894,-4.0894,-4.0894,-4.0894,-4.0894,-4.0894,-4.0894,-4.0894,-4.0894,-4.0894,-4.0894,-4.0894,-4.0894,-4.0894,-4.0894,-4.0894,-4.0894,-4.0894,-4.0894,-4.0894,-4.1035,-4.1117,-4.1209,-4.148,-4.1657,-4.1766,-4.2037,-4.2107,-4.2142,-4.2246,-4.2308,-4.2308,-4.2308,-4.2308,-4.2308,-4.2308,-4.2163,-4.1917,-4.1723,-4.1445,-4.1197,-4.1197,-4.0838,-4.0466,-4.0466,-4.0095,-3.984,-4.0578,-4.0585,-4.0531,-4.1239,-4.1087,-4.0841,-4.0968,-4.0627,-4.012,-3.9435,-3.9315,-3.9315,-3.9315,-3.9315,-3.9315,-3.9315,-3.9315,-3.9315,-3.9315,-3.9315,-3.9315,-3.9315,-3.9315,-3.9315,-3.9315,-3.9315,-3.9315,-3.9315,-3.9315,-3.9315,-3.9315,-3.9315,-3.9315,-3.9315,-3.9315,-3.9514,-3.9912,-4.0613,-4.1309,-4.2009,-4.2738,-4.3267,-4.3598,-4.3598,-4.3598,-4.3598,-4.3598,-4.3568,-4.3509,-4.3449,-4.3497,-4.3707,-4.4459,-4.531,-4.6219,-4.6734,-4.6892,-4.6892]},{"header":{"parameterUnit":"m.s-1","parameterCategory":1,"la1":30.6,"la2":28.766,"lo1":-90.7593,"lo2":-88.6598,"dy":0.0162,"dx":0.0183,"nx":116,"ny":114,"refTime":"2024-02-07T18:00:00:Z","depth":0,"parameterNumber":3,"parameterNumberName":"V-component_of_WINDS"},"data":[0.0,0.0,0.0,0.0,0.0,0.0,0.0,0.0,0.0,0.0,0.0,0.0,0.0,0.0,0.0,0.0,0.0,0.0,0.0,0.0,0.0,0.0,0.0,0.0,0.0,0.0,0.0,0.0,0.0,0.0,0.0,0.0,0.0,0.0,0.0,0.0,0.0,0.0,0.0,0.0,0.0,0.0,0.0,0.0,0.0,0.0,0.0,0.0,0.0,0.0,0.0,0.0,0.0,0.0,0.0,0.0,0.0,0.0,0.0,0.0,0.0,0.0,0.0,0.0,0.0,0.0,0.0,0.0,0.0,0.0,0.0,0.0,0.0,0.0,0.0,0.0,0.0,0.0,0.0,0.0,0.0,0.0,0.0,0.0,0.0,0.0,0.0,0.0,0.0,0.0,0.0,0.0,0.0,0.0,0.0,0.0,0.0,0.0,0.0,0.0,0.0,0.0,0.0,0.0,0.0,0.0,0.0,0.0,0.0,0.0,0.0,0.0,0.0,0.0,0.0,0.0,0.0,0.0,0.0,0.0,0.0,0.0,0.0,0.0,0.0,0.0,0.0,0.0,0.0,0.0,0.0,0.0,0.0,0.0,0.0,0.0,0.0,0.0,0.0,0.0,0.0,0.0,0.0,0.0,0.0,0.0,0.0,0.0,0.0,0.0,0.0,0.0,0.0,0.0,0.0,0.0,0.0,0.0,0.0,0.0,0.0,0.0,0.0,0.0,0.0,0.0,0.0,0.0,0.0,0.0,0.0,0.0,0.0,0.0,0.0,0.0,0.0,0.0,0.0,0.0,0.0,0.0,0.0,0.0,0.0,0.0,0.0,0.0,0.0,0.0,0.0,0.0,0.0,0.0,0.0,0.0,0.0,0.0,0.0,0.0,0.0,0.0,0.0,0.0,0.0,0.0,0.0,0.0,0.0,0.0,0.0,0.0,0.0,0.0,0.0,0.0,0.0,0.0,0.0,0.0,0.0,0.0,0.0,0.0,0.0,0.0,0.0,0.0,0.0,0.0,0.0,0.0,0.0,0.0,0.0,0.0,0.0,0.0,0.0,0.0,0.0,0.0,0.0,0.0,0.0,0.0,0.0,0.0,0.0,0.0,0.0,0.0,0.0,0.0,0.0,0.0,0.0,0.0,0.0,0.0,0.0,0.0,0.0,0.0,0.0,0.0,0.0,0.0,0.0,0.0,0.0,0.0,0.0,0.0,0.0,0.0,0.0,0.0,0.0,0.0,0.0,0.0,0.0,0.0,0.0,0.0,0.0,0.0,0.0,0.0,0.0,0.0,0.0,0.0,0.0,0.0,0.0,0.0,0.0,0.0,0.0,0.0,0.0,0.0,0.0,0.0,0.0,0.0,0.0,0.0,0.0,0.0,0.0,0.0,0.0,0.0,0.0,0.0,0.0,0.0,0.0,0.0,0.0,0.0,0.0,0.0,0.0,0.0,0.0,0.0,0.0,0.0,0.0,0.0,0.0,0.0,0.0,0.0,0.0,0.0,0.0,0.0,0.0,0.0,0.0,0.0,0.0,0.0,0.0,0.0,0.0,0.0,0.0,0.0,0.0,0.0,0.0,0.0,0.0,0.0,0.0,0.0,0.0,0.0,0.0,0.0,0.0,0.0,0.0,0.0,0.0,0.0,0.0,0.0,0.0,0.0,0.0,0.0,0.0,0.0,0.0,0.0,0.0,0.0,0.0,0.0,0.0,0.0,0.0,0.0,0.0,0.0,0.0,0.0,0.0,0.0,0.0,0.0,0.0,0.0,0.0,0.0,0.0,0.0,0.0,0.0,0.0,0.0,0.0,0.0,0.0,0.0,0.0,0.0,0.0,0.0,0.0,0.0,0.0,0.0,0.0,0.0,0.0,0.0,0.0,0.0,0.0,0.0,0.0,0.0,0.0,0.0,0.0,0.0,0.0,0.0,0.0,0.0,0.0,0.0,0.0,0.0,0.0,0.0,0.0,0.0,0.0,0.0,0.0,0.0,0.0,0.0,0.0,0.0,0.0,0.0,0.0,0.0,0.0,0.0,0.0,0.0,0.0,0.0,0.0,0.0,0.0,0.0,0.0,0.0,0.0,0.0,0.0,0.0,0.0,0.0,0.0,0.0,0.0,0.0,0.0,0.0,0.0,0.0,0.0,0.0,0.0,0.0,0.0,0.0,0.0,0.0,0.0,0.0,0.0,0.0,0.0,0.0,0.0,0.0,0.0,0.0,0.0,0.0,0.0,0.0,0.0,0.0,0.0,0.0,0.0,0.0,0.0,0.0,0.0,0.0,0.0,0.0,0.0,0.0,0.0,0.0,0.0,0.0,0.0,0.0,0.0,0.0,0.0,0.0,0.0,0.0,0.0,0.0,0.0,0.0,0.0,0.0,0.0,0.0,0.0,0.0,0.0,0.0,0.0,0.0,0.0,0.0,0.0,0.0,0.0,0.0,0.0,0.0,0.0,0.0,0.0,0.0,0.0,0.0,0.0,0.0,0.0,0.0,0.0,0.0,0.0,0.0,0.0,0.0,0.0,0.0,0.0,0.0,0.0,0.0,0.0,0.0,0.0,0.0,0.0,0.0,0.0,0.0,0.0,0.0,0.0,0.0,0.0,0.0,0.0,0.0,0.0,0.0,0.0,0.0,0.0,0.0,0.0,0.0,0.0,0.0,0.0,0.0,0.0,0.0,0.0,0.0,0.0,0.0,0.0,0.0,0.0,0.0,0.0,0.0,0.0,0.0,0.0,0.0,0.0,0.0,0.0,0.0,0.0,0.0,0.0,0.0,0.0,0.0,0.0,0.0,0.0,0.0,0.0,0.0,0.0,0.0,0.0,0.0,0.0,0.0,0.0,0.0,0.0,0.0,0.0,0.0,0.0,0.0,0.0,0.0,0.0,0.0,0.0,0.0,0.0,0.0,0.0,0.0,0.0,0.0,0.0,0.0,0.0,0.0,0.0,0.0,0.0,0.0,0.0,0.0,0.0,0.0,0.0,0.0,0.0,0.0,0.0,0.0,0.0,0.0,0.0,0.0,0.0,0.0,0.0,0.0,0.0,0.0,0.0,0.0,0.0,0.0,0.0,0.0,0.0,0.0,0.0,0.0,0.0,0.0,0.0,0.0,0.0,0.0,0.0,0.0,0.0,0.0,0.0,0.0,0.0,0.0,0.0,0.0,0.0,0.0,0.0,0.0,0.0,0.0,0.0,0.0,0.0,0.0,0.0,0.0,0.0,0.0,0.0,0.0,0.0,0.0,0.0,0.0,0.0,0.0,0.0,0.0,0.0,0.0,0.0,0.0,0.0,0.0,0.0,0.0,0.0,0.0,0.0,0.0,0.0,0.0,0.0,0.0,0.0,0.0,0.0,0.0,0.0,0.0,0.0,0.0,0.0,0.0,0.0,0.0,0.0,0.0,0.0,0.0,0.0,0.0,0.0,0.0,0.0,0.0,0.0,0.0,0.0,0.0,0.0,0.0,0.0,0.0,0.0,0.0,0.0,0.0,0.0,0.0,0.0,0.0,0.0,0.0,0.0,0.0,0.0,0.0,0.0,0.0,0.0,0.0,0.0,0.0,0.0,0.0,0.0,0.0,0.0,0.0,0.0,0.0,0.0,0.0,0.0,0.0,0.0,0.0,0.0,0.0,0.0,0.0,0.0,0.0,0.0,0.0,0.0,0.0,0.0,0.0,0.0,0.0,0.0,0.0,0.0,0.0,0.0,0.0,0.0,0.0,0.0,0.0,0.0,0.0,0.0,0.0,0.0,0.0,0.0,0.0,0.0,0.0,0.0,0.0,0.0,0.0,0.0,0.0,0.0,0.0,0.0,0.0,0.0,0.0,0.0,0.0,0.0,0.0,0.0,0.0,0.0,0.0,0.0,0.0,0.0,0.0,0.0,0.0,0.0,0.0,0.0,0.0,0.0,0.0,0.0,0.0,0.0,0.0,0.0,0.0,0.0,0.0,0.0,0.0,0.0,0.0,0.0,0.0,0.0,0.0,0.0,0.0,0.0,0.0,0.0,0.0,0.0,0.0,0.0,0.0,0.0,0.0,0.0,0.0,0.0,0.0,0.0,0.0,0.0,0.0,0.0,0.0,0.0,0.0,0.0,0.0,0.0,0.0,0.0,0.0,0.0,0.0,0.0,0.0,0.0,0.0,0.0,0.0,0.0,0.0,0.0,0.0,0.0,0.0,0.0,0.0,0.0,0.0,0.0,0.0,0.0,0.0,0.0,0.0,0.0,0.0,0.0,0.0,0.0,0.0,0.0,0.0,0.0,0.0,0.0,0.0,0.0,0.0,0.0,0.0,0.0,0.0,0.0,0.0,0.0,0.0,0.0,0.0,0.0,0.0,0.0,0.0,0.0,0.0,0.0,0.0,0.0,0.0,0.0,0.0,0.0,0.0,0.0,0.0,0.0,0.0,0.0,0.0,0.0,0.0,0.0,0.0,0.0,0.0,0.0,0.0,0.0,0.0,0.0,0.0,0.0,0.0,0.0,0.0,0.0,0.0,0.0,0.0,0.0,0.0,0.0,0.0,0.0,0.0,0.0,0.0,0.0,0.0,0.0,0.0,0.0,0.0,0.0,0.0,0.0,0.0,0.0,0.0,0.0,0.0,0.0,0.0,0.0,0.0,0.0,0.0,0.0,0.0,0.0,0.0,0.0,0.0,0.0,0.0,0.0,0.0,0.0,0.0,0.0,0.0,0.0,0.0,0.0,0.0,0.0,0.0,0.0,0.0,0.0,0.0,0.0,0.0,0.0,0.0,0.0,0.0,0.0,0.0,0.0,0.0,0.0,0.0,0.0,0.0,0.0,0.0,0.0,0.0,0.0,0.0,0.0,0.0,0.0,0.0,0.0,0.0,0.0,0.0,0.0,0.0,0.0,0.0,0.0,0.0,0.0,0.0,0.0,0.0,0.0,0.0,0.0,0.0,0.0,0.0,0.0,0.0,0.0,0.0,0.0,0.0,0.0,0.0,0.0,0.0,0.0,0.0,0.0,0.0,0.0,0.0,0.0,0.0,0.0,0.0,0.0,0.0,0.0,0.0,0.0,0.0,0.0,0.0,0.0,0.0,0.0,0.0,0.0,0.0,0.0,0.0,0.0,0.0,0.0,0.0,0.0,0.0,0.0,0.0,0.0,0.0,0.0,0.0,0.0,0.0,0.0,0.0,0.0,0.0,0.0,0.0,0.0,0.0,0.0,0.0,0.0,0.0,0.0,0.0,0.0,0.0,0.0,0.0,0.0,0.0,0.0,0.0,0.0,0.0,0.0,0.0,0.0,0.0,0.0,0.0,0.0,0.0,0.0,0.0,0.0,0.0,0.0,0.0,0.0,0.0,0.0,0.0,0.0,0.0,0.0,0.0,0.0,0.0,0.0,0.0,0.0,0.0,0.0,0.0,0.0,0.0,0.0,0.0,0.0,0.0,0.0,0.0,0.0,0.0,0.0,0.0,0.0,0.0,0.0,0.0,0.0,0.0,0.0,0.0,0.0,0.0,0.0,0.0,0.0,0.0,0.0,0.0,0.0,0.0,0.0,0.0,0.0,0.0,0.0,0.0,0.0,0.0,0.0,0.0,0.0,0.0,0.0,0.0,0.0,0.0,0.0,0.0,0.0,0.0,0.0,0.0,0.0,0.0,0.0,0.0,0.0,0.0,0.0,0.0,0.0,0.0,0.0,0.0,0.0,0.0,0.0,0.0,0.0,0.0,0.0,0.0,0.0,0.0,0.0,0.0,0.0,0.0,0.0,0.0,0.0,0.0,0.0,0.0,0.0,0.0,0.0,0.0,0.0,0.0,0.0,0.0,0.0,0.0,0.0,0.0,0.0,0.0,0.0,0.0,0.0,0.0,0.0,0.0,0.0,0.0,0.0,0.0,0.0,0.0,0.0,0.0,0.0,0.0,0.0,0.0,0.0,0.0,0.0,0.0,0.0,0.0,0.0,0.0,0.0,0.0,0.0,0.0,0.0,0.0,0.0,0.0,0.0,0.0,0.0,0.0,0.0,0.0,0.0,0.0,0.0,0.0,0.0,0.0,0.0,0.0,0.0,0.0,0.0,0.0,0.0,0.0,0.0,0.0,0.0,0.0,0.0,0.0,0.0,0.0,2.1699,2.1797,0.0,0.0,0.0,0.0,0.0,0.0,0.0,0.0,0.0,0.0,0.0,0.0,0.0,0.0,0.0,0.0,0.0,0.0,0.0,0.0,0.0,0.0,0.0,0.0,0.0,0.0,1.541,1.541,1.541,1.541,0.0,0.0,0.0,0.0,1.5825,1.5825,1.6243,1.7112,1.8003,1.9268,2.0889,2.197,2.239,2.2173,0.0,0.0,0.0,0.0,0.0,0.0,0.0,0.0,0.0,0.0,0.0,0.0,0.0,0.0,0.0,0.0,0.0,0.0,0.0,0.0,0.0,0.0,0.0,0.0,0.0,0.0,0.0,0.0,0.0,0.0,0.0,0.0,0.0,0.0,0.0,0.0,0.0,0.0,0.0,0.0,0.0,0.0,0.0,0.0,0.0,0.0,0.0,0.0,0.0,0.0,0.0,0.0,0.0,0.0,0.0,0.0,0.0,0.0,0.0,0.0,0.0,0.0,0.0,0.0,0.0,0.0,0.0,0.0,0.0,0.0,2.2461,2.2305,0.0,0.0,0.0,0.0,0.0,0.0,0.0,0.0,0.0,0.0,0.0,0.0,0.0,0.0,0.0,0.0,0.0,0.0,0.0,0.0,0.0,0.0,0.0,1.541,1.541,1.541,1.541,1.541,1.541,1.541,1.541,1.541,1.5497,1.5796,1.6283,1.6488,1.712,1.8143,1.932,2.1235,2.3833,2.4771,2.4578,2.34,2.2847,0.0,0.0,0.0,0.0,0.0,0.0,0.0,0.0,0.0,0.0,0.0,0.0,0.0,0.0,0.0,0.0,0.0,0.0,0.0,0.0,0.0,0.0,0.0,0.0,0.0,0.0,0.0,0.0,0.0,0.0,0.0,0.0,0.0,0.0,0.0,0.0,0.0,0.0,0.0,0.0,0.0,0.0,0.0,0.0,0.0,0.0,0.0,0.0,0.0,0.0,0.0,0.0,0.0,0.0,0.0,0.0,0.0,0.0,0.0,0.0,0.0,0.0,0.0,2.3848,2.4238,2.4648,2.4648,2.4648,2.459,2.3535,2.3101,2.3218,2.3296,0.0,0.0,0.0,0.0,0.0,0.0,0.0,0.0,0.0,0.0,0.0,0.0,0.0,0.0,0.0,0.0,0.0,0.0,0.0,0.0,0.0,1.541,1.541,1.541,1.541,1.541,1.541,1.541,1.541,1.541,1.5882,1.6226,1.6312,1.7263,1.8105,1.8794,2.2155,2.4917,2.7103,2.7705,2.8114,2.8234,2.5444,2.4952,2.6129,0.0,0.0,0.0,0.0,0.0,0.0,0.0,0.0,0.0,0.0,0.0,0.0,0.0,0.0,0.0,0.0,0.0,0.0,0.0,0.0,0.0,0.0,0.0,0.0,0.0,0.0,0.0,0.0,0.0,0.0,0.0,0.0,0.0,0.0,0.0,0.0,0.0,0.0,0.0,0.0,0.0,2.1112,2.1112,0.0,0.0,0.0,0.0,0.0,0.0,0.0,0.0,0.0,0.0,0.0,0.0,0.0,2.3247,2.3613,2.3984,2.4394,2.4824,2.491,2.5137,2.5518,2.5518,2.5518,2.5499,2.5343,0.0,2.373,2.4102,0.0,0.0,0.0,0.0,0.0,0.0,0.0,0.0,0.0,0.0,0.0,0.0,0.0,0.0,0.0,0.0,0.0,0.0,0.0,0.0,0.0,1.623,1.6523,1.6523,1.7617,1.7695,1.6219,1.6804,1.6648,1.5469,1.5671,1.6112,1.6771,1.7585,1.9321,2.2036,2.5493,2.7993,2.9508,3.035,3.1023,3.1456,2.9436,2.7753,2.6382,2.4915,0.0,0.0,0.0,0.0,0.0,0.0,0.0,0.0,0.0,0.0,0.0,0.0,0.0,0.0,0.0,0.0,0.0,0.0,0.0,0.0,0.0,0.0,0.0,0.0,0.0,0.0,0.0,0.0,0.0,0.0,0.0,0.0,0.0,0.0,0.0,0.0,0.0,0.0,0.0,2.1073,2.1288,2.1562,2.1758,2.1816,0.0,0.0,0.0,0.0,0.0,0.0,0.0,0.0,0.0,2.3803,2.4102,2.4362,2.4558,2.4687,2.5137,2.5801,2.5801,2.6035,2.6415,2.6415,2.6415,2.6465,2.6719,2.623,2.5215,2.4648,2.4062,2.3477,0.0,0.0,0.0,0.0,2.3257,2.3496,0.0,0.0,0.0,0.0,0.0,0.0,0.0,0.0,0.0,0.0,0.0,0.0,1.632,1.7318,1.8003,1.8218,1.9686,1.9707,1.7642,1.7896,1.7389,1.579,1.582,1.6283,1.7163,1.8695,2.1536,2.5733,2.8691,3.0783,3.2106,3.3068,3.3789,3.4246,3.302,3.0783,2.7849,2.6358,2.5131,2.4155,0.0,0.0,0.0,0.0,0.0,0.0,0.0,0.0,0.0,0.0,0.0,0.0,0.0,0.0,0.0,0.0,0.0,0.0,0.0,0.0,0.0,0.0,0.0,0.0,0.0,0.0,0.0,0.0,0.0,0.0,0.0,0.0,0.0,0.0,0.0,0.0,0.0,2.1385,2.1639,2.2012,2.2246,2.2285,0.0,0.0,0.0,0.0,0.0,0.0,2.3413,2.4394,2.4824,2.459,2.5215,2.5556,2.5458,2.5508,2.5957,2.6719,2.6719,2.6934,2.7344,2.7344,2.7402,2.7519,2.7734,2.7461,2.6777,2.5469,2.4609,2.4082,2.3633,2.3413,2.3413,2.3413,2.3672,2.3945,0.0,0.0,0.0,0.0,0.0,0.0,0.0,0.0,0.0,0.0,0.0,1.5879,1.7168,1.8437,1.9549,2.037,2.0546,2.0332,1.9785,1.7876,1.6746,1.6629,1.6963,1.7135,1.7191,2.1339,2.5336,2.9051,3.1264,3.338,3.54,3.5954,3.6483,3.6916,3.5376,3.403,3.2659,2.8531,2.7066,2.7224,2.4362,0.0,0.0,0.0,0.0,0.0,0.0,0.0,0.0,0.0,0.0,0.0,0.0,0.0,0.0,0.0,0.0,0.0,0.0,0.0,0.0,0.0,0.0,0.0,0.0,0.0,0.0,0.0,0.0,0.0,0.0,0.0,0.0,0.0,0.0,0.0,0.0,0.0,0.0,2.248,2.3203,0.0,0.0,0.0,0.0,2.3042,2.3848,2.4336,2.4355,2.5586,2.5898,2.5106,2.625,2.6719,2.6328,2.6719,2.7148,2.765,2.765,2.7832,2.8223,2.8223,2.8437,2.8809,2.8418,2.8242,2.8105,2.6816,2.5781,2.5008,2.4531,2.4355,2.4355,2.4355,2.4355,2.4375,0.0,0.0,0.0,0.0,0.0,0.0,0.0,0.0,1.3802,1.4075,1.5342,1.6921,1.8809,2.0664,2.2227,2.3403,2.403,2.3535,2.1699,2.0078,1.8828,1.7954,1.775,1.8812,2.1339,2.4294,2.7464,3.0807,3.3308,3.5232,3.6651,3.718,3.7517,3.7661,3.6747,3.5954,3.504,3.112,2.8674,2.722,2.5449,2.4124,0.0,0.0,0.0,0.0,0.0,0.0,0.0,0.0,0.0,0.0,0.0,0.0,0.0,0.0,0.0,0.0,0.0,0.0,0.0,0.0,0.0,0.0,0.0,0.0,0.0,0.0,0.0,0.0,0.0,0.0,0.0,0.0,0.0,0.0,0.0,0.0,0.0,2.3711,2.4512,0.0,2.4219,2.4297,2.4492,2.4738,2.4824,2.5332,2.6445,2.7004,2.7121,2.6789,2.7441,2.7637,2.7258,2.7363,2.7656,2.8066,2.834,2.8555,2.8711,2.8984,2.9043,2.8926,2.9062,2.8965,2.8633,2.791,2.6953,2.5879,2.543,2.5226,2.5226,2.5226,2.5449,2.5644,0.0,0.0,0.0,0.0,0.0,0.0,0.0,0.0,1.3802,1.4075,1.6005,1.811,2.0099,2.2676,2.4746,2.6035,2.6289,2.5469,2.3301,2.1113,1.9504,1.8537,1.8838,2.0849,2.4707,2.7057,2.9821,3.2996,3.5112,3.6603,3.7469,3.7805,3.7974,3.795,3.7421,3.6988,3.6483,3.3669,3.0917,2.8348,2.6797,2.5735,2.4802,0.0,0.0,0.0,0.0,0.0,0.0,0.0,0.0,0.0,0.0,0.0,0.0,0.0,0.0,0.0,0.0,0.0,0.0,0.0,0.0,0.0,0.0,0.0,0.0,0.0,0.0,0.0,0.0,0.0,0.0,0.0,0.0,0.0,0.0,2.3418,2.4434,2.5019,2.5859,2.6152,2.5566,2.5556,2.5644,2.5937,2.582,2.6289,2.765,2.793,2.8086,2.8086,2.8496,2.8516,2.8086,2.8086,2.8223,2.8516,2.8789,2.9004,2.9141,2.9434,2.9492,2.9355,2.9512,2.9492,2.9316,2.8906,2.8223,2.7383,2.6504,2.625,2.6367,2.623,2.6348,2.6562,0.0,0.0,0.0,0.0,0.0,0.0,0.0,1.3594,1.4114,1.4133,1.6765,1.9319,2.1093,2.4394,2.6953,2.8242,2.7148,2.582,2.4512,2.0742,1.8537,1.8441,2.0328,2.3149,2.697,2.9605,3.2466,3.5641,3.6675,3.7469,3.7974,3.7974,3.7974,3.795,3.7445,3.7204,3.7156,3.6098,3.3885,3.085,2.8504,2.7738,2.7794,0.0,0.0,0.0,0.0,0.0,0.0,0.0,0.0,0.0,0.0,0.0,0.0,0.0,0.0,0.0,0.0,0.0,0.0,0.0,0.0,0.0,0.0,0.0,0.0,0.0,0.0,0.0,0.0,0.0,0.0,0.0,0.0,0.0,2.3247,2.4362,2.5517,2.6348,2.7207,2.7454,2.6543,2.6465,2.6465,2.6484,2.6836,2.7266,2.7767,2.8496,2.8945,2.8945,2.9355,2.9375,2.8945,2.8945,2.8945,2.8945,2.8945,2.918,2.959,2.9609,2.9824,3.0176,2.9785,2.9824,3.0156,2.9766,2.9646,2.9434,2.7734,2.7344,2.7728,2.7226,2.7051,2.7031,0.0,0.0,0.0,0.0,0.0,0.0,1.2915,1.3594,1.4211,1.457,1.7773,2.082,2.2871,2.5898,2.8281,2.957,2.7656,2.582,2.4512,2.0742,1.9318,2.0914,2.2417,2.544,3.0278,3.148,3.3404,3.6194,3.6867,3.7469,3.7974,3.7974,3.7974,3.7974,3.7829,3.7757,3.7733,3.7036,3.6026,3.4607,3.1709,2.982,2.8568,0.0,0.0,0.0,0.0,0.0,0.0,0.0,0.0,0.0,0.0,0.0,0.0,0.0,0.0,0.0,0.0,0.0,0.0,0.0,0.0,0.0,0.0,0.0,0.0,0.0,0.0,0.0,0.0,0.0,0.0,0.0,2.3223,2.4062,2.4082,2.5742,2.7148,2.7695,2.8516,2.8828,2.8281,2.8223,2.8359,2.8672,2.8223,2.8398,2.9453,2.9434,2.9394,2.9394,2.9805,2.9824,2.9394,2.9394,2.9394,2.9394,2.9707,2.9902,3.0039,3.0371,3.041,3.0215,3.043,3.041,3.0176,3.0078,3.0215,3.0391,2.8945,2.8652,2.9019,2.8203,2.7754,2.7578,0.0,0.0,0.0,0.0,0.0,0.0,1.2915,1.3594,1.427,1.4727,1.8511,2.1738,2.334,2.6211,2.834,2.9062,2.6797,2.4668,2.3184,2.0523,2.0029,2.244,2.4652,2.7911,3.2274,3.3525,3.5088,3.706,3.7372,3.7685,3.7974,3.7974,3.7974,3.7974,3.7974,3.7974,3.795,3.7661,3.7348,3.6892,3.4799,3.3109,3.1549,2.9869,2.9278,2.9212,2.7992,2.8166,2.8582,2.6761,0.0,0.0,0.0,0.0,0.0,0.0,0.0,0.0,0.0,0.0,0.0,0.0,0.0,0.0,0.0,0.0,0.0,0.0,0.0,0.0,0.0,0.0,0.0,0.0,2.4394,2.5488,2.6211,2.7402,2.8418,2.9023,2.9707,2.9941,2.9492,2.9453,2.9492,2.957,2.9101,2.9238,3.0137,2.9805,2.9746,3.0117,3.0176,3.0078,2.9824,2.9824,2.9824,2.9844,3.0078,3.0293,3.0488,3.0762,3.0742,3.0508,3.0781,3.0742,3.0469,3.0273,3.0351,3.0488,0.0,0.0,0.0,0.0,2.8144,2.7988,0.0,0.0,0.0,0.0,0.0,0.0,1.2915,1.3594,1.427,1.4727,1.8848,2.2031,2.2789,2.5586,2.7454,2.7441,2.5117,2.293,2.1229,2.0229,2.0931,2.3674,2.6899,3.0188,3.3597,3.5372,3.686,3.7974,3.7974,3.8022,3.807,3.807,3.8094,3.8166,3.8166,3.8166,3.8166,3.8094,3.8118,3.8118,3.7517,3.6603,3.5352,3.3204,3.3153,3.4025,3.2131,3.1053,3.0309,2.8889,0.0,0.0,0.0,0.0,0.0,0.0,0.0,0.0,0.0,0.0,0.0,0.0,0.0,0.0,0.0,0.0,0.0,0.0,0.0,0.0,0.0,0.0,0.0,0.0,2.5781,2.7226,2.8848,2.9101,2.9414,3.0176,3.0644,3.0723,3.0312,3.0273,3.0117,2.9746,2.9668,2.9805,3.0176,2.9844,0.0,0.0,0.0,3.0273,3.0273,3.0273,3.0273,3.0273,3.0273,3.0488,3.0898,3.0898,3.0898,3.0898,3.0898,3.0859,3.0781,3.0371,3.0137,2.998,2.9277,2.916,2.9391,2.8633,2.834,2.8301,0.0,0.0,0.0,0.0,0.0,0.0,1.2915,1.3594,1.427,1.4727,1.8335,2.1016,2.1502,2.3984,2.5723,2.6074,2.4062,2.2168,2.082,2.0801,2.2673,2.6661,2.7979,3.0865,3.5711,3.5653,3.6356,3.7974,3.7974,3.8214,3.8671,3.8671,3.8888,3.9296,3.9296,3.9296,3.9272,3.8839,3.8912,3.92,3.8238,3.694,3.5569,3.5089,3.4559,3.3933,3.3162,3.3859,3.4703,3.193,3.1351,3.1332,2.8595,2.6406,0.0,0.0,0.0,0.0,0.0,0.0,0.0,0.0,0.0,0.0,0.0,0.0,0.0,0.0,0.0,0.0,0.0,0.0,0.0,2.5781,2.7363,2.8789,2.9805,3.0273,3.0566,3.0742,3.084,3.0859,3.0762,3.0762,3.0723,3.0644,3.0293,3.0117,3.0195,3.0117,3.0156,3.0332,3.0605,3.0762,3.0762,3.0762,3.0762,3.0762,3.0762,0.0,3.0898,3.0898,3.0898,3.0898,3.0898,3.0684,3.0332,3.0234,2.9785,2.918,2.9375,2.9082,2.8555,2.873,2.8574,2.834,0.0,0.0,0.0,0.0,0.0,0.0,1.2915,1.3594,1.427,1.4727,1.7598,1.9766,2.0215,2.1797,2.2812,2.2812,2.1405,2.0664,2.0879,2.1914,2.4287,2.8331,2.9647,3.1901,3.5268,3.6154,3.7012,3.7841,3.8496,3.8936,3.9224,3.9224,3.9224,3.9224,3.9489,3.9465,3.9224,3.9224,3.9224,3.9176,3.8623,3.7757,3.6819,3.7108,3.706,3.6723,3.593,3.6146,3.6435,3.4054,3.326,3.2923,3.0759,2.8338,2.6024,0.0,0.0,0.0,0.0,0.0,0.0,0.0,0.0,0.0,0.0,0.0,0.0,0.0,0.0,2.2171,2.2988,0.0,2.584,2.7129,2.8418,2.9551,3.043,3.0742,3.0898,3.0898,3.0898,3.0898,3.0898,3.0898,3.0898,3.0898,3.0684,3.0547,3.0547,3.0547,3.0547,3.0547,3.0762,3.0898,3.0898,3.0898,3.0898,3.0898,3.0898,3.0898,3.0898,3.0898,3.0898,3.0898,3.0898,3.0762,3.0527,3.0293,2.9824,2.9258,2.9492,2.9043,2.832,2.8535,2.8476,2.832,0.0,0.0,0.0,0.0,0.0,0.0,0.0,1.3535,1.4133,1.4609,1.6726,1.8364,1.875,1.9551,1.9902,1.9453,1.916,1.9709,2.1444,2.3301,2.5956,2.9663,3.1141,3.2719,3.4562,3.6124,3.7235,3.769,3.8751,3.9435,3.9753,3.9753,3.9585,3.9296,3.9729,3.9681,3.9296,3.9633,3.9585,3.9272,3.9056,3.8767,3.8479,3.8719,3.908,3.932,3.8214,3.7348,3.6531,3.5136,3.3982,3.2971,3.2151,3.0024,2.7586,2.5862,2.4168,0.0,0.0,0.0,0.0,0.0,0.0,0.0,0.0,1.9826,2.0664,2.1502,2.2695,2.3834,2.4648,2.5879,2.7148,2.834,2.9258,3.0078,3.0801,3.0898,3.0859,3.0762,3.084,3.0898,3.0898,3.0898,3.0898,3.0898,3.0898,3.0898,3.0898,3.0898,3.0898,3.0898,3.0898,3.0898,3.0898,3.0898,3.0898,3.0898,3.0898,3.0898,3.0898,3.0898,3.0898,3.0879,3.0801,3.0762,3.0723,3.0254,2.9883,2.9626,2.9626,2.9141,2.8535,2.8535,2.8496,2.8418,0.0,0.0,0.0,0.0,0.0,0.0,0.0,0.0,1.3704,1.4133,1.5771,1.6941,1.698,1.7793,1.8125,1.7715,1.9316,2.1074,2.2769,2.4922,2.779,3.1526,3.1632,3.2824,3.5483,3.4715,3.5402,3.769,3.786,3.8737,4.0306,4.0306,4.0523,4.0932,4.098,4.098,4.0884,4.0475,4.0547,4.0836,3.9898,3.9753,4.0018,3.9152,3.8864,3.8767,3.7661,3.6338,3.4943,3.4294,3.3452,3.2563,3.2442,3.1533,2.9928,2.7162,2.4972,2.2886,2.0358,1.8966,1.8404,1.9001,1.918,1.9629,0.0,2.1894,2.2461,2.332,2.4219,2.5165,2.6016,2.7207,2.8379,2.9333,3.0176,3.0781,3.0879,3.0898,3.0742,3.0332,3.0644,3.0898,3.0898,3.0898,3.0898,3.0898,3.0898,3.0898,3.0898,3.0898,3.0898,3.0898,3.0898,3.0898,3.0898,3.0898,3.0898,3.0898,3.0898,3.0898,3.0898,3.0898,3.0898,3.0859,3.0449,3.0273,3.0234,2.9824,2.9665,2.9626,2.9626,2.9567,2.9434,2.9434,2.918,2.8848,0.0,0.0,0.0,0.0,0.0,0.0,0.0,0.0,0.0,1.3724,1.4844,1.5605,1.5605,1.6133,1.6426,1.625,1.8203,2.0488,2.2925,2.541,2.8219,3.1574,3.2097,3.2811,3.4002,3.4491,3.5281,3.6362,3.7133,3.8245,3.9697,3.9697,4.0077,4.0739,4.1052,4.1004,4.0739,4.0812,4.0812,4.0667,3.9898,3.9561,3.9296,3.7589,3.6579,3.5927,3.5521,3.4751,0.0,3.2587,3.2106,3.201,3.201,3.0413,2.8222,2.6436,2.3979,2.1465,1.9889,1.9492,1.9531,1.9629,2.041,2.1426,2.2445,2.3144,2.3867,2.4746,2.5801,2.6828,2.7383,2.8535,2.9512,2.9883,3.0469,3.0898,3.0898,3.0664,3.0332,2.9883,3.0,3.0215,3.0469,3.0742,3.0898,3.0898,3.0898,3.0898,3.0898,3.0898,3.0898,3.0898,3.0898,3.0898,3.0898,3.0898,3.0898,3.0898,3.0898,3.0898,3.0898,3.0898,3.0898,3.0879,3.0684,3.0605,3.0586,3.041,3.0176,2.9961,3.0234,3.0176,2.9883,2.9375,2.9238,2.9219,0.0,0.0,0.0,0.0,0.0,0.0,0.0,0.0,0.0,0.0,1.4219,1.4687,1.4941,1.5234,1.541,1.541,1.7135,1.9475,2.2379,2.4875,2.7754,3.1016,3.1992,3.2617,3.2969,3.418,3.5005,3.5376,3.6338,3.7429,3.8684,3.8684,3.8974,3.9601,4.0348,4.0415,4.0083,4.0745,4.0739,4.0331,3.9657,3.8888,3.7926,3.5785,3.403,3.2709,3.2853,3.2154,3.0908,2.9875,2.9475,2.9505,2.9905,2.8422,2.6285,2.5132,2.2533,1.9922,1.9414,1.9824,2.043,2.0586,2.1758,2.3047,2.3711,2.4531,2.5352,2.6113,2.7109,2.7969,2.8398,2.9219,2.9922,3.0156,3.0488,3.0742,3.0879,3.0391,2.9863,2.9434,2.9297,2.9336,2.9648,3.0293,3.0762,3.0879,3.0898,3.0898,3.0898,3.0898,3.0898,3.0898,3.0898,3.0898,3.0898,3.0898,3.0898,3.0898,3.0898,3.0898,3.0898,3.0898,3.0898,3.0898,3.0898,3.0898,3.0879,3.0762,3.0508,3.0234,3.0566,3.0488,3.0117,2.9492,2.9394,2.9473,0.0,0.0,0.0,0.0,0.0,0.0,0.0,0.0,0.0,0.0,0.0,0.0,0.0,1.5381,1.541,1.541,1.6641,1.8516,2.1073,2.3257,2.6211,3.0078,3.1094,3.2129,3.3379,3.3418,3.409,3.5376,3.5438,3.6093,3.7369,3.7369,3.7347,3.7467,3.8684,3.9275,3.9288,4.0083,4.0403,4.0306,3.9272,3.7902,3.6242,3.415,3.1721,2.9508,3.0013,2.821,2.5601,2.5943,2.5043,2.3996,2.5352,2.5712,2.5289,2.3481,2.092,1.8754,1.918,1.9609,2.0332,2.2012,2.3105,2.4082,2.5323,2.6328,2.707,2.7571,2.7969,2.8398,2.8828,2.8926,2.9219,3.0059,3.0215,3.0371,3.082,3.0137,2.9434,2.8984,2.8574,2.834,2.8359,2.9473,3.041,3.0859,3.0898,3.0898,3.0898,3.0898,3.0898,3.0898,3.0898,3.0898,3.0898,3.0898,3.0898,3.0898,3.0898,3.0898,3.0898,3.0898,3.0898,3.0898,3.0898,3.0898,3.0859,3.041,3.0215,3.0195,3.0215,3.0215,3.0195,3.0176,2.9902,2.9512,0.0,0.0,0.0,0.0,0.0,0.0,0.0,0.0,0.0,0.0,0.0,0.0,0.0,0.0,0.0,0.0,1.6317,1.7793,1.9805,2.2227,2.4668,2.7129,2.916,3.0547,3.1269,3.1855,3.2529,3.3314,3.3314,3.3963,3.5184,3.5184,3.566,3.6465,3.7711,3.7826,3.7202,3.8704,3.8476,3.7021,3.6415,3.5591,3.4438,3.1312,2.9124,2.7474,0.0,2.4433,2.3089,2.2528,2.1909,2.1599,2.2412,2.2294,2.1588,2.0104,1.9568,1.9512,1.9668,2.0644,2.1973,2.3418,2.4648,2.5781,2.6797,2.7461,2.7832,2.7748,2.7826,2.7832,2.7676,2.7891,2.8359,2.9219,2.959,2.9941,3.0371,3.0176,2.9512,2.8242,2.8457,2.8379,2.7519,2.8594,2.9648,3.0371,3.043,3.0566,3.0879,3.0898,3.0898,3.0898,3.0898,3.0898,3.0898,3.0898,3.0898,3.0898,3.0898,3.0898,3.0898,3.0898,3.0898,3.0898,3.0898,3.0898,3.0879,3.0723,3.0469,3.0234,3.0527,3.0469,3.0195,3.0195,2.9922,2.9512,0.0,0.0,0.0,0.0,0.0,0.0,0.0,0.0,0.0,0.0,0.0,0.0,0.0,0.0,0.0,0.0,0.0,1.6902,1.8496,2.0449,2.2383,2.4277,2.623,2.7539,2.8125,2.8691,2.9199,2.9685,2.9785,3.0472,3.16,3.1742,3.2359,3.3275,3.456,3.467,3.4016,3.5329,3.4871,3.3206,3.2392,3.1476,3.0205,2.727,2.5399,0.0,2.1955,2.0687,2.0017,1.9901,1.9563,1.9252,1.9704,1.959,1.9158,1.8631,1.916,2.0059,2.0684,2.1992,2.3496,2.4805,2.5996,2.6992,2.7591,2.7754,2.7676,2.709,2.6855,2.6602,2.6172,2.6309,2.6777,2.7637,2.8144,2.875,2.9609,2.9473,2.9062,2.8472,2.8418,2.8262,2.7754,2.8437,2.9219,2.9922,3.0273,3.0566,3.0879,3.0898,3.0898,3.0898,3.0898,3.0898,3.0898,3.0898,3.0898,3.0898,3.0898,3.0898,3.0898,3.0898,3.0898,3.0898,3.0898,3.0898,3.0879,3.0703,3.0469,3.0234,3.0527,3.0469,3.0215,3.0391,3.0273,2.9961,0.0,0.0,0.0,0.0,0.0,0.0,0.0,0.0,0.0,0.0,0.0,0.0,0.0,0.0,0.0,0.0,0.0,0.0,1.7207,1.8086,1.9492,2.1562,2.2582,2.3418,2.4238,2.4297,2.4531,2.5008,2.5391,2.5966,2.6836,2.7246,2.7637,2.808,2.9352,2.9901,2.9838,3.0275,2.9927,2.8924,2.7538,2.5856,2.4011,2.2447,2.0941,1.9452,1.8401,1.7263,1.6522,1.8089,1.7922,1.7092,1.7362,1.7734,1.8242,1.9121,1.9727,2.0449,2.2148,2.3555,2.4824,2.6113,2.7031,2.7669,2.7669,2.7266,2.6699,2.5771,2.5254,2.4805,2.4336,2.4297,2.4629,2.5499,2.6133,2.7031,2.8711,2.8301,2.8315,2.945,2.8569,2.8086,2.8809,2.8945,2.9141,2.9607,3.0371,3.0859,3.0898,3.0898,3.0898,3.0898,3.0898,3.0898,3.0898,3.0898,3.0898,3.0898,3.0898,3.0898,3.0898,3.0898,3.0898,3.0898,3.0898,3.0898,3.0859,3.041,3.0234,3.0234,3.0234,3.0234,3.0293,3.0723,3.0879,3.0742,0.0,0.0,0.0,0.0,0.0,0.0,0.0,0.0,0.0,0.0,0.0,0.0,0.0,0.0,0.0,0.0,0.0,0.0,1.5898,1.7031,1.7949,1.8516,2.0292,2.1484,2.199,2.2676,2.3203,2.3633,2.3705,2.3926,2.4186,2.4304,2.4421,2.4565,2.5739,2.5739,2.4991,2.6476,2.6049,2.4313,2.4056,2.3377,2.2402,2.0819,1.9957,1.9452,1.8401,1.7263,1.6423,1.7181,1.739,1.7414,1.8081,1.8613,1.9199,2.0391,2.1504,2.2578,2.3633,2.4883,2.6035,2.6699,2.7012,2.7109,2.6797,2.6367,2.5674,2.4531,2.3691,2.293,2.2146,2.2559,2.3496,2.5,2.6426,2.7832,2.9219,2.9785,2.9824,2.916,2.9355,2.9258,2.8516,2.9316,2.9785,2.959,3.0059,3.0527,3.0879,3.0898,3.0898,3.0898,3.0898,3.0898,3.0898,3.0898,3.0898,3.0898,3.0898,3.0898,3.0898,3.0898,3.0898,3.0898,3.0898,3.0898,3.0879,3.0762,3.0703,3.0703,3.0703,3.0703,3.0723,3.084,3.0664,3.0391,0.0,0.0,0.0,0.0,0.0,0.0,0.0,0.0,0.0,0.0,0.0,0.0,0.0,0.0,0.0,0.0,0.0,0.0,0.0,1.6113,1.6523,1.6523,1.7656,1.8418,1.8637,1.9104,1.9609,2.0039,2.0196,2.0527,2.0898,2.1094,2.1269,2.1505,2.215,2.207,2.1487,2.2327,2.1786,0.0,0.0,1.9689,1.9009,1.81,1.7775,1.766,1.7076,1.67,1.6588,1.7233,1.7658,1.8086,1.889,1.9592,2.0391,2.1699,2.2734,2.3672,2.4707,2.582,2.6719,2.6953,2.7012,2.6758,2.5742,2.5059,2.418,2.2676,2.1836,2.1172,2.0508,2.1074,2.209,2.3457,2.5117,2.6816,2.855,2.9316,2.9766,2.9785,3.0019,3.0,2.9473,3.0078,3.041,3.0176,3.0371,3.0703,3.1133,3.0996,3.0976,3.1152,3.0996,3.0898,3.0898,3.0898,3.0898,3.0898,3.0898,3.0898,3.0898,3.0898,3.0898,3.0898,3.0898,3.0898,3.0898,3.0898,3.0898,3.0898,3.0898,3.0898,3.0898,3.0898,3.0586,3.0234,0.0,0.0,0.0,0.0,0.0,0.0,0.0,0.0,0.0,0.0,0.0,0.0,0.0,0.0,0.0,0.0,0.0,0.0,0.0,0.0,1.541,1.541,1.541,1.541,1.541,1.541,1.5586,1.6007,1.6367,1.6902,1.7676,1.8013,1.8383,1.8769,1.8769,1.8769,1.875,1.8344,1.7759,1.709,1.6668,1.6063,1.541,0.0,1.541,1.541,1.541,1.5937,1.6765,1.7773,1.8383,1.8929,1.9883,2.0781,2.1678,2.2969,2.3711,2.4394,2.5538,2.6523,2.7148,2.7051,2.6934,2.6387,2.4648,2.3555,2.2464,2.0781,2.0039,1.9609,1.9199,1.9863,2.084,2.1797,2.3398,2.5273,2.7519,2.8203,2.9062,3.0703,3.0527,3.0449,3.0859,3.0898,3.0898,3.0898,3.0937,3.1113,3.1426,3.1094,3.1055,3.1426,3.1074,3.0898,3.0898,3.0898,3.0898,3.0898,3.0898,3.0898,3.0898,3.0898,3.0898,3.0898,3.0898,3.0898,3.0898,3.0898,3.0898,3.0898,3.0898,3.0898,3.0898,3.0898,3.0644,3.0293,0.0,0.0,0.0,0.0,0.0,0.0,0.0,0.0,0.0,0.0,1.3945,1.3828,0.0,0.0,0.0,0.0,0.0,0.0,0.0,0.0,0.0,1.541,1.541,1.541,1.541,1.541,1.5449,1.5527,1.5605,1.5693,1.5859,1.5907,1.6016,1.6074,1.6074,1.6074,1.6074,1.5996,1.5879,1.5742,1.5664,1.5517,1.541,1.541,0.0,0.0,1.541,1.5742,1.6457,1.7988,1.9007,1.9902,2.1152,2.2129,2.2945,2.3926,2.5019,2.6055,2.6641,2.7422,2.791,2.7187,2.6484,2.546,2.3769,2.2441,2.1172,1.9785,1.916,1.8695,1.8301,1.9219,2.0547,2.2148,2.3828,2.584,2.834,2.9082,2.9726,3.0762,3.082,3.0801,3.0879,3.0898,3.0898,3.0898,3.1211,3.1289,3.1016,3.0937,3.0918,3.0996,3.0937,3.0898,3.0898,3.0898,3.0898,3.0898,3.0898,3.0898,3.0898,3.0898,3.0898,3.0898,3.0898,3.0898,3.0898,3.0898,3.0898,3.0898,3.0898,3.0898,3.0898,3.0898,3.084,3.0762,0.0,0.0,0.0,0.0,0.0,0.0,0.0,1.4004,1.4363,1.5625,1.5644,1.541,1.5137,1.4512,0.0,0.0,0.0,0.0,0.0,0.0,0.0,0.0,1.5078,1.5195,1.541,1.541,1.541,1.541,0.0,1.541,1.541,1.541,1.541,1.541,1.541,1.541,1.541,1.541,1.541,1.541,1.541,1.541,1.541,0.0,0.0,0.0,1.541,1.5684,1.6281,1.7559,1.852,1.9592,2.1836,2.2969,2.3652,2.4512,2.5371,2.6191,2.6836,2.748,2.7754,2.6914,2.5859,2.4551,2.2598,2.0937,1.9533,1.8516,1.8125,1.793,1.7715,1.873,2.0,2.1289,2.2578,2.4394,2.7207,2.7969,2.8809,3.0351,3.0742,3.0898,3.0898,3.0898,3.0898,3.0898,3.1074,3.1289,3.1543,3.1562,3.1348,3.0898,3.0898,3.0898,3.0898,3.0898,3.0898,3.0898,3.0898,3.0898,3.0898,3.0898,3.0898,3.0898,3.0898,3.0898,3.0898,3.0898,3.0898,3.0898,3.0898,3.0898,3.0898,3.0898,3.0742,3.0527,0.0,0.0,0.0,0.0,0.0,0.0,0.0,1.5078,1.5488,1.7038,1.7344,1.6992,1.5937,1.4766,1.4082,0.0,0.0,0.0,0.0,0.0,0.0,0.0,0.0,0.0,1.5273,0.0,0.0,1.541,1.541,0.0,0.0,0.0,0.0,0.0,1.541,1.541,1.541,1.541,1.541,0.0,0.0,1.541,1.541,0.0,0.0,0.0,0.0,1.5625,1.6105,1.7051,1.7812,1.8792,2.1444,2.2871,2.3633,2.4264,2.5098,2.6016,2.6699,2.7324,2.763,2.6621,2.5332,2.3711,2.1582,1.9709,1.8227,1.7422,1.7324,1.7383,1.7383,1.8359,1.9453,2.0449,2.1349,2.291,2.584,2.6777,2.7871,2.9824,3.0547,3.0898,3.0898,3.0898,3.0898,3.0898,3.0976,3.1269,3.1875,3.1894,3.1582,3.0918,3.0898,3.0898,3.0898,3.0898,3.0898,3.0898,3.0898,3.0898,3.0898,3.0898,3.0898,3.0898,3.0898,3.0898,3.0898,3.0898,3.0898,3.0898,3.0898,3.0898,3.0898,3.0898,3.0664,3.0351,0.0,0.0,0.0,0.0,0.0,0.0,0.0,1.5137,1.625,1.873,1.8086,1.7344,1.7207,1.6418,1.54,0.0,0.0,0.0,0.0,0.0,0.0,0.0,0.0,0.0,0.0,0.0,0.0,1.541,1.541,0.0,0.0,0.0,0.0,0.0,0.0,1.541,1.541,1.541,0.0,0.0,0.0,0.0,0.0,0.0,0.0,0.0,0.0,1.543,1.5664,1.6953,1.7441,1.7754,1.918,2.1016,2.2578,2.2266,2.4141,2.6348,2.6426,2.7324,2.793,2.6699,2.5098,2.3281,2.1153,1.9297,1.7832,1.6941,1.7109,1.7383,1.7383,1.8105,1.9102,2.039,2.1349,2.2793,2.5382,2.6836,2.8158,2.9473,3.0371,3.0898,3.0898,3.0898,3.0898,3.0898,3.125,3.1328,3.1016,3.1016,3.0976,3.0898,3.0898,3.0898,3.0898,3.0898,3.0898,3.0898,3.0898,3.0898,3.0898,3.0898,3.0898,3.0898,3.0898,3.0898,3.0898,3.0898,3.0898,3.0898,3.0898,3.0898,3.0898,3.0898,3.0859,3.082,0.0,0.0,0.0,0.0,0.0,0.0,1.5302,1.5469,1.6426,1.9297,1.949,1.9138,1.8594,1.7754,1.6191,1.3613,0.0,0.0,0.0,0.0,0.0,0.0,0.0,0.0,0.0,0.0,1.5156,1.541,1.541,0.0,0.0,0.0,0.0,0.0,0.0,1.541,1.541,1.541,0.0,0.0,0.0,0.0,0.0,0.0,0.0,0.0,0.0,0.0,1.5488,1.6016,1.6367,1.6672,1.6875,1.8262,2.0078,2.1484,2.3086,2.4668,2.5703,2.6934,2.7591,2.6026,2.4492,2.2832,2.0664,1.8652,1.7038,1.6465,1.6496,1.6692,1.6934,1.748,1.8301,1.9627,1.9863,2.084,2.3393,2.4453,2.5801,2.8198,2.918,3.0019,3.082,3.0898,3.0898,3.0898,3.1055,3.1074,3.0898,3.1387,3.1426,3.0918,3.1133,3.1152,3.0898,3.0898,3.0898,3.0898,3.0898,3.0898,3.0898,3.0898,3.0898,3.0898,3.0898,3.0898,3.0898,3.0898,3.0898,3.0898,3.0898,3.0898,3.0898,3.0898,3.0898,3.0898,0.0,0.0,0.0,0.0,0.0,1.3541,1.542,1.5644,1.6504,1.9023,1.9629,1.9629,1.9141,1.7871,1.6133,1.3828,1.3189,0.0,0.0,0.0,0.0,0.0,0.0,0.0,0.0,0.0,1.5,1.541,1.541,1.541,0.0,0.0,1.541,1.541,0.0,0.0,0.0,0.0,0.0,0.0,0.0,0.0,0.0,0.0,0.0,0.0,0.0,0.0,0.0,0.0,0.0,1.585,1.5508,1.625,1.7676,1.9902,2.1699,2.3179,2.4407,2.5918,2.6699,2.5145,2.373,2.2165,2.0001,1.8052,1.6531,1.5996,1.6105,1.6348,1.6648,1.7187,1.7949,1.9102,1.9141,1.9806,2.2187,2.3042,2.4414,2.6816,2.7851,2.8867,3.0176,3.0664,3.0898,3.0898,3.0898,3.0898,3.0898,3.1582,3.1641,3.0918,3.1172,3.1191,3.0898,3.0898,3.0898,3.0898,3.0898,3.0898,3.0898,3.0898,3.0898,3.0898,3.0898,3.0898,3.0898,3.0898,3.0898,3.0898,3.0898,3.0898,3.0898,3.0898,3.0898,3.0898,0.0,0.0,0.0,0.0,0.0,0.0,1.4637,1.5537,1.6555,1.7852,1.8027,1.8203,1.8559,1.6348,1.498,1.5352,1.3848,0.0,0.0,0.0,0.0,0.0,0.0,0.0,0.0,0.0,1.5,1.541,1.541,1.541,1.541,1.541,1.541,1.541,0.0,0.0,0.0,0.0,0.0,0.0,0.0,0.0,0.0,0.0,0.0,0.0,0.0,0.0,0.0,0.0,0.0,0.0,0.0,1.543,1.5703,1.7031,1.9844,2.2519,2.2539,2.4075,2.5401,2.4121,2.2852,2.1328,1.9104,1.7623,1.6453,1.5605,1.6083,1.6687,1.6707,1.7389,1.8281,1.9141,1.9629,2.0508,2.2266,2.3594,2.4746,2.5596,2.6473,2.7539,2.8809,3.0117,3.0898,3.0898,3.0898,3.0898,3.0898,3.1289,3.1328,3.0898,3.0898,3.0898,3.0898,3.0898,3.0898,3.0898,3.0898,3.0898,3.0898,3.0898,3.0898,3.0898,3.0898,3.0898,3.0898,3.0898,3.0898,3.0898,3.0898,3.0898,3.0898,3.0898,3.0898,3.0898,0.0,0.0,0.0,0.0,0.0,0.0,0.0,1.4141,1.4883,1.6496,1.6711,1.707,1.8086,1.6426,1.5273,1.5391,1.3867,0.0,0.0,0.0,0.0,0.0,0.0,0.0,0.0,0.0,1.466,1.541,1.5703,1.5889,1.5889,1.5889,1.5703,1.541,1.541,1.541,0.0,0.0,0.0,0.0,0.0,0.0,1.541,0.0,0.0,0.0,0.0,0.0,0.0,0.0,0.0,0.0,0.0,0.0,0.0,1.5918,1.7656,1.9629,2.0508,2.1639,2.2379,2.1387,2.0625,1.9707,1.8144,1.6992,1.6113,1.5527,1.5615,1.5985,1.659,1.6921,1.7662,1.9434,1.9824,2.043,2.1875,2.293,2.4219,2.5977,2.8242,2.9824,3.0234,3.0644,3.0898,3.0898,3.0898,3.0898,3.0898,3.1016,3.1035,3.0898,3.1172,3.1191,3.0898,3.0898,3.0898,3.0898,3.0898,3.0898,3.0898,3.0898,3.0898,3.0898,3.0898,3.0898,3.0898,3.0898,3.0898,3.0898,3.0898,3.0898,3.0898,3.0898,3.0898,3.0898,0.0,0.0,0.0,0.0,0.0,0.0,0.0,1.3398,1.3887,1.4989,1.5126,1.5674,1.7109,1.5586,1.4707,1.5352,1.3867,0.0,0.0,0.0,0.0,0.0,0.0,0.0,1.3704,1.3977,1.4699,1.5888,1.6348,1.6594,1.6594,1.675,1.6387,1.5664,1.5664,1.5566,0.0,0.0,0.0,0.0,0.0,0.0,1.541,0.0,0.0,0.0,0.0,0.0,0.0,0.0,0.0,0.0,0.0,0.0,0.0,0.0,1.6172,1.7305,1.8613,1.9707,2.0332,1.9572,1.9121,1.8516,1.7402,1.6613,1.5968,1.5508,1.5547,1.5879,1.657,1.6843,1.7486,1.9124,1.957,2.0137,2.1445,2.2519,2.3965,2.6133,2.8613,3.0156,3.0156,3.0605,3.0898,3.0898,3.0898,3.0898,3.0898,3.0898,3.0898,3.0898,3.1152,3.1152,3.0898,3.0898,3.0898,3.0898,3.0898,3.0898,3.0898,3.0898,3.0898,3.0898,3.0898,3.0898,0.0,3.0898,3.0898,3.0898,3.0898,3.0898,3.0898,3.0898,3.0898,3.0898,0.0,0.0,0.0,0.0,0.0,0.0,0.0,1.3203,1.3457,1.3457,1.3457,1.4062,1.5694,1.4089,1.3541,1.5098,0.0,0.0,0.0,0.0,0.0,0.0,0.0,0.0,1.3997,1.4075,1.4933,1.6609,1.7129,1.7402,1.7441,1.7852,1.7363,1.6144,1.6144,1.587,1.541,1.541,1.541,1.541,1.541,1.541,0.0,0.0,0.0,0.0,0.0,0.0,0.0,0.0,0.0,0.0,0.0,0.0,0.0,0.0,0.0,0.0,0.0,1.8105,1.8906,1.8481,1.8071,1.7617,1.6785,1.6309,0.0,1.5488,1.5762,1.6242,1.6707,1.7129,1.7695,1.8598,1.9121,1.9824,2.1054,2.2477,2.4134,2.6269,2.8027,2.9043,2.9004,3.0156,3.0898,3.0898,3.0898,3.0898,3.0898,3.0898,3.0898,3.0898,3.0898,3.0898,3.0898,3.0898,3.0898,3.0898,3.0898,3.0898,3.0898,3.0898,3.0898,3.0898,3.0898,3.0898,3.0898,3.0898,3.0898,3.0898,3.0898,3.0898,3.0898,3.0898,3.0898,3.0898,0.0,0.0,0.0,0.0,0.0,0.0,0.0,0.0,0.0,0.0,1.3027,1.3208,1.3619,1.3208,1.3071,0.0,0.0,0.0,0.0,0.0,0.0,0.0,0.0,0.0,1.3164,1.3782,1.4621,1.5723,1.6836,1.7559,1.7871,1.8266,1.7779,1.6551,1.6551,1.6152,1.541,1.541,1.541,1.541,1.541,1.541,0.0,0.0,0.0,0.0,1.5584,1.57,0.0,0.0,0.0,0.0,0.0,0.0,0.0,0.0,1.541,1.5488,1.5781,0.0,1.6289,1.6161,1.6063,1.5977,0.0,1.5644,1.5527,1.543,1.5762,1.6437,1.75,1.7519,1.7988,1.9805,2.0233,2.0644,2.1602,2.4258,2.6543,2.7715,2.9375,3.0293,2.9922,3.0488,3.0898,3.0898,3.0898,3.0898,3.0898,3.0898,3.0898,3.0898,3.0898,3.0898,3.0898,3.0898,3.0898,3.0898,3.0898,3.0898,3.0898,3.0898,3.0898,3.0898,3.0898,3.0898,3.0898,3.0898,3.0898,3.0898,3.0898,3.0898,3.0898,3.0898,3.0898,3.0898,0.0,0.0,0.0,0.0,0.0,0.0,0.0,0.0,0.0,0.0,0.0,0.0,0.0,0.0,0.0,0.0,0.0,0.0,0.0,0.0,0.0,0.0,0.0,1.3066,1.3437,1.388,1.4816,1.6309,1.7227,1.7988,1.8594,1.8828,1.8242,1.7012,1.6375,1.5829,1.541,1.541,1.541,1.541,1.541,0.0,0.0,0.0,0.0,0.0,1.6026,1.6026,0.0,1.5613,1.541,1.541,0.0,0.0,0.0,0.0,1.541,1.541,1.541,1.5566,1.5703,1.5703,1.5703,1.5703,1.5703,1.5547,1.541,1.541,1.5762,1.6378,1.7233,1.7402,1.7949,1.9725,2.0175,2.0918,2.2793,2.5,2.6953,2.8418,2.959,3.0351,3.0508,3.0742,3.0898,3.0898,3.0898,3.0898,3.0898,3.0898,3.0898,3.0898,3.0898,3.0898,3.0898,3.0898,3.0898,3.0898,3.0898,3.0898,3.0879,3.0664,3.0566,3.0566,3.0566,3.0566,3.0586,3.0801,3.0898,3.0898,3.0898,3.0898,3.0898,3.0898,3.0898,3.0898,0.0,0.0,0.0,0.0,0.0,0.0,0.0,0.0,0.0,0.0,0.0,0.0,0.0,0.0,0.0,0.0,0.0,0.0,0.0,0.0,0.0,0.0,1.2993,1.334,1.4094,1.4172,1.5206,1.7285,1.7832,1.8535,1.9375,1.9531,1.8828,1.7422,1.6172,1.5498,1.541,1.541,1.541,1.541,1.5497,0.0,0.0,0.0,0.0,0.0,0.0,0.0,0.0,1.5738,1.5468,1.541,1.541,0.0,0.0,0.0,0.0,0.0,1.5488,1.582,1.6163,1.6026,1.6046,1.6085,1.6085,1.5781,1.5527,1.5605,1.5957,1.6457,1.6902,1.7383,1.8086,1.9375,2.0098,2.1543,2.4492,2.5557,2.6836,2.8789,2.9473,3.0039,3.0723,3.0859,3.0898,3.0898,3.082,3.082,3.0879,3.082,3.0781,3.0781,3.0781,3.0762,3.0684,3.082,3.0859,3.0781,3.0781,3.0781,3.0762,3.0312,3.0098,3.0098,3.0176,3.0195,3.0234,3.0703,3.0898,3.0898,3.0898,3.0898,3.0898,3.0898,3.0898,3.0898,0.0,0.0,0.0,0.0,0.0,0.0,0.0,0.0,0.0,0.0,0.0,0.0,0.0,0.0,0.0,0.0,0.0,0.0,0.0,0.0,0.0,1.3398,1.3418,1.3633,1.4094,1.4492,1.5391,1.6804,1.7954,1.8948,1.9824,2.0547,1.9863,1.7871,1.6902,1.6083,1.541,1.541,1.541,1.5439,1.5968,0.0,0.0,0.0,0.0,0.0,0.0,0.0,0.0,1.6368,1.5825,1.541,1.541,0.0,0.0,0.0,0.0,0.0,1.5889,1.6289,1.6414,1.5703,1.5831,1.6085,1.6085,1.6046,1.6105,1.6414,1.6875,1.7422,1.8169,1.8711,1.9434,2.0683,2.2207,2.4121,2.6847,2.7598,2.8301,2.9355,3.0195,3.0586,3.0332,3.0664,3.0898,3.0898,3.0527,3.0469,3.0859,3.0508,3.0293,3.0293,3.0293,3.0137,2.9785,3.0508,3.0703,3.0293,3.0293,3.0293,3.0293,2.9863,2.9668,2.9687,3.0039,3.0195,3.0234,3.0703,3.0898,3.0898,3.0898,3.0898,3.0898,3.0898,3.0898,3.0898,0.0,0.0,0.0,0.0,0.0,0.0,0.0,0.0,0.0,0.0,0.0,0.0,0.0,0.0,0.0,0.0,0.0,0.0,0.0,0.0,1.3516,1.416,1.4414,1.4601,1.4796,1.5488,1.6434,1.772,1.8773,1.9728,2.0566,2.004,1.9026,1.7617,1.6504,1.5801,1.541,1.5758,1.5882,1.594,0.0,0.0,0.0,0.0,0.0,0.0,0.0,0.0,0.0,0.0,1.5882,1.541,1.541,0.0,0.0,0.0,0.0,0.0,1.5644,1.6035,1.6269,1.5889,1.6269,1.675,1.6484,1.6426,1.6543,1.6992,1.7422,1.791,1.8481,1.9143,2.0215,2.1931,2.3906,2.5684,2.7109,2.7676,2.8359,2.9434,2.9922,3.0273,3.0547,3.0762,3.0898,3.0898,3.0703,3.0664,3.0879,3.0684,3.0449,3.0195,3.0195,2.9883,2.9219,3.0078,3.0293,2.9863,3.0098,3.0078,2.9844,2.9414,2.9219,2.9219,2.9414,2.9648,2.9863,3.0078,3.0312,3.0508,3.0508,3.0508,3.0547,3.0801,3.0898,3.0898,0.0,0.0,0.0,0.0,0.0,0.0,0.0,0.0,0.0,0.0,0.0,0.0,0.0,0.0,0.0,0.0,0.0,0.0,0.0,0.0,1.3848,1.4609,1.5387,1.595,1.6152,1.6707,1.7662,1.9082,1.9806,2.0527,2.1171,1.9611,1.8448,1.7553,1.6425,1.5899,1.5853,1.6312,1.651,1.6546,0.0,0.0,0.0,0.0,0.0,0.0,0.0,0.0,0.0,0.0,0.0,0.0,0.0,0.0,0.0,1.542,1.5419,1.5437,1.5537,1.5831,1.6085,1.6085,1.6692,1.7227,1.7155,1.7135,1.733,1.7988,1.8379,1.8672,1.8851,1.9767,2.123,2.3354,2.5391,2.6875,2.7383,2.7832,2.8569,2.959,2.9726,2.998,3.0664,3.082,3.084,3.0742,3.0723,3.0723,3.0723,3.0644,3.0371,2.9902,2.9902,2.9531,2.8789,2.9512,2.9785,2.957,3.0,3.0019,2.9707,2.916,2.8926,2.8926,2.8926,2.9101,2.9434,2.9531,2.9766,3.0059,3.0059,3.0117,3.0234,3.0586,3.0859,3.0995,0.0,0.0,0.0,0.0,0.0,0.0,0.0,0.0,0.0,0.0,0.0,0.0,0.0,0.0,0.0,0.0,0.0,0.0,0.0,0.0,1.3685,1.4133,1.6079,1.7523,1.8344,1.8052,1.875,2.0468,2.0898,2.1132,2.1171,2.0216,1.9231,1.8221,1.7687,1.7298,1.7052,1.7129,1.7135,1.7191,1.7793,0.0,0.0,0.0,0.0,0.0,0.0,0.0,0.0,0.0,0.0,0.0,0.0,0.0,1.5497,1.5408,1.543,1.5571,1.595,1.6065,1.6085,1.6085,1.6426,1.7038,1.8208,1.8461,1.8812,2.0116,2.039,2.0312,1.9883,2.1191,2.3027,2.5148,2.6699,2.7851,2.8672,2.916,2.9609,3.0098,3.0156,3.0176,3.0234,3.0644,3.0703,3.0273,3.0254,3.0254,3.0254,2.9883,2.9473,2.9023,2.9004,2.8789,2.834,2.8789,2.9199,2.957,3.0,3.0176,3.0117,2.9297,2.8926,2.8926,2.8926,2.8945,2.9004,2.9394,2.9646,2.9609,2.9609,2.9863,3.0195,3.0234,3.0681,3.1267,0.0,0.0,0.0,0.0,0.0,0.0,0.0,0.0,0.0,0.0,0.0,0.0,0.0,0.0,0.0,0.0,0.0,0.0,0.0,1.4158,1.4881,1.4922,1.6675,1.7968,1.8594,1.9765,2.0707,2.1427,2.1562,2.1747,2.1868,2.0078,1.9144,1.8881,1.7824,1.7284,1.7219,1.76,1.7765,1.782,1.8441,1.8655,0.0,0.0,0.0,0.0,0.0,0.0,0.0,0.0,1.5972,1.5171,1.5759,1.556,1.5306,1.6252,1.6036,1.5691,1.6537,1.6738,1.6758,1.6971,1.7598,1.8167,1.8193,1.8831,1.9727,2.0762,2.1406,2.1719,2.1562,2.2715,2.4062,2.5137,2.6855,2.8262,2.8848,2.9297,2.9685,2.9785,3.0039,3.0195,3.0195,3.0625,3.0586,2.9863,2.9805,2.957,2.9043,2.8867,2.8574,2.8164,2.8144,2.793,2.75,2.793,2.8223,2.8452,2.8809,2.8887,2.8613,2.8281,2.8418,2.8906,2.8652,2.8828,2.9297,2.8926,2.8926,2.916,2.916,2.959,3.0195,3.0195,3.0546,3.1054,0.0,0.0,0.0,0.0,0.0,0.0,0.0,0.0,0.0,0.0,0.0,0.0,0.0,0.0,0.0,0.0,0.0,0.0,1.3401,1.4835,1.5656,1.551,1.7042,1.7989,1.8203,2.0419,2.1558,2.1505,2.1708,2.1807,2.172,1.9878,1.9254,1.9528,1.8105,1.7779,1.8272,1.834,1.8363,1.8441,1.8815,1.8999,0.0,0.0,0.0,0.0,0.0,0.0,0.0,0.0,1.5793,1.5216,1.577,1.5583,1.5344,1.6219,1.6165,1.5935,1.654,1.6786,1.7009,1.7558,1.8194,1.8731,1.8934,1.9757,2.0859,2.197,2.2457,2.275,2.3066,2.3613,2.4297,2.5137,2.6855,2.8242,2.8652,2.9101,2.9355,2.9355,2.9609,2.9805,2.9805,3.0078,2.9961,2.9219,2.916,2.8848,2.8125,2.8086,2.7891,2.748,2.7461,2.7324,2.7012,2.7305,2.7402,2.7266,2.7559,2.7754,2.7871,2.7871,2.8262,2.8906,2.8613,2.8828,2.9316,2.873,2.8574,2.8711,2.8711,2.916,2.9805,2.9941,3.0293,3.0684,0.0,0.0,0.0,0.0,0.0,0.0,0.0,0.0,0.0,0.0,0.0,0.0,0.0,0.0,0.0,0.0,0.0,0.0,1.4424,1.5232,1.5704,1.5704,1.7101,1.7749,1.7376,1.9803,2.0907,2.0605,2.126,2.1272,2.0571,1.9705,1.9656,2.0236,1.8782,1.9053,2.0509,1.9456,1.8999,1.8999,1.8999,1.8999,1.8927,0.0,0.0,0.0,0.0,0.0,0.0,0.0,1.6577,1.572,1.6302,1.6135,1.5598,1.5074,1.569,1.6387,1.5876,1.6036,1.6587,1.7745,1.805,1.8567,2.0585,2.1489,2.2383,2.4082,2.3705,2.3374,2.4258,2.375,2.375,2.5401,2.6816,2.7865,2.8242,2.8652,2.8906,2.8906,2.8906,2.8906,2.8906,2.8906,2.873,2.832,2.8281,2.8086,2.7728,2.7708,2.7441,2.7012,2.7012,2.7012,2.7012,2.7012,2.6797,2.6387,2.6387,2.7051,2.8281,2.8281,2.8496,2.8906,2.8906,2.8906,2.8906,2.8906,2.8672,2.8301,2.8301,2.8555,2.8965,2.9394,2.9824,3.0311,0.0,0.0,0.0,0.0,0.0,0.0,0.0,0.0,0.0,0.0,0.0,0.0,0.0,0.0,0.0,0.0,0.0,0.0,1.4857,1.5635,1.5813,1.5091,1.656,1.7167,1.6636,1.8375,1.9912,2.1242,2.1371,2.1211,2.0717,2.025,2.0182,2.0487,2.0042,1.9917,1.9985,1.9287,1.8999,1.8999,1.8999,1.8999,1.8927,0.0,0.0,0.0,0.0,0.0,0.0,0.0,0.0,0.0,1.5885,1.598,1.5954,1.6442,1.6796,1.7091,1.7324,1.7762,1.8372,1.9373,2.0417,2.1455,2.2303,2.2391,2.2891,2.4875,2.5089,2.4894,2.4883,2.4922,2.5137,2.5596,2.6562,2.7461,2.8184,2.8398,2.8476,2.8476,2.8476,2.8476,2.8476,2.8476,2.8184,2.7441,2.7402,2.707,2.6348,2.6309,2.625,2.6064,2.6064,2.6064,2.6064,2.6064,2.6055,2.5937,2.5937,2.6289,2.6953,2.6953,2.7344,2.8047,2.8359,2.8476,2.8476,2.8476,2.8398,2.8301,2.8301,2.8555,2.8945,2.9062,2.957,3.0176,0.0,0.0,0.0,0.0,0.0,0.0,0.0,0.0,0.0,0.0,1.4691,1.4868,0.0,0.0,0.0,0.0,0.0,0.0,0.0,1.5925,1.6017,1.5435,1.6336,1.6963,1.7172,1.837,1.9528,2.0666,2.0827,2.0735,2.041,2.0617,2.0919,2.1241,2.1241,2.1072,2.0682,1.9965,1.9411,1.8999,1.8999,1.8999,1.8903,0.0,0.0,0.0,0.0,0.0,0.0,0.0,0.0,0.0,1.5776,1.5869,1.5986,1.6558,1.7025,1.7431,1.7762,1.8377,1.9264,2.0694,2.178,2.2808,2.4164,2.4118,2.4487,2.6927,2.6383,2.5691,2.6344,2.5777,2.5391,2.5918,2.6562,2.7246,2.7949,2.8184,2.8223,2.8066,2.8184,2.8164,2.7812,2.7793,2.75,2.6816,2.6602,2.6239,2.5713,2.5693,2.5693,2.5693,2.5693,2.5693,2.5693,2.5693,2.5693,2.5693,2.5693,2.583,2.6133,2.6309,2.6758,2.7422,2.7851,2.8047,2.8047,2.8047,2.8047,2.8066,2.8223,2.8437,2.8691,2.8848,2.9355,2.9922,0.0,0.0,1.2954,1.2954,0.0,0.0,0.0,0.0,0.0,0.0,1.4172,1.4433,0.0,0.0,0.0,0.0,0.0,0.0,0.0,0.0,1.6312,1.6312,1.6425,1.7082,1.8433,1.9229,1.9552,1.9347,1.9954,2.0058,1.9748,2.0875,2.1668,2.2125,2.2125,2.2125,2.2053,2.0928,1.9892,1.8999,1.8999,1.8951,1.8806,1.7796,0.0,0.0,0.0,0.0,0.0,0.0,0.0,0.0,1.5804,1.5828,1.5882,1.5939,1.6667,1.7481,1.7522,1.8298,1.9575,2.1738,2.2512,2.3451,2.6221,2.6389,2.6657,2.9429,2.751,2.6068,2.8148,2.6444,2.5122,2.634,2.685,2.7263,2.7695,2.8088,2.8133,2.7708,2.8015,2.7917,2.7031,2.6914,2.6738,2.6348,2.5918,2.5635,2.5693,2.5654,2.5635,2.5693,2.5654,2.5654,2.5693,2.5654,2.5654,2.5693,2.5693,2.5693,2.5693,2.6152,2.6582,2.7031,2.7402,2.765,2.7708,2.7669,2.7689,2.7767,2.8086,2.8262,2.834,2.8711,2.9141,2.9512,0.0,0.0,1.3379,1.3379,0.0,0.0,0.0,0.0,0.0,0.0,0.0,0.0,0.0,0.0,0.0,0.0,0.0,0.0,0.0,0.0,1.6312,1.6312,1.7191,1.7855,1.8164,1.8823,1.9146,1.9092,2.0046,2.006,1.9191,2.0706,2.1476,2.1572,2.1572,2.1572,2.1476,1.9961,1.9218,1.8999,1.8999,1.8734,1.8301,1.7652,1.7123,0.0,0.0,0.0,0.0,0.0,0.0,0.0,1.5804,1.609,1.6407,1.6376,1.7158,1.8006,1.8004,1.908,2.0662,2.2414,2.4422,2.6451,2.831,2.803,2.7736,2.8784,2.8353,2.7836,2.802,2.7544,2.7235,2.7541,2.7664,2.7839,2.8268,2.8411,2.8147,2.727,2.7623,2.7602,2.6643,2.6211,2.5927,2.583,2.5469,2.5371,2.5674,2.541,2.5371,2.5674,2.5391,2.5371,2.5693,2.5391,2.5391,2.5693,2.5693,2.5693,2.5693,2.5791,2.6289,2.7012,2.6758,2.7051,2.7689,2.7305,2.7363,2.7728,2.7826,2.8008,2.8301,2.8398,2.8691,2.9004,0.0,0.0,0.0,0.0,0.0,0.0,0.0,0.0,0.0,0.0,0.0,0.0,0.0,0.0,0.0,0.0,0.0,0.0,0.0,0.0,1.6877,1.7135,1.7765,1.8228,1.8521,1.8842,1.8999,1.8999,1.9579,1.9555,1.9023,2.037,2.1019,2.1043,2.1548,2.15,2.0971,2.0129,1.948,1.8975,1.871,1.859,1.847,1.7436,1.7003,1.6883,1.6068,0.0,0.0,0.0,0.0,0.0,0.0,0.0,1.631,1.6785,1.7357,1.7913,1.839,1.9547,2.1163,2.3496,2.5917,2.8015,2.9049,2.8925,2.8708,2.9255,2.8954,2.8839,2.9536,2.8924,2.8354,2.854,2.8582,2.8473,2.8235,2.8551,2.8222,2.6575,2.7426,2.7537,2.5908,2.6159,2.6108,2.5478,2.5195,2.5078,2.505,2.5078,2.5223,2.541,2.5391,2.5391,2.541,2.5391,2.5391,2.543,2.5596,2.5693,2.5693,2.5693,2.5927,2.6387,2.6172,2.6328,2.6738,2.6719,2.6855,2.709,2.7552,2.7845,2.8027,2.8223,2.8555,2.8848,0.0,0.0,0.0,0.0,0.0,0.0,0.0,0.0,0.0,0.0,0.0,0.0,0.0,0.0,0.0,0.0,0.0,0.0,0.0,0.0,0.0,1.8228,1.8255,1.8494,1.8999,1.8999,1.8999,1.8999,1.8999,1.8999,1.9023,2.0013,2.0519,2.0634,2.1428,2.1332,2.061,2.0418,1.9768,1.8806,1.8374,1.8398,1.8566,1.7147,1.6883,1.7123,1.6163,1.5804,1.5804,1.5804,0.0,0.0,0.0,0.0,1.6092,1.7003,1.7387,1.7748,1.8614,1.9841,2.1596,2.4578,2.6791,2.8402,2.9027,2.9244,2.9436,2.9869,2.9274,2.9189,3.0786,2.9778,2.8802,2.9127,2.9193,2.8911,2.8126,2.8649,2.831,2.62,2.7441,2.7597,2.5451,2.6202,2.6357,2.5075,2.493,2.4727,2.4434,2.4687,2.493,2.5008,2.5312,2.5332,2.4961,2.5332,2.5352,2.5125,2.5652,2.5965,2.5965,2.5965,2.5868,2.5693,2.5693,2.5693,2.5713,2.6133,2.6328,2.6465,2.7246,2.765,2.7767,2.8144,2.8516,2.8769,0.0,0.0,0.0,0.0,0.0,0.0,0.0,0.0,0.0,0.0,1.541,1.5642,0.0,0.0,0.0,0.0,0.0,0.0,0.0,0.0,0.0,1.8842,1.8869,1.8922,1.8999,1.8999,1.8999,1.8999,1.8999,1.8999,1.8999,1.9627,2.0157,2.0591,2.0278,2.0298,2.0533,1.96,1.8855,1.8301,1.8229,1.7965,1.7556,1.6859,1.6643,1.6619,1.6018,1.5804,1.5804,1.5804,1.5804,0.0,0.0,0.0,1.6523,1.6667,1.7363,1.8133,1.8277,2.0105,2.251,2.4747,2.6201,2.7354,2.8402,2.8979,2.9316,2.9388,2.9005,2.869,2.8958,2.8779,2.8623,2.8692,2.8692,2.8648,2.8517,2.8627,2.8231,2.7056,2.7877,2.7833,2.5892,2.5863,2.5544,2.4558,2.416,2.4102,2.4394,2.4121,2.4121,2.4492,2.457,2.457,2.4512,2.457,2.4746,2.5125,2.6377,2.701,2.701,2.701,2.6504,2.5693,2.5693,2.5693,2.5693,2.5752,2.6055,2.6445,2.6914,2.7324,2.7767,2.8144,2.832,2.8359,0.0,0.0,0.0,0.0,0.0,0.0,0.0,0.0,0.0,0.0,0.0,1.5497,0.0,0.0,0.0,0.0,0.0,0.0,0.0,0.0,0.0,1.8999,1.8999,1.8999,1.8999,1.8999,1.8999,1.8999,1.8999,1.8999,1.8999,1.9215,1.9652,2.0133,1.9603,1.9648,2.0105,1.9312,1.8686,1.8181,1.7869,1.7796,1.7772,1.6907,1.6979,1.7412,1.6547,1.6259,1.6211,1.59,1.5804,1.5804,1.5804,0.0,0.0,0.0,1.6931,1.7483,1.8398,2.0177,2.2125,2.3616,2.5011,2.6273,2.7354,2.8041,2.8498,2.8787,2.8702,2.8745,2.931,2.9428,2.9428,2.9428,2.9428,2.9234,2.8677,2.8808,2.8434,2.6932,2.782,2.7943,2.6366,2.665,2.6344,2.4881,2.5118,2.5063,2.4492,2.4488,2.4876,2.555,2.4826,2.4526,2.4811,2.4506,2.4908,2.5932,2.7394,2.8028,2.8028,2.8028,2.7793,2.7295,2.6207,2.6014,2.6504,2.5917,2.581,2.6074,2.6504,2.6934,2.7344,2.7773,2.8086,2.8301,0.0,0.0,0.0,0.0,0.0,0.0,0.0,0.0,0.0,0.0,0.0,0.0,0.0,0.0,0.0,0.0,0.0,0.0,0.0,0.0,0.0,0.0,0.0,1.8999,1.8999,1.8999,1.8999,1.8999,1.8999,1.8999,1.8999,1.8999,1.929,1.9796,1.9215,1.9215,1.9579,1.9167,1.8686,1.8181,1.7748,1.7845,1.8109,1.7147,1.7363,1.8085,1.7123,1.6811,1.6739,1.6355,1.6211,1.6164,1.6066,1.6114,0.0,0.0,0.0,1.6907,1.8398,1.9768,2.1091,2.227,2.3664,2.4987,2.6033,2.6801,2.7416,2.7825,2.8114,2.8546,2.934,2.9605,2.9677,2.9677,2.9677,2.9427,2.8691,2.8864,2.8586,2.7169,2.7906,2.8039,2.681,2.7253,2.6917,2.5072,2.5808,2.5787,2.4551,2.4971,2.5592,2.628,2.544,2.4925,2.4962,2.4701,2.5265,2.6596,2.813,2.8873,2.8873,2.903,2.9235,2.9326,2.7342,2.6887,2.751,2.6504,2.6091,2.6102,2.631,2.6641,2.707,2.75,2.793,2.8301,0.0,0.0,0.0,0.0,0.0,0.0,0.0,0.0,0.0,0.0,0.0,0.0,1.541,1.5911,1.6255,1.6255,1.6828,0.0,0.0,0.0,0.0,0.0,0.0,0.0,1.8999,1.8999,1.8999,1.8999,1.8999,1.8999,1.8999,1.8999,1.929,1.9796,1.9215,1.8999,1.9023,1.8999,1.8686,1.8205,1.8181,1.8181,1.8133,1.7555,1.7724,1.8133,1.758,1.7339,1.7339,1.7315,1.7315,1.7219,1.6715,1.6907,1.7123,0.0,0.0,0.0,1.7941,1.8662,1.9504,2.1091,2.2294,2.3376,2.441,2.5444,2.619,2.6214,2.7031,2.7777,2.7786,2.8258,2.8595,2.8595,2.8595,2.8555,2.8515,2.8531,2.8507,2.8427,2.8443,2.8139,2.7249,2.7231,2.6467,2.4658,2.5316,2.5443,2.4531,2.5295,2.5779,2.5821,2.6215,2.5808,2.4529,2.4877,2.5564,2.6541,2.8451,2.937,2.9392,2.9895,3.0644,3.1427,2.9418,2.8588,2.8541,2.7558,2.7105,2.7051,2.6586,2.6641,2.707,2.75,2.793,2.8301,0.0,0.0,0.0,0.0,0.0,0.0,0.0,0.0,0.0,0.0,0.0,0.0,0.0,1.6743,1.6715,1.634,1.6856,0.0,0.0,0.0,0.0,0.0,0.0,0.0,1.8999,1.8999,1.8999,1.8999,1.8662,1.8662,1.8975,1.8638,1.8758,1.9263,1.9071,1.9167,1.9507,1.917,1.8686,1.8205,1.8205,1.8205,1.8181,1.7989,1.8253,1.8638,1.8109,1.7917,1.7869,1.7507,1.7387,1.7315,1.6763,1.6739,1.6739,1.5996,1.6427,1.7195,1.7579,1.8326,1.9215,2.0129,2.0923,2.1837,2.3207,2.4097,2.4891,2.5901,2.6406,2.6791,2.7114,2.7921,2.8522,2.8522,2.8522,2.8522,2.8522,2.8522,2.8522,2.8522,2.8522,2.8379,2.8059,2.8018,2.7551,2.634,2.704,2.7162,2.6299,2.6547,2.6958,2.751,2.6579,2.5825,2.5316,2.6427,2.716,2.7479,2.9429,3.0379,3.0379,3.09,3.1383,3.1673,3.0958,3.026,2.9555,2.8588,2.8168,2.8096,2.7242,2.7337,2.8006,2.8218,2.8281,2.8388,0.0,0.0,0.0,0.0,0.0,1.57,1.57,1.57,1.5853,1.6255,0.0,0.0,0.0,0.0,1.7375,1.7177,1.7579,1.8066,1.8655,1.8869,0.0,0.0,0.0,0.0,1.8999,1.8999,1.8903,1.8734,1.8374,1.8301,1.8446,1.8109,1.8133,1.847,1.847,1.8855,1.9531,1.9143,1.8782,1.847,1.847,1.847,1.8494,1.8662,1.8831,1.8975,1.8782,1.8614,1.8422,1.8061,1.7941,1.7845,1.7315,1.6883,1.6571,1.6403,1.6715,1.7195,1.758,1.8205,1.8903,1.9627,2.0057,2.0658,2.1909,2.2606,2.336,2.453,2.5059,2.5468,2.5985,2.6946,2.7753,2.7906,2.793,2.793,2.793,2.8138,2.8186,2.7954,2.8306,2.845,2.8258,2.8402,2.8139,2.7267,2.8018,2.8139,2.7267,2.747,2.7874,2.8459,2.704,2.6423,2.6712,2.7382,2.7898,2.821,2.9666,3.0446,3.0639,3.1211,3.1548,3.1717,3.1717,3.1339,3.0644,2.9601,2.9189,2.9096,2.8121,2.8242,2.9013,2.9112,2.9247,2.9533,0.0,1.541,1.541,1.541,1.5882,1.6283,1.6283,1.6283,1.6283,1.6312,0.0,0.0,0.0,0.0,0.0,1.8873,1.8986,1.8759,1.8197,1.8682,0.0,0.0,0.0,0.0,1.8999,1.8999,1.8734,1.8205,1.8181,1.7917,1.7387,1.7363,1.7363,1.7387,1.7387,1.7989,1.8951,1.8951,1.8951,1.8975,1.8975,1.8975,1.9047,1.9579,1.9432,1.9071,1.9603,1.9459,1.8999,1.8999,1.8999,1.8903,1.8374,1.7459,1.6739,1.7243,1.7027,1.6859,0.0,0.0,0.0,1.9531,1.9796,1.9941,2.0466,2.0995,2.15,2.2053,2.3023,2.3914,2.4386,2.5324,2.6214,2.6705,2.6849,2.6898,2.6898,2.733,2.7474,2.697,2.781,2.8258,2.7753,2.8186,2.8115,2.7261,2.7971,2.8115,2.7244,2.8035,2.8522,2.8522,2.7672,2.7632,2.8483,2.7672,2.7672,2.8522,2.9051,2.9556,3.0086,3.0639,3.1211,3.1693,3.1693,3.1717,3.1605,3.0644,3.026,3.0125,2.9143,2.9318,3.0144,3.0144,3.0756,3.1586,1.5332,1.541,1.541,1.541,1.5555,1.5671,1.5671,1.5671,1.5968,0.0,0.0,0.0,1.7994,1.835,1.8748,1.9285,1.9084,1.9033,1.9305,1.9111,1.8999,1.8999,1.8999,1.8999,1.8999,1.8999,1.8734,1.8205,1.782,1.7556,1.7387,1.7003,1.7027,1.7387,1.7387,1.7555,1.7845,1.7845,1.8061,1.8422,1.8422,1.8638,1.8999,1.9143,1.9119,1.8999,1.9167,1.9119,1.8999,1.8999,1.8999,1.8903,1.8374,1.7748,1.7195,1.7339,1.758,1.782,1.8133,0.0,0.0,0.0,0.0,0.0,1.9889,2.0129,2.049,2.1428,2.2173,2.2799,2.3304,2.3953,2.4458,2.4626,2.5925,2.6898,2.6898,2.7018,2.7066,2.6922,2.7162,2.7282,2.7138,2.7594,2.766,2.7047,2.7574,2.7828,2.7569,2.8148,2.8522,2.8522,2.8259,2.8259,2.8522,2.8259,2.8259,2.8522,2.9051,2.9388,2.9556,3.047,3.0995,3.1163,3.1548,3.1717,3.1673,3.1383,3.1294,3.1205,3.017,3.0372,3.1208,3.1278,3.1448,3.1739,1.5371,1.541,1.541,1.541,1.5752,1.6077,1.6077,1.6207,1.6566,0.0,0.0,0.0,1.8493,1.9149,1.9463,1.9456,1.9558,1.9559,1.9436,1.9371,1.9215,1.8999,1.8999,1.8999,1.8999,1.8999,1.8734,1.8205,1.7651,1.7291,1.7051,1.6523,1.6427,1.6739,1.6739,1.6739,1.6739,1.6955,1.7508,1.8205,1.8205,1.8518,1.9047,1.9504,1.9384,1.9047,1.9504,1.9528,1.9314,1.9098,1.8999,1.8927,1.8638,1.8181,1.7796,1.8013,1.8133,1.8253,1.847,1.8758,1.9047,1.9263,0.0,0.0,1.97,1.9627,1.9724,2.0562,2.0971,2.1356,2.1885,2.2606,2.3144,2.3144,2.4506,2.5685,2.5865,2.6081,2.6225,2.6225,2.6609,2.6801,2.6598,2.7042,2.7234,2.6922,2.7186,2.745,2.7666,2.8017,2.8282,2.8498,2.8522,2.8522,2.8522,2.8522,2.8522,2.8522,2.8835,2.9076,2.9316,2.9941,3.047,3.0946,3.1235,3.15,3.1717,3.1717,3.1573,3.1316,3.0977,3.1294,3.1996,3.2324,3.2642,3.3001,0.0,1.541,1.541,1.541,1.6236,1.6906,1.6906,1.7256,1.7513,0.0,1.723,1.7368,1.837,1.9773,2.0363,1.9669,2.0261,2.026,1.9257,1.959,1.9603,1.9095,1.9023,1.8999,1.8999,1.8999,1.8734,1.8205,1.7724,1.7195,1.6691,1.6211,1.597,1.5876,1.5876,1.5852,1.585,1.6379,1.7171,1.8133,1.8181,1.8518,1.9095,2.0129,1.9913,1.9215,2.0249,2.0298,1.982,1.9263,1.9071,1.9071,1.8999,1.8662,1.8374,1.8855,1.8662,1.8398,1.8855,1.9023,1.9167,1.9627,1.9432,0.0,1.9652,1.9411,1.9218,1.9627,1.9772,1.9965,2.0442,2.1332,2.2029,2.2029,2.2847,2.3746,2.4338,2.4843,2.5131,2.5131,2.6009,2.6441,2.5973,2.6441,2.6777,2.6729,2.6777,2.7042,2.757,2.7642,2.7969,2.8498,2.8522,2.8522,2.8522,2.8522,2.8522,2.8522,2.8522,2.8763,2.922,2.9268,2.9845,3.0826,3.0855,3.1211,3.1717,3.1717,3.1404,3.0927,3.15,3.1961,3.2466,3.2996,3.3861,3.4703,1.541,1.541,1.541,1.541,1.59,1.6267,1.6267,1.6631,1.7034,1.7544,1.8312,1.8839,1.8858,2.0144,2.0934,2.0773,2.107,2.1152,2.0944,2.0193,1.9748,1.9652,1.9215,1.8999,1.8999,1.8999,1.8734,1.8205,1.8109,1.7772,1.7243,1.7123,1.6859,1.6451,1.6451,1.6188,1.585,1.6379,1.6955,1.7579,1.8037,1.8518,1.9071,1.9696,1.9844,1.9748,2.0374,2.0514,2.037,1.9817,1.9652,1.9579,1.9146,1.8927,1.8855,1.8951,1.8927,1.8855,1.8951,1.9338,1.9579,1.9215,1.972,0.0,1.9312,1.9411,1.9555,1.9215,1.9507,1.9844,1.9941,2.049,2.0923,2.0923,2.1452,2.2342,2.3746,2.4035,2.4107,2.4107,2.4626,2.4904,2.4843,2.5709,2.6093,2.5661,2.6021,2.6502,2.7018,2.745,2.7969,2.8498,2.8522,2.8522,2.8522,2.8522,2.8522,2.8522,2.8522,2.857,2.8667,2.91,2.9653,3.0278,3.0687,3.1211,3.1717,3.1717,3.1404,3.0927,3.15,3.1765,3.1934,3.2442,3.3308,3.415,1.541,1.541,1.5488,1.5703,1.6113,1.6465,1.6711,1.709,1.7592,1.82,1.9403,2.0026,1.9617,2.0805,2.1494,2.1123,2.1533,2.1692,2.1428,2.0899,2.0374,1.982,1.9555,1.9263,1.8999,1.8999,1.8855,1.859,1.8326,1.8061,1.7796,1.7532,1.7243,1.6979,1.6715,1.6595,1.6619,1.6883,1.7291,1.782,1.8085,1.8686,1.9459,1.9989,2.0205,2.0273,2.0803,2.0856,2.0586,2.0586,2.0418,2.0105,1.9579,1.9411,1.9363,1.9071,1.8999,1.9047,1.9338,1.9411,1.9456,1.9744,1.9793,0.0,0.0,1.9411,1.9312,1.9047,1.9191,1.9411,1.9411,1.9841,2.0201,2.0201,2.0875,2.1596,2.2125,2.2871,2.3505,2.377,2.4001,2.4145,2.4145,2.4843,2.53,2.53,2.5564,2.6069,2.6849,2.7138,2.7642,2.8474,2.8522,2.8522,2.8522,2.8522,2.8522,2.8522,2.8522,2.8522,2.8522,2.8787,2.9196,2.9725,3.0254,3.0826,3.1332,3.1597,3.1404,3.0995,3.1813,3.1958,3.1813,3.2587,3.338,3.3982,1.541,1.541,1.5547,1.6026,1.6426,1.6843,1.7324,1.7835,1.8395,1.8944,2.0194,2.0844,2.0292,2.16,2.2218,2.153,2.2005,2.2125,2.1596,2.1452,2.1019,2.0157,1.9916,1.9603,1.9143,1.9047,1.8999,1.8999,1.8566,1.835,1.835,1.7917,1.7627,1.7556,1.7099,1.7075,1.7387,1.7507,1.7796,1.8205,1.8301,1.8927,1.9868,2.0398,2.0658,2.0798,2.1356,2.126,2.0976,2.1284,2.1115,2.0682,2.0105,1.9965,1.9868,1.9435,1.9287,1.9384,1.9844,1.9768,1.9744,2.0322,2.0033,1.96,0.0,0.0,0.0,1.9023,1.8999,1.8999,1.8999,1.9336,1.9627,1.9531,2.0394,2.0899,2.037,2.1596,2.2758,2.3288,2.3433,2.3529,2.3649,2.4169,2.4712,2.5276,2.53,2.5781,2.6825,2.6898,2.7378,2.8474,2.8522,2.8522,2.8522,2.8522,2.8522,2.8522,2.8522,2.8522,2.8522,2.8522,2.8811,2.934,2.9869,3.0374,3.0946,3.15,3.1452,3.1139,3.1889,3.1913,3.1669,3.2611,3.3356,3.3862,1.541,1.541,1.5547,1.6026,1.6426,1.6843,1.7324,1.8248,1.8911,1.8977,2.0135,2.0897,2.083,2.2492,2.34,2.2823,2.2863,2.2654,2.2125,2.1668,2.1356,2.1235,2.0298,1.9772,1.9724,1.9215,1.8999,1.8999,1.8927,1.8903,1.8903,1.8831,1.8566,1.8109,1.8061,1.7796,1.7411,1.7917,1.8157,1.8253,1.871,1.929,1.9868,2.0394,2.0899,2.138,2.1909,2.2053,2.1933,2.1548,2.1356,2.1235,2.0682,2.049,2.0494,2.0446,2.0418,2.0413,2.049,2.1163,2.1524,2.023,2.0851,2.1356,1.9504,0.0,1.9579,1.9095,0.0,1.8999,1.8999,0.0,0.0,1.8446,1.9263,1.9796,1.9239,2.0153,2.1091,2.162,2.2077,2.2558,2.3015,2.3953,2.4712,2.5276,2.53,2.5781,2.6825,2.6898,2.7378,2.8474,2.8522,2.8522,2.8522,2.8522,2.8522,2.8522,2.8522,2.8522,2.8522,2.8522,2.8811,2.934,2.9869,3.0374,3.0946,3.15,3.1669,3.1573,3.1235,3.1023,3.1067,3.1669,3.2491,3.3428,1.5449,1.541,1.5625,1.6328,1.657,1.6921,1.7637,1.8841,1.9757,2.0068,2.1284,2.225,2.2551,2.3318,2.3722,2.3481,2.3481,2.324,2.271,2.2438,2.2053,2.1428,2.0971,2.0418,1.982,1.9579,1.9287,1.8999,1.8999,1.8999,1.8999,1.8999,1.8879,1.8638,1.835,1.8253,1.8326,1.8253,1.8374,1.871,1.9266,1.9768,2.0298,2.0514,2.1115,2.1885,2.2125,2.2197,2.2173,2.1933,2.1861,2.1765,2.1235,2.1067,2.0995,2.0682,2.061,2.0682,2.0995,2.1187,2.1187,2.0827,2.0754,2.0562,1.9676,1.9411,1.9263,1.9047,0.0,0.0,0.0,0.0,0.0,0.0,1.9287,1.9627,1.9098,1.9648,2.0322,2.0875,2.1404,2.2077,2.2927,2.3376,2.3977,2.476,2.4843,2.5288,2.6382,2.6729,2.7234,2.8017,2.8354,2.8522,2.8522,2.8522,2.8522,2.8522,2.8522,2.8522,2.8522,2.8522,2.8619,2.8883,2.9725,3.0206,3.047,3.1356,3.1717,3.1645,3.1115,3.1115,3.1452,3.1961,3.2635,3.3356,1.5801,1.5781,1.5985,1.6746,1.6882,1.7181,1.8127,1.9101,1.9992,2.0807,2.2001,2.3024,2.3661,2.4116,2.4324,2.4001,2.4131,2.3938,2.3264,2.3095,2.263,2.1861,2.1572,2.1043,2.0278,1.9965,1.9627,1.9242,1.9071,1.8999,1.8999,1.8999,1.8999,1.8975,1.859,1.871,1.9167,1.8782,1.8951,1.948,1.9865,2.0346,2.0851,2.1,2.153,2.2197,2.2197,2.2197,2.2197,2.2197,2.2197,2.2125,2.174,2.162,2.1548,2.1163,2.1043,2.1139,2.1524,2.1452,2.1284,2.138,2.0923,2.0398,2.0081,1.9817,1.9576,1.9263,1.9336,0.0,0.0,0.0,1.8951,1.8806,0.0,1.9411,1.8855,1.9215,1.9768,2.0322,2.0995,2.1813,2.2903,2.3023,2.3352,2.4242,2.4434,2.488,2.5829,2.6513,2.7138,2.7666,2.8234,2.8522,2.8522,2.8522,2.8522,2.8522,2.8522,2.8522,2.8522,2.8522,2.8595,2.8787,2.9701,3.0158,3.0374,3.1332,3.1717,3.1645,3.1115,3.1235,3.1765,3.2298,3.2827,3.338,1.657,1.6668,1.6804,1.7285,1.7396,1.7731,1.8816,1.8788,1.9208,2.0716,2.1708,2.2622,2.3421,2.5004,2.5612,2.4578,2.4963,2.4819,2.3842,2.3288,2.2999,2.2975,2.1957,2.138,2.1356,2.0322,1.9796,1.9772,1.9239,1.8999,1.8999,1.8999,1.8999,1.8999,1.8975,1.9263,1.9772,1.9772,2.0057,2.0562,2.0557,2.0899,2.1428,2.1957,2.2173,2.2197,2.2197,2.2197,2.2197,2.2197,2.2197,2.2197,2.2173,2.2173,2.2173,2.2149,2.2149,2.2149,2.2173,2.2534,2.2654,2.1668,2.1765,2.1837,2.0827,2.0971,2.1019,1.9989,2.0177,2.0249,1.9191,1.8999,1.8831,1.8301,1.8662,0.0,0.0,1.8686,1.9215,1.9772,2.0754,2.1813,2.2903,2.3023,2.324,2.3794,2.4242,2.4747,2.53,2.6321,2.7138,2.7666,2.8234,2.8522,2.8522,2.8522,2.8522,2.8522,2.8522,2.8522,2.8522,2.8522,2.8787,2.9316,2.9845,3.0374,3.0946,3.1476,3.1717,3.1645,3.1115,3.1235,3.1765,3.2298,3.2827,3.3428,1.7129,1.7383,1.7539,1.7402,1.7383,1.7717,1.8611,1.9521,2.0456,2.1385,2.3113,2.442,2.4857,2.5948,2.6465,2.6105,2.5949,2.554,2.4843,2.429,2.3688,2.3047,2.263,2.2125,2.1428,2.1043,2.049,1.9796,1.9627,1.9363,1.8999,1.8999,1.8999,1.8999,1.8999,1.9095,1.9287,1.9652,1.9777,1.979,2.027,2.0916,2.1632,2.2063,2.2197,2.2197,2.2197,2.2197,2.2197,2.2197,2.2197,2.2197,2.2197,2.2197,2.2197,2.2197,2.2197,2.2197,2.2197,2.2318,2.2294,2.1572,2.1548,2.1476,2.0754,2.073,2.0779,2.0418,2.0177,2.0057,2.0057,1.948,1.9047,1.9215,1.9095,1.8927,0.0,1.8879,1.9191,1.9748,2.0442,2.1163,2.1861,2.2246,2.2678,2.324,2.377,2.4242,2.4747,2.6105,2.697,2.7162,2.8065,2.8522,2.8522,2.8522,2.8522,2.8522,2.8522,2.8522,2.8522,2.8522,2.8811,2.934,2.9869,3.0374,3.0946,3.15,3.1717,3.1693,3.15,3.1548,3.1765,3.2298,3.2827,3.3428,1.7578,1.7812,1.793,1.7656,1.7734,1.8008,1.852,2.0106,2.141,2.1765,2.3653,2.5122,2.5562,2.6278,2.6785,2.6884,2.6767,2.6358,2.5636,2.5083,2.441,2.3568,2.3183,2.2654,2.1981,2.1596,2.1067,2.037,1.9989,1.9627,1.9263,1.9071,1.8999,1.8999,1.8999,1.9138,1.9412,1.9746,1.9932,2.0012,2.0504,2.109,2.1714,2.18,2.1925,2.2018,2.2018,2.1956,2.1862,2.1987,2.2018,2.2018,2.2018,2.208,2.2197,2.2197,2.2197,2.2197,2.2197,2.2197,2.2125,2.1765,2.1692,2.1596,2.1265,2.1308,2.1356,2.0971,2.0754,2.0634,2.061,1.9865,1.9411,1.9748,1.9336,1.8999,0.0,1.8999,1.9191,1.9748,2.0105,2.061,2.1332,2.1716,2.2125,2.2686,2.3408,2.3938,2.4242,2.5913,2.6898,2.6898,2.7969,2.8522,2.8522,2.8522,2.8522,2.8522,2.8522,2.8522,2.8522,2.8522,2.8907,2.9605,2.9941,3.0494,3.1235,3.1573,3.1717,3.1717,3.1717,3.1717,3.1789,3.2515,3.3236,3.3909,1.793,1.8027,1.8047,1.8047,1.8344,1.8617,1.8656,2.0504,2.1869,2.1818,2.3349,2.4741,2.5506,2.6096,2.6604,2.6942,2.7402,2.7272,2.6214,2.5636,2.5107,2.4496,2.3568,2.3039,2.3023,2.2005,2.1452,2.1404,2.037,1.9868,1.9796,1.9263,1.9023,1.9023,1.9023,1.9436,2.0123,2.0147,2.0524,2.1169,2.1169,2.1336,2.162,2.1296,2.1336,2.1651,2.1683,2.1463,2.1265,2.1557,2.1683,2.1683,2.1683,2.1917,2.219,2.219,2.2214,2.2238,2.2214,2.219,2.219,2.2197,2.2197,2.2197,2.2197,2.2582,2.2654,2.1644,2.1813,2.1837,2.0856,2.023,1.9868,1.9892,1.9435,1.9071,1.9071,1.9071,1.9263,1.9796,1.9844,2.0225,2.126,2.138,2.162,2.2125,2.3192,2.3794,2.3794,2.5781,2.6898,2.6898,2.7969,2.8522,2.8522,2.8522,2.8522,2.8522,2.8522,2.8522,2.8522,2.8546,2.91,3.0037,3.011,3.073,3.1669,3.1693,3.1717,3.1717,3.1717,3.1741,3.191,3.2899,3.3933,3.4703,1.7988,1.8227,1.8442,1.8442,1.852,1.8812,1.9455,2.0835,2.1832,2.1849,2.3612,2.5054,2.5672,2.6481,2.7295,2.8035,2.7834,2.7402,2.6729,2.619,2.5492,2.452,2.4266,2.3761,2.3023,2.2734,2.2197,2.1404,2.1115,2.0586,1.9796,1.9676,1.9603,1.9603,1.9603,1.9769,2.0147,2.0523,2.0727,2.0732,2.0496,2.0571,2.086,2.0529,2.0593,2.0924,2.121,2.1296,2.1233,2.1296,2.1328,2.1328,2.1328,2.1614,2.1971,2.1971,2.2227,2.2478,2.2389,2.2335,2.2305,2.2231,2.2197,2.2197,2.2197,2.2294,2.2318,2.2053,2.1789,2.1644,2.1765,2.1019,2.0538,2.0923,2.0538,2.0201,2.0201,2.0201,2.0249,2.0394,2.037,2.0494,2.0783,2.1163,2.1452,2.1596,2.2975,2.3794,2.3794,2.5781,2.6898,2.6898,2.7969,2.8522,2.8522,2.8522,2.8522,2.8522,2.8522,2.8522,2.8522,2.8907,2.9244,2.9532,3.0326,3.0874,3.1163,3.1548,3.1717,3.1717,3.1717,3.2199,3.2899,3.3188,3.3933,3.4751,1.8247,1.8633,1.8984,1.9124,1.9355,1.9648,2.0117,2.1318,2.2218,2.2392,2.3618,2.4716,2.5367,2.5793,2.6547,2.7794,2.7655,2.7435,2.7282,2.6767,2.6093,2.5252,2.4771,2.4145,2.3384,2.3144,2.2582,2.174,2.1524,2.1091,2.0466,2.0037,1.9941,2.0133,1.9916,2.0032,2.0446,2.0688,2.0705,2.0571,2.0237,2.0302,0.0,2.0237,2.0302,2.0603,2.069,2.0722,2.0754,2.0892,2.0924,2.0924,2.0924,2.1384,2.1894,2.1894,2.2078,2.2271,2.2194,2.2004,2.1868,2.1777,2.1769,2.18,2.1956,2.1987,2.2018,2.2166,2.1957,2.1837,2.2125,2.1524,2.0971,2.1043,2.0803,2.0581,2.0581,2.0581,2.0706,2.0923,2.073,2.0682,2.0952,2.1211,2.15,2.174,2.3047,2.3794,2.3794,2.5781,2.6898,2.6898,2.7969,2.8522,2.8522,2.8522,2.8522,2.8522,2.8522,2.8522,2.8522,2.9051,2.9292,2.9364,3.0422,3.0922,3.0946,3.15,3.1717,3.1717,3.1717,3.2223,3.2971,3.3212,3.3933,3.4751,1.8676,1.9062,1.9492,1.9844,2.0332,2.0703,2.0762,2.1807,2.2692,2.3002,2.3412,2.4013,2.4839,2.4661,2.5168,2.6899,2.7075,2.7232,2.752,2.7076,2.6598,2.6117,2.5155,2.4386,2.3914,2.3384,2.2855,2.2294,2.1765,2.1476,2.138,2.0442,2.0278,2.0687,2.023,2.0366,2.0925,2.071,2.0571,2.0506,2.0205,2.027,2.0506,2.0205,2.027,2.0506,2.0205,2.0107,2.0161,2.0531,2.0628,2.065,2.0717,2.1272,2.1967,2.1967,2.2013,2.2036,2.2001,2.1724,2.1413,2.1376,2.1385,2.1481,2.1831,2.1894,2.1966,2.2231,2.2294,2.227,2.2197,2.1813,2.1356,2.0899,2.0827,2.0827,2.0827,2.0827,2.0995,2.1452,2.1091,0.0,2.1452,2.1452,2.1596,2.2053,2.3168,2.3794,2.3794,2.5709,2.6825,2.6898,2.7858,2.845,2.8522,2.8522,2.8522,2.8522,2.8522,2.8522,2.8522,2.9051,2.9268,2.9268,3.0374,3.0874,3.0807,3.1452,3.1717,3.1717,3.1717,3.2102,3.2659,3.3116,3.3933,3.4703,1.9102,1.9512,1.9824,1.9902,2.0547,2.123,2.1602,2.2136,2.2515,2.2594,2.2968,2.3571,2.4491,2.4532,2.4914,2.5944,2.635,2.6559,2.6648,2.6354,2.6214,2.6093,2.5516,2.4915,2.441,2.3905,2.3408,2.2879,2.2318,2.1837,2.1404,2.1211,2.1163,2.126,2.1163,2.1121,2.1126,2.0773,2.0464,2.0172,2.0107,2.014,2.0172,2.0107,2.014,2.0172,2.0107,2.0107,2.0172,2.0665,2.0863,2.0929,2.1313,2.1809,2.224,2.224,2.2504,2.2797,2.2684,2.2575,2.2487,2.24,2.2353,2.2453,2.2854,2.2944,2.2926,2.2855,2.2879,2.2702,2.227,2.2125,2.2029,2.1933,2.1909,2.1909,2.1909,2.1909,2.1957,2.2053,2.1981,2.1957,2.2053,2.1668,2.1452,2.1548,2.2919,2.3794,2.3794,2.5348,2.6454,2.6873,2.7498,2.8065,2.8498,2.8522,2.8522,2.8522,2.8522,2.8522,2.8522,2.9051,2.9051,2.8739,3.023,3.0639,3.0302,3.1308,3.1717,3.1717,3.1717,3.2319,3.3164,3.326,3.3933,3.4775,1.9863,2.0117,2.0332,2.0566,2.1133,2.1719,2.2148,2.2559,2.2883,2.3112,2.2932,2.3094,2.3988,2.3894,2.4145,2.5041,2.529,2.5505,2.5748,2.5831,2.5751,2.5483,2.5373,2.5059,2.4496,2.429,2.3761,2.3023,2.2727,2.2342,2.1813,2.1524,2.1548,2.1813,2.1636,2.1533,2.14,2.0828,2.0662,2.0743,2.0282,2.0412,2.0827,2.062,2.0511,2.0511,2.0511,2.0325,2.0194,2.0741,2.0894,2.0982,2.1428,2.1931,2.2324,2.2324,2.2477,2.2623,2.2548,2.2377,2.2147,2.2112,2.208,2.2217,2.2798,2.2933,2.3055,2.335,2.3433,2.3264,2.2702,2.2366,2.2197,2.2197,2.2197,2.2197,2.2197,2.2197,2.2197,2.2197,2.2197,2.2197,2.2197,2.1957,2.1813,2.1813,2.2775,2.3505,2.3794,2.4987,2.6069,2.6873,2.7402,2.7969,2.8498,2.8522,2.8522,2.8522,2.8522,2.8522,2.8522,2.9051,2.9003,2.857,2.9893,3.0326,3.0158,3.1284,3.1548,3.1332,3.1597,3.2199,3.2923,3.3188,3.3933,3.4775,2.0625,2.0742,2.084,2.1289,2.1738,2.2129,2.2461,2.2828,2.3225,2.3507,2.302,2.285,2.3509,2.3275,2.3387,2.4166,2.4277,2.4493,2.4856,2.5245,2.5287,2.4926,2.517,2.5072,2.456,2.4441,2.3953,2.3099,2.2958,2.2655,2.2217,2.1782,2.1758,2.2104,2.1926,2.1753,2.1617,2.1131,2.1129,2.1363,2.072,2.087,2.1559,2.12,2.1047,2.1047,2.1047,2.0773,2.05,2.1013,2.1069,2.0982,2.1428,2.1931,2.2324,2.2324,2.239,2.2455,2.2455,2.2193,2.1887,2.1887,2.1887,2.2064,2.2764,2.2972,2.319,2.3718,2.3824,2.3673,2.3264,2.2734,2.239,2.251,2.2311,2.2128,2.2248,2.2176,2.2049,2.1987,2.2104,2.2166,2.208,2.2166,2.2197,2.2197,2.2775,2.336,2.377,2.4747,2.5769,2.6873,2.7306,2.7834,2.8498,2.8522,2.8522,2.8522,2.8522,2.8522,2.8522,2.8955,2.8907,2.857,2.9629,3.0206,3.0494,3.1356,3.1452,3.1115,3.1548,3.2082,3.2731,3.314,3.3933,3.4775,2.1034,2.1132,2.1309,2.1758,2.2168,2.2461,2.25,2.2828,2.3125,2.3173,2.3086,2.3086,2.3173,2.3105,2.3144,2.3212,2.3586,2.3825,2.3929,2.452,2.4897,2.4903,2.517,2.5123,2.4779,2.4307,2.3827,2.3375,2.2731,2.2436,2.2389,2.2209,2.197,2.1769,2.2145,2.1989,2.1441,2.18,2.1818,2.1551,2.1507,2.1516,2.1581,2.1538,2.1516,2.1516,2.1516,2.1494,2.1538,2.2018,2.1603,2.0982,2.1428,2.1931,2.2324,2.2324,2.2608,2.2936,2.2936,2.2914,2.287,2.287,2.287,2.2981,2.3422,2.3786,2.4032,2.4002,2.3895,2.3794,2.3746,2.3288,2.3063,2.3577,2.2575,2.1934,2.2398,2.2052,2.162,2.1328,2.1831,2.208,2.1776,2.2018,2.2197,2.2197,2.3168,2.3746,2.3794,2.4747,2.5769,2.6873,2.6946,2.745,2.8498,2.8522,2.8522,2.8522,2.8522,2.8522,2.8522,2.857,2.857,2.857,2.9629,3.0639,3.1573,3.1669,3.1669,3.1645,3.1693,3.2343,3.3212,3.326,3.3933,3.4775,2.1602,2.1621,2.1758,2.2187,2.2402,2.2598,2.2808,2.2984,2.3101,2.3101,2.3101,2.3101,2.3101,2.3101,2.3101,2.3101,2.3229,2.3168,2.269,2.3758,2.4237,2.3787,2.456,2.4957,2.4801,2.4352,2.3883,2.3407,2.3374,2.3203,2.2897,2.2817,2.2592,2.2263,2.2238,2.206,2.1811,2.1806,2.1897,2.1996,2.1712,2.1931,2.2411,2.2127,2.2018,2.2018,2.2018,2.1843,2.1625,2.1822,2.1822,2.1822,2.228,2.2564,2.2717,2.2717,2.2848,2.3001,2.3001,2.3001,2.3001,2.3001,2.3001,2.3113,2.3519,2.3703,2.3877,2.4068,2.4014,2.3912,2.3912,2.3485,2.3167,2.3413,2.2549,2.1892,2.2101,2.1716,2.1336,2.1233,2.1454,2.1549,2.14,2.1706,2.2012,2.2369,2.2966,2.3481,2.3794,2.4747,2.5769,2.6873,2.721,2.7714,2.8498,2.8522,2.8522,2.8522,2.8522,2.8522,2.8522,2.8522,2.8691,2.9027,2.9773,3.0561,3.1259,3.1573,3.1717,3.1717,3.1717,3.2367,3.3284,3.3284,3.3933,3.4775,2.1842,2.1945,2.2081,2.2403,2.2524,2.2664,2.2867,2.2882,2.2882,2.2882,2.2882,2.2969,2.3101,2.3101,2.3101,2.3101,2.3101,2.2789,2.2109,2.3407,2.3911,2.3198,2.421,2.4765,2.4657,2.4236,2.38,2.3257,2.3524,2.3445,2.3097,2.3037,2.2832,2.2457,2.234,2.2234,2.2151,2.2037,2.2193,2.2499,2.2149,2.2411,2.2957,2.263,2.2521,2.2521,2.2521,2.2302,2.1996,2.1996,2.2237,2.2521,2.2564,2.2673,2.2805,2.2805,2.2892,2.3001,2.3001,2.3001,2.3001,2.3001,2.3001,2.3075,2.3372,2.3519,2.3703,2.4127,2.4116,2.4073,2.4073,2.3618,2.3315,2.3478,2.2638,2.2002,2.2172,2.1762,2.1476,2.1476,2.167,2.1735,2.1638,2.1961,2.223,2.2531,2.2893,2.3361,2.3977,2.4882,2.5791,2.6699,2.7133,2.7577,2.8099,2.8139,2.8139,2.8139,2.8139,2.8179,2.8323,2.8587,2.8946,2.9391,3.0044,3.0529,3.097,3.146,3.1717,3.1717,3.1717,3.2367,3.3284,3.3284,3.3933,3.4775,2.1698,2.2007,2.2227,2.2366,2.2618,2.2706,2.2441,2.2397,2.2397,2.2397,2.2397,2.2574,2.3057,2.3101,2.3101,2.3101,2.3101,2.2906,2.2539,2.3533,2.4024,2.3618,2.4356,2.4598,2.4236,2.3813,2.3409,2.3001,2.2883,2.2818,2.2818,2.2685,2.2423,2.2136,2.2594,2.2604,2.2346,2.2783,2.2979,2.3001,2.2979,2.2979,2.3001,2.3001,2.3001,2.3001,2.3001,2.2979,2.2979,2.2979,2.2979,2.2826,2.1909,2.1931,2.2324,2.2324,2.2652,2.3001,2.3001,2.3001,2.3001,2.3001,2.3001,2.3001,2.3001,2.3298,2.3703,2.4127,2.42,2.4177,2.4177,2.3764,2.3568,2.4085,2.3011,2.2271,2.2799,2.244,2.2114,2.2171,2.2764,2.3045,2.273,2.3001,2.3011,2.2639,2.3086,2.3735,2.4438,2.5123,2.5765,2.6282,2.6371,2.668,2.7226,2.7226,2.7226,2.7226,2.7226,2.7452,2.7945,2.8848,2.9308,2.9451,3.0467,3.0906,3.0937,3.1472,3.1717,3.1717,3.1717,3.2367,3.3284,3.3284,3.3933,3.4775,2.217,2.2296,2.2334,2.2378,2.2485,2.2485,2.2397,2.2397,2.2397,2.2397,2.2397,2.2441,2.2618,2.2618,2.2618,2.2618,2.2794,2.2708,2.2326,2.3043,2.3374,2.3199,2.3429,2.3629,2.3776,2.3409,2.315,2.3001,2.3216,2.3369,2.3346,2.3298,2.3086,2.2724,2.2842,2.2893,2.2805,2.2936,2.3001,2.3001,2.3001,2.3001,2.3001,2.3001,2.3001,2.3001,2.3001,2.3001,2.3001,2.3001,2.3001,2.2957,2.2652,2.2652,2.2783,2.2783,2.2892,2.3001,2.3001,2.3001,2.3001,2.3001,2.3001,2.3001,2.3001,2.3113,2.3224,2.3372,2.3593,2.3776,2.3776,2.3663,2.3596,2.3754,2.2911,2.2306,2.246,2.2064,2.1755,2.179,2.1998,2.2067,2.1964,2.2252,2.2559,2.2795,2.3152,2.3651,2.4188,2.5113,2.5847,2.6332,2.672,2.7024,2.7185,2.7185,2.7185,2.7185,2.7185,2.7267,2.7452,2.8398,2.8873,2.8981,3.0017,3.0623,3.0892,3.0758,3.0847,3.116,3.116,3.18,3.2794,3.3191,3.3933,3.4775,2.2132,2.222,2.2264,2.2132,2.222,2.2264,2.2132,2.2132,2.2132,2.2132,2.2132,2.2132,2.2132,2.2132,2.222,2.2397,2.2574,2.249,2.2069,2.2707,2.292,2.2559,2.2922,2.3138,2.3261,2.3075,2.3001,2.3001,2.3261,2.3372,2.3372,2.3372,2.3224,2.3001,2.3001,2.3001,2.3001,2.3001,2.3001,2.3001,2.3001,2.3001,2.3001,2.3001,2.3001,2.3001,2.3001,2.3001,2.3001,2.3001,2.3001,2.3001,2.3001,2.3001,2.3001,2.3001,2.3001,2.3001,2.3001,2.3001,2.3001,2.3001,2.3001,2.3001,2.3001,2.3001,2.3001,2.3001,2.3187,2.3372,2.3372,2.3372,2.3372,2.3372,2.2908,2.2586,2.2586,2.2302,2.2199,2.2342,2.2342,2.2342,2.2342,2.2533,2.2737,2.292,2.3301,2.3748,2.4206,2.5004,2.5649,2.6149,2.6526,2.6693,2.6693,2.6693,2.6693,2.6715,2.7062,2.7235,2.73,2.8364,2.883,2.876,2.9771,3.0254,3.0352,3.0261,3.0352,3.0623,3.0623,3.1297,3.2253,3.2559,3.3362,3.4188,2.1687,2.1909,2.1998,2.1731,2.1928,2.2017,2.1731,2.1687,2.1687,2.1687,2.1687,2.1687,2.1687,2.1687,2.1865,2.2309,2.2353,2.2227,2.1811,2.2461,2.2549,2.1809,2.2613,2.2981,2.2665,2.2852,2.2964,2.3001,2.3001,2.3001,2.3001,2.3001,2.3001,2.3001,2.3001,2.3001,2.3001,2.3001,2.3001,2.3001,2.3001,2.3001,2.3001,2.3001,2.3001,2.3001,2.3001,2.3001,2.3001,2.3001,2.3001,2.3001,2.3001,2.3001,2.3001,2.3001,2.3001,2.3001,2.3001,2.3001,2.3001,2.3001,2.3001,2.3001,2.3001,2.3001,2.3001,2.3001,2.3001,2.3001,2.3001,2.3001,2.3001,2.3001,2.3001,2.3001,2.3001,2.3001,2.315,2.3519,2.3556,2.3556,2.3556,2.3556,2.3431,2.3082,2.3422,2.3962,2.4508,2.4842,2.5261,2.5775,2.5873,2.5906,2.5906,2.5906,2.5906,2.5906,2.6812,2.7269,2.7292,2.8716,2.9103,2.8679,2.9715,2.9897,2.9531,2.9943,3.0125,3.017,3.0125,3.0766,3.1636,3.1638,3.2302,3.3197,2.1687,2.1731,2.1776,2.1687,2.1731,2.1776,2.1687,2.1687,2.1687,2.1687,2.1687,2.1687,2.1687,2.1687,2.1731,2.1865,2.2043,2.2007,2.1577,2.1621,2.1552,2.1371,2.1272,2.1555,2.2214,2.2289,2.2553,2.3001,2.3001,2.3001,2.3001,2.3001,2.3001,2.3001,2.3001,2.3001,2.3001,2.3001,2.3001,2.3001,2.3001,2.3001,2.3001,2.3001,2.3001,2.3001,2.3001,2.3001,2.3001,2.3001,2.3001,2.3001,2.3001,2.3001,2.3001,2.3001,2.3001,2.3001,2.3001,2.3001,2.3001,2.3001,2.3001,2.3001,2.3001,2.3001,2.3001,2.3001,2.3001,2.3001,2.3001,2.3001,2.3001,2.3001,2.3001,2.3001,2.3001,2.3001,2.3038,2.315,2.315,2.315,2.315,2.315,2.3229,2.3525,2.3618,2.4115,2.5007,2.5132,2.5392,2.5876,2.5883,2.5906,2.5906,2.5906,2.5906,2.5906,2.6472,2.6756,2.6843,2.8276,2.8679,2.8205,2.9238,2.9577,2.9485,2.9209,2.9347,2.9624,2.9263,2.9962,3.116,3.1154,3.2053,3.3197,2.1687,2.1687,2.1687,2.1687,2.1687,2.1687,2.1687,2.1687,2.1687,2.1687,2.1687,2.1687,2.1687,2.1687,2.1687,2.1687,2.182,2.1743,2.1343,2.1206,2.0983,2.0626,2.0659,2.086,2.1223,2.151,2.1987,2.259,2.2852,2.3001,2.3001,2.3001,2.3001,2.3001,2.3001,2.3001,2.3001,2.3001,2.3001,2.3001,2.3001,2.3001,2.3001,2.3001,2.3001,2.3001,2.3001,2.3001,2.3001,2.3001,2.3001,2.3001,2.3001,2.3001,2.3001,2.3001,2.3001,2.3001,2.3001,2.3001,2.3001,2.3001,2.3001,2.3001,2.3001,2.3001,2.3001,2.3001,2.3001,2.3001,2.3001,2.3001,2.3001,2.3001,2.3001,2.3001,2.3001,2.3001,2.3001,2.3001,2.3198,2.3329,2.3329,2.3547,2.3787,2.405,2.4268,2.4618,2.5182,2.5382,2.5622,2.5884,2.5906,2.5906,2.5906,2.5906,2.5906,2.5906,2.6605,2.6889,2.6977,2.8208,2.8649,2.8375,2.896,2.9163,2.9163,2.8885,2.8932,2.9141,2.8897,2.954,3.0652,3.0625,3.1416,3.2493,2.1687,2.1687,2.1687,2.1687,2.1687,2.1687,2.1687,2.1687,2.1687,2.1687,2.1687,2.1687,2.1687,2.1687,2.1687,2.1687,2.1687,2.1522,2.1126,2.1053,2.0686,1.993,2.0329,2.0442,2.0216,2.0857,2.1433,2.1949,2.2478,2.274,2.274,2.2815,2.2815,2.274,2.2927,2.2964,2.2852,2.2964,2.3001,2.3001,2.3001,2.3001,2.3001,2.3001,2.3001,2.3001,2.3001,2.3001,2.3001,2.3001,2.3001,2.3001,2.3001,2.3001,2.3001,2.3001,2.3001,2.3001,2.3001,2.3001,2.3001,2.3001,2.3001,2.3001,2.3001,2.3001,2.3001,2.3001,2.3001,2.3001,2.3001,2.3001,2.3001,2.3001,2.3001,2.3001,2.3001,2.3067,2.311,2.311,2.3547,2.3814,2.3814,2.4224,2.4508,2.4596,2.4945,2.5248,2.5314,2.5666,2.5906,2.5906,2.5906,2.5906,2.5906,2.5906,2.5906,2.5906,2.678,2.7239,2.7348,2.8244,2.8727,2.8792,2.8792,2.8792,2.8792,2.8792,2.8792,2.8792,2.8727,2.9292,3.0209,3.0122,3.0756,3.1629,2.1687,2.1687,2.1687,2.1687,2.1687,2.1687,2.1687,2.1687,2.1687,2.1687,2.1687,2.1687,2.1687,2.1687,2.1687,2.1687,2.1687,2.1522,2.1126,2.0796,2.0411,1.9912,1.9666,1.9762,2.0196,2.0857,2.1242,2.1357,2.1433,2.1471,2.151,2.2025,2.1987,2.151,2.2553,2.2703,2.2289,2.2777,2.3001,2.3001,2.3001,2.3001,2.3001,2.3001,2.3001,2.3001,2.3001,2.3001,2.3001,2.3001,2.3001,2.3001,2.3001,2.3001,2.3001,2.3001,2.3001,2.3001,2.3001,2.3001,2.3001,2.3001,2.3001,2.3001,2.3001,2.3001,2.3001,2.3001,2.3001,2.3001,2.3001,2.3001,2.3001,2.3001,2.3001,2.3001,2.3001,2.3351,2.3575,2.3575,2.4071,2.4377,2.4377,2.4443,2.4639,2.5073,2.5182,2.536,2.5775,2.5863,2.5906,2.5906,2.5906,2.5906,2.5906,2.5906,2.5906,2.5906,2.6474,2.6933,2.7326,2.7849,2.8375,2.8792,2.8792,2.8792,2.8792,2.8792,2.8792,2.8749,2.8309,2.8986,3.0166,2.9751,3.045,3.1629,2.1687,2.1687,2.1687,2.1687,2.1687,2.1687,2.1687,2.1687,2.1687,2.1687,2.1687,2.1687,2.1687,2.1687,2.1687,2.1687,2.1687,2.1614,2.1456,2.1071,2.0759,2.0534,1.993,1.9651,1.9687,2.0352,2.0663,2.0663,2.1011,2.1203,2.1203,2.1471,2.1471,2.1242,2.2138,2.2365,2.2138,2.274,2.3001,2.3001,2.3001,2.3001,2.3001,2.3001,2.3001,2.3001,2.3001,2.3001,2.3001,2.3001,2.3001,2.3001,2.3001,2.3001,2.3001,2.3001,2.3001,2.3001,2.3001,2.3001,2.3001,2.3001,2.3001,2.3001,2.3001,2.3198,2.3394,2.3394,2.3394,2.3394,2.3394,2.3176,2.3088,2.3351,2.3176,2.3088,2.3351,2.3553,2.3684,2.3684,2.4399,2.4898,2.4898,2.5098,2.5338,2.5557,2.5557,2.5666,2.5884,2.5906,2.5906,2.5906,2.5906,2.5906,2.5906,2.5906,2.6037,2.6299,2.678,2.7195,2.7674,2.82,2.8549,2.8792,2.8792,2.8792,2.8792,2.8792,2.8792,2.8771,2.8506,2.9161,3.0188,2.9969,3.0624,3.1629,2.1687,2.1687,2.1687,2.1687,2.1687,2.1687,2.1687,2.1687,2.1687,2.1687,2.1687,2.1687,2.1687,2.1687,2.1687,2.1687,2.1687,2.1687,2.1687,2.1394,2.1218,2.1108,2.0314,1.9692,1.9311,1.9726,2.0058,2.0114,2.0566,2.08,2.0898,2.0935,2.0895,2.0779,2.1548,2.1873,2.1949,2.2553,2.2852,2.3001,2.3001,2.3001,2.3001,2.3001,2.3001,2.3001,2.3001,2.3001,2.3001,2.3001,2.3001,2.3023,2.3132,2.3176,2.3198,2.3307,2.3351,2.3307,2.3067,2.3001,2.3001,2.3001,2.3088,2.3176,2.3176,2.3547,2.3919,2.3919,2.3919,2.3919,2.3919,2.3591,2.3482,2.3853,2.3591,2.3482,2.3853,2.4006,2.4071,2.4071,2.4814,2.5338,2.5338,2.5688,2.5906,2.5906,2.5906,2.5906,2.5906,2.5906,2.5906,2.5906,2.5906,2.5906,2.5906,2.5906,2.6147,2.6584,2.6977,2.7413,2.8002,2.8418,2.8683,2.8792,2.8792,2.8792,2.8792,2.8792,2.8792,2.8792,2.8792,2.9358,3.0209,3.0209,3.0799,3.1629,2.1687,2.1687,2.1687,2.1687,2.1687,2.1687,2.1687,2.1687,2.1687,2.1687,2.1687,2.1687,2.1687,2.1687,2.1687,2.1687,2.1687,2.1687,2.1687,2.1668,2.1467,2.1126,2.0314,1.9692,1.9311,1.9332,1.9534,1.992,1.9614,1.9614,2.0001,2.0191,1.9962,1.949,2.0741,2.128,2.1318,2.1911,2.2478,2.3001,2.3001,2.3001,2.3001,2.3001,2.3001,2.3001,2.3001,2.3001,2.3001,2.3001,2.3001,2.3088,2.3487,2.364,2.3766,2.4246,2.4377,2.4181,2.3241,2.3001,2.3001,2.3001,2.3351,2.364,2.364,2.4071,2.4443,2.4443,2.4443,2.4443,2.4443,2.4399,2.4399,2.4421,2.4399,2.4399,2.4421,2.4832,2.5117,2.5117,2.5535,2.5841,2.5841,2.5884,2.5906,2.5906,2.5906,2.5906,2.5906,2.5906,2.5906,2.5906,2.5906,2.5906,2.5906,2.5906,2.6147,2.6584,2.6628,2.7107,2.8002,2.8023,2.8331,2.8792,2.8792,2.8792,2.8792,2.8792,2.8792,2.8792,2.8792,2.9358,3.0209,3.0209,3.0799,3.1629,2.1687,2.1687,2.1687,2.1687,2.1687,2.1687,2.1687,2.1687,2.1687,2.1687,2.1687,2.1687,2.1687,2.1687,2.1687,2.1687,2.1687,2.1687,2.1687,2.1687,2.1504,2.1126,2.0814,2.0466,2.0063,1.9824,1.9769,1.9893,1.9512,1.9384,1.9531,1.9604,1.9529,1.9332,2.0196,2.0586,2.0624,2.128,2.1662,2.1928,2.2289,2.244,2.2478,2.2852,2.3001,2.3001,2.3001,2.3001,2.3001,2.3001,2.3001,2.3088,2.3531,2.3684,2.3793,2.4115,2.4147,2.4003,2.3616,2.3587,2.3625,2.3509,2.362,2.3749,2.3749,2.4135,2.4559,2.4659,2.47,2.474,2.4902,2.4683,2.4596,2.4898,2.4683,2.4596,2.488,2.5095,2.5204,2.5204,2.56,2.5906,2.5906,2.5906,2.5906,2.5906,2.5906,2.5906,2.5906,2.5906,2.5906,2.5906,2.5906,2.5906,2.5906,2.5906,2.6147,2.6584,2.6911,2.7347,2.8002,2.8353,2.8639,2.8792,2.8792,2.8792,2.8792,2.8792,2.8792,2.8836,2.9142,2.962,3.0253,3.0537,3.1061,3.1629,2.1687,2.1687,2.1687,2.1687,2.1687,2.1687,2.1687,2.1687,2.1687,2.1687,2.1687,2.1687,2.1687,2.1687,2.1687,2.1687,2.1687,2.1687,2.1687,2.1687,2.1504,2.1126,2.1108,2.0924,2.0521,2.0204,2.0131,2.0301,1.9769,1.9567,1.9677,1.9421,1.9292,1.9292,1.9726,2.0001,2.0235,2.0702,2.1011,2.1242,2.1624,2.1738,2.17,2.244,2.2628,2.2531,2.2889,2.3088,2.322,2.3144,2.3215,2.3433,2.3833,2.4054,2.4187,2.4411,2.4335,2.4213,2.4172,2.4253,2.4271,2.3892,2.3894,2.4,2.4,2.4361,2.4784,2.4887,2.4929,2.497,2.5176,2.4938,2.483,2.5133,2.4916,2.487,2.5278,2.5322,2.5322,2.5322,2.5668,2.5864,2.5822,2.5822,2.5822,2.5906,2.5759,2.5738,2.5822,2.5822,2.5822,2.5822,2.5822,2.5822,2.5822,2.5864,2.6147,2.6584,2.7086,2.7566,2.8002,2.8574,2.8792,2.8792,2.8792,2.8792,2.8792,2.8792,2.8792,2.8836,2.9164,2.9642,3.0253,3.0559,3.1083,3.1629,2.1687,2.1687,2.1687,2.1687,2.1687,2.1687,2.1687,2.1687,2.1687,2.1687,2.1687,2.1687,2.1687,2.1687,2.1687,2.1687,2.1687,2.1687,2.1687,2.1687,2.1504,2.1126,2.1108,2.0924,2.0539,2.0521,2.0723,2.1108,2.0278,2.0095,2.0461,1.9696,1.9311,1.9311,1.9311,1.9666,2.0216,2.0196,2.0586,2.1203,2.1203,2.0914,2.0624,2.1662,2.1814,2.1565,2.2628,2.3291,2.3667,2.3474,2.3698,2.4132,2.4422,2.4849,2.5189,2.5189,2.5189,2.5147,2.4956,2.4914,2.4724,2.3981,2.4149,2.4489,2.4489,2.485,2.5189,2.5189,2.5189,2.5189,2.5189,2.5189,2.5189,2.5189,2.5189,2.5295,2.557,2.5612,2.5612,2.5612,2.578,2.5822,2.5612,2.5612,2.5696,2.5906,2.5464,2.5338,2.557,2.5612,2.5612,2.5612,2.5612,2.5612,2.5612,2.5822,2.6147,2.6584,2.7086,2.7566,2.8002,2.8574,2.8792,2.8792,2.8792,2.8792,2.8792,2.8792,2.8792,2.8792,2.8814,2.9358,3.0209,3.0209,3.0821,3.1629,2.1687,2.1687,2.1687,2.1687,2.1687,2.1687,2.1687,2.1687,2.1687,2.1687,2.1687,2.1687,2.1687,2.1687,2.1687,2.1687,2.1687,2.1687,2.1687,2.1687,2.1632,2.1504,2.1504,2.1449,2.1339,2.1089,2.0998,2.1108,2.0594,2.0351,2.0479,2.0264,2.0154,2.0136,1.9861,1.9832,1.9956,1.9699,1.9687,1.9883,2.004,1.9982,1.9923,2.0643,2.1234,2.1765,2.2327,2.3071,2.3774,2.3694,2.378,2.3953,2.4381,2.4724,2.4978,2.4978,2.4871,2.47,2.4615,2.4615,2.4553,2.4325,2.4409,2.4513,2.4513,2.4617,2.4743,2.4956,2.4978,2.502,2.5147,2.5189,2.5189,2.5189,2.5189,2.5253,2.5295,2.5338,2.5338,2.5338,2.538,2.538,2.5338,2.5338,2.5338,2.5422,2.5274,2.5232,2.5338,2.5338,2.5338,2.5338,2.5338,2.5338,2.5338,2.5717,2.6147,2.6584,2.7086,2.7566,2.8002,2.8574,2.8792,2.8792,2.8792,2.8792,2.8792,2.8792,2.8792,2.8836,2.9186,2.9663,3.0253,3.0581,3.1083,3.1629,2.1925,2.1797,2.1687,2.1687,2.1687,2.1687,2.1687,2.1687,2.1687,2.1687,2.1687,2.1687,2.1687,2.1687,2.1687,2.1687,2.1687,2.1687,2.1687,2.1687,2.1687,2.1687,2.1687,2.1687,2.1687,2.1449,2.1346,2.1346,2.0943,2.0759,2.0741,2.0552,2.0521,2.0503,2.0264,2.0131,2.0095,1.9897,1.9666,1.9503,1.9625,1.9444,1.9217,1.9966,2.051,2.0916,2.1535,2.2491,2.3493,2.3412,2.368,2.4136,2.443,2.4619,2.4743,2.4743,2.4615,2.4507,2.4507,2.4507,2.4507,2.4507,2.4507,2.4507,2.4507,2.4507,2.455,2.47,2.4743,2.4786,2.4914,2.4914,2.4914,2.4914,2.4914,2.4956,2.5084,2.5062,2.5062,2.5062,2.5147,2.5147,2.5062,2.5062,2.5041,2.4956,2.5126,2.5147,2.5084,2.5062,2.5062,2.5062,2.5062,2.5062,2.5062,2.5422,2.5871,2.6325,2.691,2.7388,2.775,2.8364,2.8628,2.8628,2.8628,2.8699,2.8792,2.8792,2.8792,2.8836,2.9121,2.962,3.0253,3.0515,3.104,3.1629,2.2263,2.1943,2.1687,2.1687,2.1687,2.1687,2.1687,2.1687,2.1687,2.1687,2.1687,2.1687,2.1687,2.1687,2.1687,2.1687,2.1687,2.1687,2.1687,2.1687,2.1687,2.1687,2.1687,2.1687,2.1687,2.1687,2.1687,2.1687,2.1302,2.1163,2.1163,2.0796,2.0631,2.0631,2.0594,2.0534,2.0534,2.0497,2.0183,1.9777,1.9734,1.9162,1.85,1.9478,1.9649,1.9564,2.0497,2.1813,2.305,2.2924,2.3606,2.4507,2.4507,2.4507,2.4507,2.4507,2.4507,2.4507,2.4507,2.4507,2.4507,2.4507,2.4507,2.4507,2.4507,2.4507,2.4507,2.4507,2.4507,2.4507,2.4507,2.4507,2.4507,2.4507,2.4507,2.4572,2.4828,2.4871,2.4871,2.4871,2.5041,2.5084,2.485,2.4871,2.4786,2.4507,2.4914,2.5084,2.4871,2.4871,2.4871,2.4871,2.4871,2.4871,2.4871,2.5041,2.5423,2.5977,2.6624,2.7095,2.7402,2.8061,2.8348,2.8348,2.8348,2.8535,2.8746,2.8746,2.8768,2.8792,2.8792,2.9358,3.0209,3.0209,3.0799,3.1629,2.1815,2.1742,2.1687,2.1687,2.1687,2.1687,2.1687,2.1687,2.1687,2.1687,2.1687,2.1687,2.1687,2.1687,2.1687,2.1687,2.1687,2.1687,2.1687,2.1687,2.1687,2.1687,2.1687,2.1687,2.1687,2.1687,2.1687,2.1687,2.1595,2.1559,2.1559,2.1467,2.1431,2.1412,2.1126,2.0979,2.0918,2.0225,1.9905,1.9734,1.8973,1.8586,1.8446,1.8594,1.9062,1.9712,2.0253,2.1607,2.3209,2.3894,2.4276,2.4507,2.4507,2.4507,2.4507,2.4507,2.4507,2.4507,2.4507,2.4507,2.4507,2.4507,2.4507,2.4507,2.4507,2.4507,2.4507,2.4507,2.4507,2.4507,2.4507,2.4507,2.4507,2.4507,2.4507,2.4529,2.4572,2.4572,2.4572,2.4572,2.4615,2.4615,2.4572,2.4572,2.4572,2.4507,2.4572,2.4615,2.4572,2.4572,2.4572,2.4572,2.4572,2.4572,2.4572,2.4615,2.5247,2.6466,2.6617,2.7086,2.7849,2.8002,2.8092,2.8092,2.8092,2.8233,2.8488,2.8488,2.8628,2.8792,2.8792,2.9358,3.0209,3.0209,3.0799,3.1629,2.2309,2.2108,2.1906,2.1723,2.1687,2.1687,2.1687,2.1687,2.1687,2.1687,2.1687,2.1687,2.1687,2.1687,2.1687,2.1687,2.1687,2.1687,2.1687,2.1687,2.1687,2.1687,2.1687,2.1687,2.1687,2.1687,2.1687,2.1687,2.1687,2.1687,2.1687,2.1687,2.1687,2.1687,2.1228,2.1049,2.1031,2.0307,1.993,1.9648,1.9162,1.8807,1.86,1.8568,1.8859,1.9282,1.9526,2.0512,2.1898,2.2843,2.3474,2.382,2.382,2.4143,2.4507,2.4507,2.4507,2.4507,2.4507,2.4507,2.4507,2.4507,2.4507,2.4507,2.4507,2.4507,2.4507,2.4507,2.4507,2.4507,2.4507,2.4507,2.4507,2.4507,2.4507,2.4507,2.4507,2.4507,2.4507,2.4507,2.4507,2.4507,2.4507,2.4507,2.4507,2.4507,2.4507,2.4507,2.4507,2.4507,2.4507,2.4507,2.4507,2.4507,2.4507,2.4714,2.53,2.6256,2.6391,2.6876,2.7668,2.7762,2.7809,2.7809,2.7809,2.7951,2.8233,2.8348,2.8488,2.865,2.9008,2.9554,3.0231,3.045,3.0996,3.1629,2.2968,2.2565,2.2181,2.1851,2.1742,2.1687,2.1687,2.1687,2.1687,2.1687,2.1687,2.1687,2.1687,2.1687,2.1687,2.1687,2.1687,2.1687,2.1687,2.1687,2.1687,2.1687,2.1687,2.1687,2.1687,2.1687,2.1687,2.1687,2.1687,2.1687,2.1687,2.1687,2.1642,2.1553,2.1177,2.0952,2.0862,2.0382,1.9973,1.9592,1.95,1.9196,1.8781,1.8781,1.8781,1.8781,1.8781,1.9455,2.0439,2.1382,2.2227,2.2887,2.2887,2.3497,2.4272,2.4272,2.4358,2.4507,2.4507,2.4507,2.4507,2.4507,2.4507,2.4507,2.4507,2.4507,2.4507,2.4507,2.4507,2.4507,2.4507,2.4507,2.4507,2.4507,2.4507,2.4507,2.4507,2.4507,2.4507,2.4507,2.4507,2.4507,2.4507,2.4507,2.4507,2.4507,2.4507,2.4507,2.4507,2.4507,2.4507,2.4507,2.4507,2.4507,2.4507,2.4962,2.5461,2.5875,2.6205,2.6685,2.7309,2.7499,2.7547,2.7547,2.7547,2.7668,2.7951,2.816,2.8301,2.8484,2.915,2.9746,3.0275,3.0821,3.128,3.1629,2.2913,2.2565,2.2254,2.2217,2.1925,2.1687,2.1687,2.1687,2.1687,2.1687,2.1687,2.1687,2.1687,2.1687,2.1687,2.1687,2.1687,2.1687,2.1687,2.1687,2.1687,2.1687,2.1687,2.1687,2.1687,2.1687,2.1687,2.1687,2.1687,2.1687,2.1687,2.1687,2.1463,2.1087,2.1042,2.0772,2.0382,1.9866,1.9637,1.9546,1.9104,1.8874,1.8781,1.8781,1.8781,1.8781,1.8781,1.9455,2.0439,2.1382,2.1784,2.1872,2.1872,2.2536,2.328,2.328,2.3864,2.4507,2.4507,2.4507,2.4507,2.4507,2.4507,2.4507,2.4507,2.4507,2.4507,2.4507,2.4507,2.4507,2.4507,2.4507,2.4507,2.4507,2.4507,2.4507,2.4507,2.4507,2.4507,2.4507,2.4507,2.4507,2.4507,2.4507,2.4507,2.4507,2.4507,2.4507,2.4507,2.4507,2.4507,2.4507,2.4507,2.4507,2.4507,2.4962,2.5461,2.5941,2.6335,2.6791,2.7309,2.7309,2.7357,2.7357,2.7357,2.7452,2.7689,2.7689,2.7972,2.8438,2.8981,2.9601,3.0319,3.1192,3.1564,3.1629,2.295,2.2748,2.2638,2.2638,2.2291,2.2016,2.2016,2.1833,2.1687,2.1687,2.1687,2.1687,2.1687,2.1687,2.1687,2.1687,2.1687,2.1687,2.1687,2.1687,2.1687,2.1687,2.1687,2.1687,2.1687,2.1687,2.1687,2.1687,2.1687,2.1687,2.1687,2.1419,2.1177,2.0997,2.0456,2.0093,1.9866,1.9379,1.9134,1.915,1.892,1.8781,1.8781,1.8781,1.8781,1.8781,1.8781,1.9104,1.9546,1.9957,2.0439,2.0934,2.0934,2.1543,2.2315,2.2315,2.2974,2.3644,2.331,2.3609,2.3934,2.357,2.3364,2.3402,2.4192,2.4231,2.4166,2.4463,2.4507,2.4507,2.4507,2.4507,2.4507,2.4507,2.4507,2.4507,2.4507,2.4507,2.4507,2.4507,2.4507,2.4507,2.4507,2.4507,2.4507,2.4507,2.4507,2.4507,2.4507,2.4507,2.4507,2.4507,2.4507,2.4631,2.4879,2.5378,2.5813,2.6314,2.677,2.7102,2.7309,2.7309,2.7309,2.7309,2.7309,2.7357,2.7452,2.7547,2.7978,2.8588,2.908,2.9848,3.081,3.1374,3.1629,3.1629]}]]